<?xml version="1.0" encoding="UTF-8" standalone="no" ?>
<gpx xmlns="http://www.topografix.com/GPX/1/1" xmlns:xsi="http://www.w3.org/2001/XMLSchema-instance" xsi:schemaLocation="http://www.topografix.com/GPX/1/1 http://www.topografix.com/GPX/1/1/gpx.xsd" version="1.1" creator="VisuGPX - https://www.visugpx.com">
  <metadata>
    <name>Kerlaz/Nevet</name>
    <desc><![CDATA[Départ parking de la Mairie village de Kerlaz,suivre un moment la rte , puis obliquer à droite en direction Park Lann, et poursuivre vers Le Cotty, prendre à gauche  un sentier peu marquer le long d\'un muret en direction d\'un point d\'eau, et suivre la lisière du bois. A la côte 126,prendre à droite, puis à gauche une longue ligne droite. Ensuite, avec une carte ou un GPS, vous pouvez donner libre court à vos envies les sentiers sont nombreux, mais s\'égarer est facile. Une belle balade ou il faut être attentif.
ch ]]></desc>
  </metadata>
  <trk>
    <name><![CDATA[Kerlaz/Nevet 26/11/15]]></name>
    <trkseg>
      <trkpt lat="48.09182" lon="-4.27332">
        <ele>81.368774414062</ele>
        <time>2015-11-26T12:47:07Z</time>
      </trkpt>
      <trkpt lat="48.09182" lon="-4.27332">
        <ele>80.88818359375</ele>
        <time>2015-11-26T12:47:08Z</time>
      </trkpt>
      <trkpt lat="48.09175" lon="-4.27327">
        <ele>79.446044921875</ele>
        <time>2015-11-26T12:47:16Z</time>
      </trkpt>
      <trkpt lat="48.09168" lon="-4.27326">
        <ele>79.446044921875</ele>
        <time>2015-11-26T12:47:23Z</time>
      </trkpt>
      <trkpt lat="48.09167" lon="-4.27326">
        <ele>78.965454101562</ele>
        <time>2015-11-26T12:47:24Z</time>
      </trkpt>
      <trkpt lat="48.0916" lon="-4.27312">
        <ele>78.965454101562</ele>
        <time>2015-11-26T12:47:34Z</time>
      </trkpt>
      <trkpt lat="48.09157" lon="-4.27305">
        <ele>79.446044921875</ele>
        <time>2015-11-26T12:47:39Z</time>
      </trkpt>
      <trkpt lat="48.09157" lon="-4.27303">
        <ele>79.446044921875</ele>
        <time>2015-11-26T12:47:41Z</time>
      </trkpt>
      <trkpt lat="48.09155" lon="-4.2729">
        <ele>80.88818359375</ele>
        <time>2015-11-26T12:47:49Z</time>
      </trkpt>
      <trkpt lat="48.09154" lon="-4.27285">
        <ele>80.88818359375</ele>
        <time>2015-11-26T12:47:52Z</time>
      </trkpt>
      <trkpt lat="48.09148" lon="-4.27276">
        <ele>80.88818359375</ele>
        <time>2015-11-26T12:47:59Z</time>
      </trkpt>
      <trkpt lat="48.09143" lon="-4.2727">
        <ele>80.88818359375</ele>
        <time>2015-11-26T12:48:05Z</time>
      </trkpt>
      <trkpt lat="48.09136" lon="-4.27263">
        <ele>81.368774414062</ele>
        <time>2015-11-26T12:48:13Z</time>
      </trkpt>
      <trkpt lat="48.09135" lon="-4.27257">
        <ele>81.368774414062</ele>
        <time>2015-11-26T12:48:17Z</time>
      </trkpt>
      <trkpt lat="48.09129" lon="-4.27253">
        <ele>79.446044921875</ele>
        <time>2015-11-26T12:48:25Z</time>
      </trkpt>
      <trkpt lat="48.09127" lon="-4.27251">
        <ele>79.446044921875</ele>
        <time>2015-11-26T12:48:31Z</time>
      </trkpt>
      <trkpt lat="48.09128" lon="-4.2725">
        <ele>79.446044921875</ele>
        <time>2015-11-26T12:48:32Z</time>
      </trkpt>
      <trkpt lat="48.09132" lon="-4.27243">
        <ele>79.926635742188</ele>
        <time>2015-11-26T12:48:40Z</time>
      </trkpt>
      <trkpt lat="48.09131" lon="-4.27239">
        <ele>81.849365234375</ele>
        <time>2015-11-26T12:48:45Z</time>
      </trkpt>
      <trkpt lat="48.09128" lon="-4.27243">
        <ele>78.484741210938</ele>
        <time>2015-11-26T12:48:49Z</time>
      </trkpt>
      <trkpt lat="48.09126" lon="-4.27241">
        <ele>78.004028320312</ele>
        <time>2015-11-26T12:48:52Z</time>
      </trkpt>
      <trkpt lat="48.09118" lon="-4.2724">
        <ele>79.446044921875</ele>
        <time>2015-11-26T12:48:58Z</time>
      </trkpt>
      <trkpt lat="48.09111" lon="-4.27242">
        <ele>79.446044921875</ele>
        <time>2015-11-26T12:49:04Z</time>
      </trkpt>
      <trkpt lat="48.09109" lon="-4.27244">
        <ele>79.926635742188</ele>
        <time>2015-11-26T12:49:06Z</time>
      </trkpt>
      <trkpt lat="48.0911" lon="-4.27247">
        <ele>79.446044921875</ele>
        <time>2015-11-26T12:49:11Z</time>
      </trkpt>
      <trkpt lat="48.09108" lon="-4.27244">
        <ele>82.330078125</ele>
        <time>2015-11-26T12:49:18Z</time>
      </trkpt>
      <trkpt lat="48.09106" lon="-4.27243">
        <ele>83.291381835938</ele>
        <time>2015-11-26T12:49:25Z</time>
      </trkpt>
      <trkpt lat="48.09101" lon="-4.27237">
        <ele>82.810791015625</ele>
        <time>2015-11-26T12:49:32Z</time>
      </trkpt>
      <trkpt lat="48.09097" lon="-4.27237">
        <ele>80.88818359375</ele>
        <time>2015-11-26T12:49:38Z</time>
      </trkpt>
      <trkpt lat="48.09097" lon="-4.27236">
        <ele>80.407470703125</ele>
        <time>2015-11-26T12:49:44Z</time>
      </trkpt>
      <trkpt lat="48.09097" lon="-4.27238">
        <ele>79.446044921875</ele>
        <time>2015-11-26T12:49:49Z</time>
      </trkpt>
      <trkpt lat="48.09102" lon="-4.27248">
        <ele>78.004028320312</ele>
        <time>2015-11-26T12:49:57Z</time>
      </trkpt>
      <trkpt lat="48.091" lon="-4.2725">
        <ele>77.5234375</ele>
        <time>2015-11-26T12:49:59Z</time>
      </trkpt>
      <trkpt lat="48.09094" lon="-4.2725">
        <ele>79.926635742188</ele>
        <time>2015-11-26T12:50:04Z</time>
      </trkpt>
      <trkpt lat="48.09088" lon="-4.27239">
        <ele>78.484741210938</ele>
        <time>2015-11-26T12:50:13Z</time>
      </trkpt>
      <trkpt lat="48.09083" lon="-4.27227">
        <ele>78.004028320312</ele>
        <time>2015-11-26T12:50:22Z</time>
      </trkpt>
      <trkpt lat="48.0908" lon="-4.27218">
        <ele>77.5234375</ele>
        <time>2015-11-26T12:50:28Z</time>
      </trkpt>
      <trkpt lat="48.09077" lon="-4.27208">
        <ele>78.484741210938</ele>
        <time>2015-11-26T12:50:34Z</time>
      </trkpt>
      <trkpt lat="48.09073" lon="-4.27194">
        <ele>78.484741210938</ele>
        <time>2015-11-26T12:50:43Z</time>
      </trkpt>
      <trkpt lat="48.0907" lon="-4.2718">
        <ele>79.926635742188</ele>
        <time>2015-11-26T12:50:51Z</time>
      </trkpt>
      <trkpt lat="48.09068" lon="-4.27167">
        <ele>79.926635742188</ele>
        <time>2015-11-26T12:50:59Z</time>
      </trkpt>
      <trkpt lat="48.09067" lon="-4.27154">
        <ele>79.926635742188</ele>
        <time>2015-11-26T12:51:07Z</time>
      </trkpt>
      <trkpt lat="48.09067" lon="-4.27141">
        <ele>79.926635742188</ele>
        <time>2015-11-26T12:51:14Z</time>
      </trkpt>
      <trkpt lat="48.09069" lon="-4.27128">
        <ele>79.446044921875</ele>
        <time>2015-11-26T12:51:22Z</time>
      </trkpt>
      <trkpt lat="48.09071" lon="-4.27114">
        <ele>78.965454101562</ele>
        <time>2015-11-26T12:51:31Z</time>
      </trkpt>
      <trkpt lat="48.09073" lon="-4.271">
        <ele>78.484741210938</ele>
        <time>2015-11-26T12:51:40Z</time>
      </trkpt>
      <trkpt lat="48.09075" lon="-4.27088">
        <ele>78.004028320312</ele>
        <time>2015-11-26T12:51:47Z</time>
      </trkpt>
      <trkpt lat="48.09078" lon="-4.27068">
        <ele>78.484741210938</ele>
        <time>2015-11-26T12:51:59Z</time>
      </trkpt>
      <trkpt lat="48.0908" lon="-4.27054">
        <ele>77.5234375</ele>
        <time>2015-11-26T12:52:08Z</time>
      </trkpt>
      <trkpt lat="48.0908" lon="-4.27047">
        <ele>77.5234375</ele>
        <time>2015-11-26T12:52:12Z</time>
      </trkpt>
      <trkpt lat="48.09082" lon="-4.27027">
        <ele>78.484741210938</ele>
        <time>2015-11-26T12:52:23Z</time>
      </trkpt>
      <trkpt lat="48.09086" lon="-4.27014">
        <ele>78.484741210938</ele>
        <time>2015-11-26T12:52:32Z</time>
      </trkpt>
      <trkpt lat="48.09091" lon="-4.26997">
        <ele>79.926635742188</ele>
        <time>2015-11-26T12:52:42Z</time>
      </trkpt>
      <trkpt lat="48.09095" lon="-4.26974">
        <ele>80.88818359375</ele>
        <time>2015-11-26T12:52:55Z</time>
      </trkpt>
      <trkpt lat="48.09097" lon="-4.26959">
        <ele>79.926635742188</ele>
        <time>2015-11-26T12:53:04Z</time>
      </trkpt>
      <trkpt lat="48.09099" lon="-4.26947">
        <ele>79.926635742188</ele>
        <time>2015-11-26T12:53:11Z</time>
      </trkpt>
      <trkpt lat="48.09102" lon="-4.2693">
        <ele>79.926635742188</ele>
        <time>2015-11-26T12:53:21Z</time>
      </trkpt>
      <trkpt lat="48.09104" lon="-4.26911">
        <ele>81.368774414062</ele>
        <time>2015-11-26T12:53:30Z</time>
      </trkpt>
      <trkpt lat="48.09108" lon="-4.26892">
        <ele>81.849365234375</ele>
        <time>2015-11-26T12:53:40Z</time>
      </trkpt>
      <trkpt lat="48.09113" lon="-4.26868">
        <ele>81.849365234375</ele>
        <time>2015-11-26T12:53:53Z</time>
      </trkpt>
      <trkpt lat="48.09118" lon="-4.26848">
        <ele>82.330078125</ele>
        <time>2015-11-26T12:54:04Z</time>
      </trkpt>
      <trkpt lat="48.09121" lon="-4.2683">
        <ele>83.77197265625</ele>
        <time>2015-11-26T12:54:13Z</time>
      </trkpt>
      <trkpt lat="48.09124" lon="-4.26814">
        <ele>82.810791015625</ele>
        <time>2015-11-26T12:54:23Z</time>
      </trkpt>
      <trkpt lat="48.09127" lon="-4.26796">
        <ele>83.291381835938</ele>
        <time>2015-11-26T12:54:33Z</time>
      </trkpt>
      <trkpt lat="48.09129" lon="-4.26779">
        <ele>83.291381835938</ele>
        <time>2015-11-26T12:54:42Z</time>
      </trkpt>
      <trkpt lat="48.0913" lon="-4.26765">
        <ele>82.810791015625</ele>
        <time>2015-11-26T12:54:50Z</time>
      </trkpt>
      <trkpt lat="48.0913" lon="-4.26745">
        <ele>82.330078125</ele>
        <time>2015-11-26T12:55:01Z</time>
      </trkpt>
      <trkpt lat="48.0913" lon="-4.26725">
        <ele>82.330078125</ele>
        <time>2015-11-26T12:55:11Z</time>
      </trkpt>
      <trkpt lat="48.0913" lon="-4.2672">
        <ele>82.330078125</ele>
        <time>2015-11-26T12:55:14Z</time>
      </trkpt>
      <trkpt lat="48.09131" lon="-4.26712">
        <ele>82.810791015625</ele>
        <time>2015-11-26T12:55:19Z</time>
      </trkpt>
      <trkpt lat="48.09131" lon="-4.26707">
        <ele>83.291381835938</ele>
        <time>2015-11-26T12:55:21Z</time>
      </trkpt>
      <trkpt lat="48.09131" lon="-4.26683">
        <ele>84.252685546875</ele>
        <time>2015-11-26T12:55:33Z</time>
      </trkpt>
      <trkpt lat="48.09131" lon="-4.26668">
        <ele>84.7333984375</ele>
        <time>2015-11-26T12:55:41Z</time>
      </trkpt>
      <trkpt lat="48.09131" lon="-4.2666">
        <ele>84.7333984375</ele>
        <time>2015-11-26T12:55:46Z</time>
      </trkpt>
      <trkpt lat="48.09128" lon="-4.26654">
        <ele>84.7333984375</ele>
        <time>2015-11-26T12:55:51Z</time>
      </trkpt>
      <trkpt lat="48.09132" lon="-4.26647">
        <ele>84.7333984375</ele>
        <time>2015-11-26T12:55:57Z</time>
      </trkpt>
      <trkpt lat="48.09134" lon="-4.26641">
        <ele>84.7333984375</ele>
        <time>2015-11-26T12:56:00Z</time>
      </trkpt>
      <trkpt lat="48.09135" lon="-4.26624">
        <ele>85.694580078125</ele>
        <time>2015-11-26T12:56:09Z</time>
      </trkpt>
      <trkpt lat="48.09134" lon="-4.26618">
        <ele>86.17529296875</ele>
        <time>2015-11-26T12:56:12Z</time>
      </trkpt>
      <trkpt lat="48.09135" lon="-4.26607">
        <ele>86.17529296875</ele>
        <time>2015-11-26T12:56:18Z</time>
      </trkpt>
      <trkpt lat="48.09135" lon="-4.26588">
        <ele>87.136596679688</ele>
        <time>2015-11-26T12:56:28Z</time>
      </trkpt>
      <trkpt lat="48.09135" lon="-4.26569">
        <ele>87.136596679688</ele>
        <time>2015-11-26T12:56:38Z</time>
      </trkpt>
      <trkpt lat="48.09135" lon="-4.26554">
        <ele>87.136596679688</ele>
        <time>2015-11-26T12:56:46Z</time>
      </trkpt>
      <trkpt lat="48.09133" lon="-4.26543">
        <ele>87.136596679688</ele>
        <time>2015-11-26T12:56:52Z</time>
      </trkpt>
      <trkpt lat="48.09133" lon="-4.26535">
        <ele>86.17529296875</ele>
        <time>2015-11-26T12:56:56Z</time>
      </trkpt>
      <trkpt lat="48.09134" lon="-4.26522">
        <ele>86.17529296875</ele>
        <time>2015-11-26T12:57:03Z</time>
      </trkpt>
      <trkpt lat="48.09134" lon="-4.26507">
        <ele>86.17529296875</ele>
        <time>2015-11-26T12:57:11Z</time>
      </trkpt>
      <trkpt lat="48.09136" lon="-4.26488">
        <ele>87.136596679688</ele>
        <time>2015-11-26T12:57:21Z</time>
      </trkpt>
      <trkpt lat="48.09137" lon="-4.26474">
        <ele>87.6171875</ele>
        <time>2015-11-26T12:57:29Z</time>
      </trkpt>
      <trkpt lat="48.09138" lon="-4.26458">
        <ele>88.578735351562</ele>
        <time>2015-11-26T12:57:38Z</time>
      </trkpt>
      <trkpt lat="48.09139" lon="-4.26441">
        <ele>89.059326171875</ele>
        <time>2015-11-26T12:57:47Z</time>
      </trkpt>
      <trkpt lat="48.0914" lon="-4.26427">
        <ele>88.578735351562</ele>
        <time>2015-11-26T12:57:55Z</time>
      </trkpt>
      <trkpt lat="48.0914" lon="-4.26419">
        <ele>88.578735351562</ele>
        <time>2015-11-26T12:57:59Z</time>
      </trkpt>
      <trkpt lat="48.09141" lon="-4.26407">
        <ele>88.578735351562</ele>
        <time>2015-11-26T12:58:06Z</time>
      </trkpt>
      <trkpt lat="48.09142" lon="-4.2639">
        <ele>88.098022460938</ele>
        <time>2015-11-26T12:58:15Z</time>
      </trkpt>
      <trkpt lat="48.09143" lon="-4.26377">
        <ele>88.098022460938</ele>
        <time>2015-11-26T12:58:22Z</time>
      </trkpt>
      <trkpt lat="48.09144" lon="-4.26364">
        <ele>86.656005859375</ele>
        <time>2015-11-26T12:58:29Z</time>
      </trkpt>
      <trkpt lat="48.09144" lon="-4.26352">
        <ele>87.6171875</ele>
        <time>2015-11-26T12:58:35Z</time>
      </trkpt>
      <trkpt lat="48.09144" lon="-4.26343">
        <ele>87.136596679688</ele>
        <time>2015-11-26T12:58:40Z</time>
      </trkpt>
      <trkpt lat="48.09145" lon="-4.26339">
        <ele>86.17529296875</ele>
        <time>2015-11-26T12:58:43Z</time>
      </trkpt>
      <trkpt lat="48.09143" lon="-4.26327">
        <ele>86.656005859375</ele>
        <time>2015-11-26T12:58:48Z</time>
      </trkpt>
      <trkpt lat="48.09143" lon="-4.26322">
        <ele>85.694580078125</ele>
        <time>2015-11-26T12:58:51Z</time>
      </trkpt>
      <trkpt lat="48.09144" lon="-4.26312">
        <ele>85.213989257812</ele>
        <time>2015-11-26T12:58:56Z</time>
      </trkpt>
      <trkpt lat="48.09145" lon="-4.26307">
        <ele>84.7333984375</ele>
        <time>2015-11-26T12:58:59Z</time>
      </trkpt>
      <trkpt lat="48.09148" lon="-4.26301">
        <ele>86.17529296875</ele>
        <time>2015-11-26T12:59:03Z</time>
      </trkpt>
      <trkpt lat="48.0915" lon="-4.26293">
        <ele>86.17529296875</ele>
        <time>2015-11-26T12:59:07Z</time>
      </trkpt>
      <trkpt lat="48.09152" lon="-4.26288">
        <ele>86.17529296875</ele>
        <time>2015-11-26T12:59:10Z</time>
      </trkpt>
      <trkpt lat="48.09155" lon="-4.2628">
        <ele>84.252685546875</ele>
        <time>2015-11-26T12:59:15Z</time>
      </trkpt>
      <trkpt lat="48.09155" lon="-4.26278">
        <ele>83.77197265625</ele>
        <time>2015-11-26T12:59:16Z</time>
      </trkpt>
      <trkpt lat="48.09157" lon="-4.26266">
        <ele>83.77197265625</ele>
        <time>2015-11-26T12:59:23Z</time>
      </trkpt>
      <trkpt lat="48.0915" lon="-4.26259">
        <ele>84.7333984375</ele>
        <time>2015-11-26T12:59:31Z</time>
      </trkpt>
      <trkpt lat="48.09149" lon="-4.26258">
        <ele>85.213989257812</ele>
        <time>2015-11-26T12:59:32Z</time>
      </trkpt>
      <trkpt lat="48.09138" lon="-4.26253">
        <ele>87.136596679688</ele>
        <time>2015-11-26T12:59:40Z</time>
      </trkpt>
      <trkpt lat="48.0913" lon="-4.26258">
        <ele>87.6171875</ele>
        <time>2015-11-26T12:59:47Z</time>
      </trkpt>
      <trkpt lat="48.09121" lon="-4.26258">
        <ele>89.059326171875</ele>
        <time>2015-11-26T12:59:54Z</time>
      </trkpt>
      <trkpt lat="48.09116" lon="-4.26257">
        <ele>87.136596679688</ele>
        <time>2015-11-26T12:59:58Z</time>
      </trkpt>
      <trkpt lat="48.09111" lon="-4.26255">
        <ele>87.6171875</ele>
        <time>2015-11-26T13:00:02Z</time>
      </trkpt>
      <trkpt lat="48.09101" lon="-4.26249">
        <ele>90.020629882812</ele>
        <time>2015-11-26T13:00:10Z</time>
      </trkpt>
      <trkpt lat="48.09091" lon="-4.26244">
        <ele>91.462524414062</ele>
        <time>2015-11-26T13:00:18Z</time>
      </trkpt>
      <trkpt lat="48.0909" lon="-4.26243">
        <ele>91.462524414062</ele>
        <time>2015-11-26T13:00:19Z</time>
      </trkpt>
      <trkpt lat="48.09087" lon="-4.26249">
        <ele>90.501342773438</ele>
        <time>2015-11-26T13:00:24Z</time>
      </trkpt>
      <trkpt lat="48.09085" lon="-4.26255">
        <ele>89.539916992188</ele>
        <time>2015-11-26T13:00:28Z</time>
      </trkpt>
      <trkpt lat="48.0908" lon="-4.26255">
        <ele>90.020629882812</ele>
        <time>2015-11-26T13:00:33Z</time>
      </trkpt>
      <trkpt lat="48.09076" lon="-4.26252">
        <ele>91.462524414062</ele>
        <time>2015-11-26T13:00:38Z</time>
      </trkpt>
      <trkpt lat="48.09071" lon="-4.26249">
        <ele>90.98193359375</ele>
        <time>2015-11-26T13:00:42Z</time>
      </trkpt>
      <trkpt lat="48.09062" lon="-4.26245">
        <ele>91.462524414062</ele>
        <time>2015-11-26T13:00:49Z</time>
      </trkpt>
      <trkpt lat="48.09053" lon="-4.26241">
        <ele>90.98193359375</ele>
        <time>2015-11-26T13:00:57Z</time>
      </trkpt>
      <trkpt lat="48.09051" lon="-4.2624">
        <ele>90.501342773438</ele>
        <time>2015-11-26T13:00:58Z</time>
      </trkpt>
      <trkpt lat="48.09043" lon="-4.26237">
        <ele>92.423950195312</ele>
        <time>2015-11-26T13:01:04Z</time>
      </trkpt>
      <trkpt lat="48.09037" lon="-4.26236">
        <ele>93.385131835938</ele>
        <time>2015-11-26T13:01:08Z</time>
      </trkpt>
      <trkpt lat="48.09035" lon="-4.26235">
        <ele>94.346557617188</ele>
        <time>2015-11-26T13:01:10Z</time>
      </trkpt>
      <trkpt lat="48.09026" lon="-4.26235">
        <ele>94.346557617188</ele>
        <time>2015-11-26T13:01:17Z</time>
      </trkpt>
      <trkpt lat="48.09018" lon="-4.26233">
        <ele>93.865844726562</ele>
        <time>2015-11-26T13:01:24Z</time>
      </trkpt>
      <trkpt lat="48.0901" lon="-4.26231">
        <ele>93.385131835938</ele>
        <time>2015-11-26T13:01:31Z</time>
      </trkpt>
      <trkpt lat="48.09005" lon="-4.26231">
        <ele>93.385131835938</ele>
        <time>2015-11-26T13:01:35Z</time>
      </trkpt>
      <trkpt lat="48.08997" lon="-4.26231">
        <ele>90.501342773438</ele>
        <time>2015-11-26T13:01:43Z</time>
      </trkpt>
      <trkpt lat="48.08987" lon="-4.2623">
        <ele>89.539916992188</ele>
        <time>2015-11-26T13:01:52Z</time>
      </trkpt>
      <trkpt lat="48.08978" lon="-4.26228">
        <ele>88.578735351562</ele>
        <time>2015-11-26T13:02:00Z</time>
      </trkpt>
      <trkpt lat="48.08967" lon="-4.26227">
        <ele>86.17529296875</ele>
        <time>2015-11-26T13:02:10Z</time>
      </trkpt>
      <trkpt lat="48.08958" lon="-4.26226">
        <ele>84.7333984375</ele>
        <time>2015-11-26T13:02:18Z</time>
      </trkpt>
      <trkpt lat="48.0895" lon="-4.26225">
        <ele>83.77197265625</ele>
        <time>2015-11-26T13:02:25Z</time>
      </trkpt>
      <trkpt lat="48.0894" lon="-4.26223">
        <ele>82.810791015625</ele>
        <time>2015-11-26T13:02:33Z</time>
      </trkpt>
      <trkpt lat="48.08933" lon="-4.26222">
        <ele>82.330078125</ele>
        <time>2015-11-26T13:02:38Z</time>
      </trkpt>
      <trkpt lat="48.08926" lon="-4.26219">
        <ele>82.330078125</ele>
        <time>2015-11-26T13:02:44Z</time>
      </trkpt>
      <trkpt lat="48.08918" lon="-4.26212">
        <ele>84.252685546875</ele>
        <time>2015-11-26T13:02:51Z</time>
      </trkpt>
      <trkpt lat="48.08914" lon="-4.262">
        <ele>85.213989257812</ele>
        <time>2015-11-26T13:02:59Z</time>
      </trkpt>
      <trkpt lat="48.08911" lon="-4.26191">
        <ele>86.656005859375</ele>
        <time>2015-11-26T13:03:05Z</time>
      </trkpt>
      <trkpt lat="48.08908" lon="-4.26179">
        <ele>88.098022460938</ele>
        <time>2015-11-26T13:03:11Z</time>
      </trkpt>
      <trkpt lat="48.08906" lon="-4.26165">
        <ele>90.98193359375</ele>
        <time>2015-11-26T13:03:17Z</time>
      </trkpt>
      <trkpt lat="48.08904" lon="-4.26159">
        <ele>91.943237304688</ele>
        <time>2015-11-26T13:03:20Z</time>
      </trkpt>
      <trkpt lat="48.08903" lon="-4.26154">
        <ele>91.462524414062</ele>
        <time>2015-11-26T13:03:23Z</time>
      </trkpt>
      <trkpt lat="48.08902" lon="-4.26148">
        <ele>90.98193359375</ele>
        <time>2015-11-26T13:03:26Z</time>
      </trkpt>
      <trkpt lat="48.089" lon="-4.26131">
        <ele>90.501342773438</ele>
        <time>2015-11-26T13:03:36Z</time>
      </trkpt>
      <trkpt lat="48.08899" lon="-4.26129">
        <ele>90.501342773438</ele>
        <time>2015-11-26T13:03:37Z</time>
      </trkpt>
      <trkpt lat="48.08897" lon="-4.2612">
        <ele>91.462524414062</ele>
        <time>2015-11-26T13:03:42Z</time>
      </trkpt>
      <trkpt lat="48.08896" lon="-4.26107">
        <ele>92.423950195312</ele>
        <time>2015-11-26T13:03:48Z</time>
      </trkpt>
      <trkpt lat="48.08895" lon="-4.26103">
        <ele>92.423950195312</ele>
        <time>2015-11-26T13:03:50Z</time>
      </trkpt>
      <trkpt lat="48.08894" lon="-4.26093">
        <ele>92.423950195312</ele>
        <time>2015-11-26T13:03:55Z</time>
      </trkpt>
      <trkpt lat="48.08891" lon="-4.26086">
        <ele>92.904541015625</ele>
        <time>2015-11-26T13:04:00Z</time>
      </trkpt>
      <trkpt lat="48.08889" lon="-4.2608">
        <ele>92.423950195312</ele>
        <time>2015-11-26T13:04:04Z</time>
      </trkpt>
      <trkpt lat="48.08889" lon="-4.26074">
        <ele>92.423950195312</ele>
        <time>2015-11-26T13:04:07Z</time>
      </trkpt>
      <trkpt lat="48.08887" lon="-4.26061">
        <ele>92.423950195312</ele>
        <time>2015-11-26T13:04:14Z</time>
      </trkpt>
      <trkpt lat="48.08885" lon="-4.26049">
        <ele>92.423950195312</ele>
        <time>2015-11-26T13:04:20Z</time>
      </trkpt>
      <trkpt lat="48.08883" lon="-4.26034">
        <ele>92.904541015625</ele>
        <time>2015-11-26T13:04:28Z</time>
      </trkpt>
      <trkpt lat="48.08881" lon="-4.26019">
        <ele>93.865844726562</ele>
        <time>2015-11-26T13:04:35Z</time>
      </trkpt>
      <trkpt lat="48.08879" lon="-4.26003">
        <ele>93.865844726562</ele>
        <time>2015-11-26T13:04:44Z</time>
      </trkpt>
      <trkpt lat="48.08876" lon="-4.25987">
        <ele>93.865844726562</ele>
        <time>2015-11-26T13:04:53Z</time>
      </trkpt>
      <trkpt lat="48.08871" lon="-4.25973">
        <ele>93.865844726562</ele>
        <time>2015-11-26T13:05:01Z</time>
      </trkpt>
      <trkpt lat="48.08865" lon="-4.25964">
        <ele>92.904541015625</ele>
        <time>2015-11-26T13:05:07Z</time>
      </trkpt>
      <trkpt lat="48.0886" lon="-4.25956">
        <ele>93.385131835938</ele>
        <time>2015-11-26T13:05:13Z</time>
      </trkpt>
      <trkpt lat="48.08858" lon="-4.25953">
        <ele>93.865844726562</ele>
        <time>2015-11-26T13:05:15Z</time>
      </trkpt>
      <trkpt lat="48.08851" lon="-4.2595">
        <ele>93.385131835938</ele>
        <time>2015-11-26T13:05:21Z</time>
      </trkpt>
      <trkpt lat="48.08847" lon="-4.25945">
        <ele>93.385131835938</ele>
        <time>2015-11-26T13:05:25Z</time>
      </trkpt>
      <trkpt lat="48.08842" lon="-4.25942">
        <ele>93.865844726562</ele>
        <time>2015-11-26T13:05:29Z</time>
      </trkpt>
      <trkpt lat="48.08837" lon="-4.25939">
        <ele>93.865844726562</ele>
        <time>2015-11-26T13:05:33Z</time>
      </trkpt>
      <trkpt lat="48.08826" lon="-4.25931">
        <ele>94.346557617188</ele>
        <time>2015-11-26T13:05:41Z</time>
      </trkpt>
      <trkpt lat="48.0882" lon="-4.25927">
        <ele>95.307739257812</ele>
        <time>2015-11-26T13:05:46Z</time>
      </trkpt>
      <trkpt lat="48.08818" lon="-4.25927">
        <ele>95.307739257812</ele>
        <time>2015-11-26T13:05:48Z</time>
      </trkpt>
      <trkpt lat="48.08811" lon="-4.25922">
        <ele>94.8271484375</ele>
        <time>2015-11-26T13:05:52Z</time>
      </trkpt>
      <trkpt lat="48.08808" lon="-4.2592">
        <ele>95.307739257812</ele>
        <time>2015-11-26T13:05:54Z</time>
      </trkpt>
      <trkpt lat="48.08805" lon="-4.25919">
        <ele>94.8271484375</ele>
        <time>2015-11-26T13:05:57Z</time>
      </trkpt>
      <trkpt lat="48.08798" lon="-4.25919">
        <ele>94.346557617188</ele>
        <time>2015-11-26T13:06:03Z</time>
      </trkpt>
      <trkpt lat="48.08791" lon="-4.25918">
        <ele>93.865844726562</ele>
        <time>2015-11-26T13:06:09Z</time>
      </trkpt>
      <trkpt lat="48.08784" lon="-4.25918">
        <ele>92.904541015625</ele>
        <time>2015-11-26T13:06:14Z</time>
      </trkpt>
      <trkpt lat="48.08779" lon="-4.25917">
        <ele>92.904541015625</ele>
        <time>2015-11-26T13:06:19Z</time>
      </trkpt>
      <trkpt lat="48.08774" lon="-4.25914">
        <ele>89.539916992188</ele>
        <time>2015-11-26T13:06:25Z</time>
      </trkpt>
      <trkpt lat="48.0877" lon="-4.25907">
        <ele>89.059326171875</ele>
        <time>2015-11-26T13:06:32Z</time>
      </trkpt>
      <trkpt lat="48.08769" lon="-4.259">
        <ele>89.539916992188</ele>
        <time>2015-11-26T13:06:38Z</time>
      </trkpt>
      <trkpt lat="48.0877" lon="-4.25894">
        <ele>89.539916992188</ele>
        <time>2015-11-26T13:06:45Z</time>
      </trkpt>
      <trkpt lat="48.08769" lon="-4.25904">
        <ele>87.6171875</ele>
        <time>2015-11-26T13:06:51Z</time>
      </trkpt>
      <trkpt lat="48.0877" lon="-4.25913">
        <ele>86.656005859375</ele>
        <time>2015-11-26T13:06:56Z</time>
      </trkpt>
      <trkpt lat="48.08772" lon="-4.25917">
        <ele>87.136596679688</ele>
        <time>2015-11-26T13:07:01Z</time>
      </trkpt>
      <trkpt lat="48.0877" lon="-4.25922">
        <ele>85.694580078125</ele>
        <time>2015-11-26T13:07:07Z</time>
      </trkpt>
      <trkpt lat="48.08768" lon="-4.25928">
        <ele>85.694580078125</ele>
        <time>2015-11-26T13:07:12Z</time>
      </trkpt>
      <trkpt lat="48.08766" lon="-4.2593">
        <ele>87.6171875</ele>
        <time>2015-11-26T13:07:18Z</time>
      </trkpt>
      <trkpt lat="48.08769" lon="-4.25928">
        <ele>88.098022460938</ele>
        <time>2015-11-26T13:07:24Z</time>
      </trkpt>
      <trkpt lat="48.08772" lon="-4.25926">
        <ele>88.578735351562</ele>
        <time>2015-11-26T13:07:29Z</time>
      </trkpt>
      <trkpt lat="48.08773" lon="-4.25919">
        <ele>87.136596679688</ele>
        <time>2015-11-26T13:07:37Z</time>
      </trkpt>
      <trkpt lat="48.0877" lon="-4.25913">
        <ele>86.17529296875</ele>
        <time>2015-11-26T13:07:43Z</time>
      </trkpt>
      <trkpt lat="48.08769" lon="-4.25905">
        <ele>87.6171875</ele>
        <time>2015-11-26T13:07:48Z</time>
      </trkpt>
      <trkpt lat="48.08769" lon="-4.25894">
        <ele>89.539916992188</ele>
        <time>2015-11-26T13:07:54Z</time>
      </trkpt>
      <trkpt lat="48.08771" lon="-4.25886">
        <ele>91.943237304688</ele>
        <time>2015-11-26T13:08:01Z</time>
      </trkpt>
      <trkpt lat="48.08771" lon="-4.25885">
        <ele>91.943237304688</ele>
        <time>2015-11-26T13:08:07Z</time>
      </trkpt>
      <trkpt lat="48.08771" lon="-4.25887">
        <ele>91.943237304688</ele>
        <time>2015-11-26T13:08:12Z</time>
      </trkpt>
      <trkpt lat="48.0877" lon="-4.25896">
        <ele>88.578735351562</ele>
        <time>2015-11-26T13:08:18Z</time>
      </trkpt>
      <trkpt lat="48.0877" lon="-4.25902">
        <ele>87.6171875</ele>
        <time>2015-11-26T13:08:21Z</time>
      </trkpt>
      <trkpt lat="48.08768" lon="-4.25905">
        <ele>88.578735351562</ele>
        <time>2015-11-26T13:08:24Z</time>
      </trkpt>
      <trkpt lat="48.08769" lon="-4.25911">
        <ele>89.059326171875</ele>
        <time>2015-11-26T13:08:28Z</time>
      </trkpt>
      <trkpt lat="48.0877" lon="-4.25915">
        <ele>89.539916992188</ele>
        <time>2015-11-26T13:08:31Z</time>
      </trkpt>
      <trkpt lat="48.08765" lon="-4.25918">
        <ele>87.6171875</ele>
        <time>2015-11-26T13:08:38Z</time>
      </trkpt>
      <trkpt lat="48.08761" lon="-4.25917">
        <ele>87.6171875</ele>
        <time>2015-11-26T13:08:42Z</time>
      </trkpt>
      <trkpt lat="48.08754" lon="-4.25917">
        <ele>87.6171875</ele>
        <time>2015-11-26T13:08:48Z</time>
      </trkpt>
      <trkpt lat="48.0875" lon="-4.25915">
        <ele>85.694580078125</ele>
        <time>2015-11-26T13:08:53Z</time>
      </trkpt>
      <trkpt lat="48.08745" lon="-4.25915">
        <ele>85.213989257812</ele>
        <time>2015-11-26T13:08:58Z</time>
      </trkpt>
      <trkpt lat="48.08741" lon="-4.25915">
        <ele>84.7333984375</ele>
        <time>2015-11-26T13:09:02Z</time>
      </trkpt>
      <trkpt lat="48.08739" lon="-4.25913">
        <ele>84.252685546875</ele>
        <time>2015-11-26T13:09:04Z</time>
      </trkpt>
      <trkpt lat="48.08736" lon="-4.2591">
        <ele>83.77197265625</ele>
        <time>2015-11-26T13:09:07Z</time>
      </trkpt>
      <trkpt lat="48.0873" lon="-4.25904">
        <ele>85.694580078125</ele>
        <time>2015-11-26T13:09:13Z</time>
      </trkpt>
      <trkpt lat="48.08729" lon="-4.25903">
        <ele>86.656005859375</ele>
        <time>2015-11-26T13:09:14Z</time>
      </trkpt>
      <trkpt lat="48.08726" lon="-4.259">
        <ele>89.059326171875</ele>
        <time>2015-11-26T13:09:18Z</time>
      </trkpt>
      <trkpt lat="48.08722" lon="-4.25897">
        <ele>88.578735351562</ele>
        <time>2015-11-26T13:09:22Z</time>
      </trkpt>
      <trkpt lat="48.08721" lon="-4.25896">
        <ele>88.098022460938</ele>
        <time>2015-11-26T13:09:24Z</time>
      </trkpt>
      <trkpt lat="48.08715" lon="-4.25887">
        <ele>81.849365234375</ele>
        <time>2015-11-26T13:09:32Z</time>
      </trkpt>
      <trkpt lat="48.08712" lon="-4.25881">
        <ele>79.926635742188</ele>
        <time>2015-11-26T13:09:37Z</time>
      </trkpt>
      <trkpt lat="48.08709" lon="-4.25877">
        <ele>80.88818359375</ele>
        <time>2015-11-26T13:09:42Z</time>
      </trkpt>
      <trkpt lat="48.08706" lon="-4.25873">
        <ele>80.88818359375</ele>
        <time>2015-11-26T13:09:46Z</time>
      </trkpt>
      <trkpt lat="48.08701" lon="-4.25865">
        <ele>83.291381835938</ele>
        <time>2015-11-26T13:09:52Z</time>
      </trkpt>
      <trkpt lat="48.08698" lon="-4.25861">
        <ele>84.7333984375</ele>
        <time>2015-11-26T13:09:55Z</time>
      </trkpt>
      <trkpt lat="48.08697" lon="-4.2586">
        <ele>86.17529296875</ele>
        <time>2015-11-26T13:09:57Z</time>
      </trkpt>
      <trkpt lat="48.08691" lon="-4.25848">
        <ele>90.020629882812</ele>
        <time>2015-11-26T13:10:03Z</time>
      </trkpt>
      <trkpt lat="48.08688" lon="-4.2584">
        <ele>90.98193359375</ele>
        <time>2015-11-26T13:10:08Z</time>
      </trkpt>
      <trkpt lat="48.08684" lon="-4.25826">
        <ele>90.98193359375</ele>
        <time>2015-11-26T13:10:14Z</time>
      </trkpt>
      <trkpt lat="48.08682" lon="-4.25818">
        <ele>91.462524414062</ele>
        <time>2015-11-26T13:10:17Z</time>
      </trkpt>
      <trkpt lat="48.08681" lon="-4.25815">
        <ele>90.98193359375</ele>
        <time>2015-11-26T13:10:19Z</time>
      </trkpt>
      <trkpt lat="48.08678" lon="-4.25803">
        <ele>92.904541015625</ele>
        <time>2015-11-26T13:10:25Z</time>
      </trkpt>
      <trkpt lat="48.08673" lon="-4.25798">
        <ele>92.904541015625</ele>
        <time>2015-11-26T13:10:30Z</time>
      </trkpt>
      <trkpt lat="48.08671" lon="-4.258">
        <ele>90.501342773438</ele>
        <time>2015-11-26T13:10:33Z</time>
      </trkpt>
      <trkpt lat="48.08665" lon="-4.25808">
        <ele>87.136596679688</ele>
        <time>2015-11-26T13:10:40Z</time>
      </trkpt>
      <trkpt lat="48.08665" lon="-4.25817">
        <ele>84.7333984375</ele>
        <time>2015-11-26T13:10:45Z</time>
      </trkpt>
      <trkpt lat="48.08664" lon="-4.25825">
        <ele>83.77197265625</ele>
        <time>2015-11-26T13:10:51Z</time>
      </trkpt>
      <trkpt lat="48.08661" lon="-4.25831">
        <ele>78.965454101562</ele>
        <time>2015-11-26T13:10:57Z</time>
      </trkpt>
      <trkpt lat="48.08658" lon="-4.25836">
        <ele>73.67822265625</ele>
        <time>2015-11-26T13:11:02Z</time>
      </trkpt>
      <trkpt lat="48.08657" lon="-4.25839">
        <ele>73.197631835938</ele>
        <time>2015-11-26T13:11:04Z</time>
      </trkpt>
      <trkpt lat="48.08652" lon="-4.25844">
        <ele>69.352294921875</ele>
        <time>2015-11-26T13:11:10Z</time>
      </trkpt>
      <trkpt lat="48.08647" lon="-4.25848">
        <ele>67.4296875</ele>
        <time>2015-11-26T13:11:17Z</time>
      </trkpt>
      <trkpt lat="48.08644" lon="-4.25851">
        <ele>66.46826171875</ele>
        <time>2015-11-26T13:11:23Z</time>
      </trkpt>
      <trkpt lat="48.08639" lon="-4.25856">
        <ele>66.46826171875</ele>
        <time>2015-11-26T13:11:28Z</time>
      </trkpt>
      <trkpt lat="48.08637" lon="-4.25859">
        <ele>64.545654296875</ele>
        <time>2015-11-26T13:11:31Z</time>
      </trkpt>
      <trkpt lat="48.08632" lon="-4.25858">
        <ele>65.987670898438</ele>
        <time>2015-11-26T13:11:36Z</time>
      </trkpt>
      <trkpt lat="48.0863" lon="-4.25857">
        <ele>68.390869140625</ele>
        <time>2015-11-26T13:11:38Z</time>
      </trkpt>
      <trkpt lat="48.08626" lon="-4.25859">
        <ele>69.832885742188</ele>
        <time>2015-11-26T13:11:45Z</time>
      </trkpt>
      <trkpt lat="48.08625" lon="-4.25858">
        <ele>71.755493164062</ele>
        <time>2015-11-26T13:11:50Z</time>
      </trkpt>
      <trkpt lat="48.08625" lon="-4.25853">
        <ele>74.158813476562</ele>
        <time>2015-11-26T13:11:57Z</time>
      </trkpt>
      <trkpt lat="48.08626" lon="-4.25851">
        <ele>76.562133789062</ele>
        <time>2015-11-26T13:12:06Z</time>
      </trkpt>
      <trkpt lat="48.08627" lon="-4.25842">
        <ele>78.484741210938</ele>
        <time>2015-11-26T13:12:12Z</time>
      </trkpt>
      <trkpt lat="48.08629" lon="-4.25834">
        <ele>80.407470703125</ele>
        <time>2015-11-26T13:12:19Z</time>
      </trkpt>
      <trkpt lat="48.0863" lon="-4.25832">
        <ele>82.330078125</ele>
        <time>2015-11-26T13:12:21Z</time>
      </trkpt>
      <trkpt lat="48.08633" lon="-4.25831">
        <ele>82.330078125</ele>
        <time>2015-11-26T13:12:23Z</time>
      </trkpt>
      <trkpt lat="48.08638" lon="-4.25823">
        <ele>86.656005859375</ele>
        <time>2015-11-26T13:12:29Z</time>
      </trkpt>
      <trkpt lat="48.08639" lon="-4.25817">
        <ele>86.656005859375</ele>
        <time>2015-11-26T13:12:33Z</time>
      </trkpt>
      <trkpt lat="48.0864" lon="-4.25814">
        <ele>86.17529296875</ele>
        <time>2015-11-26T13:12:36Z</time>
      </trkpt>
      <trkpt lat="48.08642" lon="-4.25804">
        <ele>87.136596679688</ele>
        <time>2015-11-26T13:12:43Z</time>
      </trkpt>
      <trkpt lat="48.08646" lon="-4.25798">
        <ele>88.578735351562</ele>
        <time>2015-11-26T13:12:48Z</time>
      </trkpt>
      <trkpt lat="48.08649" lon="-4.25789">
        <ele>91.943237304688</ele>
        <time>2015-11-26T13:12:55Z</time>
      </trkpt>
      <trkpt lat="48.08653" lon="-4.25782">
        <ele>91.943237304688</ele>
        <time>2015-11-26T13:13:01Z</time>
      </trkpt>
      <trkpt lat="48.08653" lon="-4.2578">
        <ele>91.462524414062</ele>
        <time>2015-11-26T13:13:02Z</time>
      </trkpt>
      <trkpt lat="48.08653" lon="-4.25777">
        <ele>89.539916992188</ele>
        <time>2015-11-26T13:13:04Z</time>
      </trkpt>
      <trkpt lat="48.08655" lon="-4.25774">
        <ele>90.020629882812</ele>
        <time>2015-11-26T13:13:07Z</time>
      </trkpt>
      <trkpt lat="48.08656" lon="-4.25768">
        <ele>88.098022460938</ele>
        <time>2015-11-26T13:13:13Z</time>
      </trkpt>
      <trkpt lat="48.08659" lon="-4.25765">
        <ele>89.539916992188</ele>
        <time>2015-11-26T13:13:16Z</time>
      </trkpt>
      <trkpt lat="48.08664" lon="-4.25756">
        <ele>91.462524414062</ele>
        <time>2015-11-26T13:13:22Z</time>
      </trkpt>
      <trkpt lat="48.08666" lon="-4.25753">
        <ele>93.385131835938</ele>
        <time>2015-11-26T13:13:24Z</time>
      </trkpt>
      <trkpt lat="48.08671" lon="-4.25746">
        <ele>94.346557617188</ele>
        <time>2015-11-26T13:13:31Z</time>
      </trkpt>
      <trkpt lat="48.08672" lon="-4.25741">
        <ele>94.346557617188</ele>
        <time>2015-11-26T13:13:35Z</time>
      </trkpt>
      <trkpt lat="48.08672" lon="-4.25729">
        <ele>92.904541015625</ele>
        <time>2015-11-26T13:13:44Z</time>
      </trkpt>
      <trkpt lat="48.08669" lon="-4.25722">
        <ele>93.865844726562</ele>
        <time>2015-11-26T13:13:52Z</time>
      </trkpt>
      <trkpt lat="48.08672" lon="-4.25716">
        <ele>96.749877929688</ele>
        <time>2015-11-26T13:13:58Z</time>
      </trkpt>
      <trkpt lat="48.08677" lon="-4.25711">
        <ele>96.269287109375</ele>
        <time>2015-11-26T13:14:05Z</time>
      </trkpt>
      <trkpt lat="48.08681" lon="-4.25704">
        <ele>98.19189453125</ele>
        <time>2015-11-26T13:14:11Z</time>
      </trkpt>
      <trkpt lat="48.08685" lon="-4.25696">
        <ele>96.269287109375</ele>
        <time>2015-11-26T13:14:18Z</time>
      </trkpt>
      <trkpt lat="48.08688" lon="-4.25692">
        <ele>96.269287109375</ele>
        <time>2015-11-26T13:14:22Z</time>
      </trkpt>
      <trkpt lat="48.08695" lon="-4.25687">
        <ele>100.11450195312</ele>
        <time>2015-11-26T13:14:29Z</time>
      </trkpt>
      <trkpt lat="48.08698" lon="-4.25686">
        <ele>99.6337890625</ele>
        <time>2015-11-26T13:14:32Z</time>
      </trkpt>
      <trkpt lat="48.08705" lon="-4.25688">
        <ele>99.153076171875</ele>
        <time>2015-11-26T13:14:37Z</time>
      </trkpt>
      <trkpt lat="48.08708" lon="-4.25688">
        <ele>100.59509277344</ele>
        <time>2015-11-26T13:14:40Z</time>
      </trkpt>
      <trkpt lat="48.08711" lon="-4.25688">
        <ele>100.59509277344</ele>
        <time>2015-11-26T13:14:44Z</time>
      </trkpt>
      <trkpt lat="48.08714" lon="-4.25687">
        <ele>102.99829101562</ele>
        <time>2015-11-26T13:14:47Z</time>
      </trkpt>
      <trkpt lat="48.08719" lon="-4.25687">
        <ele>103.47900390625</ele>
        <time>2015-11-26T13:14:51Z</time>
      </trkpt>
      <trkpt lat="48.08726" lon="-4.25685">
        <ele>100.11450195312</ele>
        <time>2015-11-26T13:14:57Z</time>
      </trkpt>
      <trkpt lat="48.08728" lon="-4.25687">
        <ele>99.6337890625</ele>
        <time>2015-11-26T13:14:59Z</time>
      </trkpt>
      <trkpt lat="48.08737" lon="-4.25685">
        <ele>98.19189453125</ele>
        <time>2015-11-26T13:15:06Z</time>
      </trkpt>
      <trkpt lat="48.08737" lon="-4.25683">
        <ele>98.672485351562</ele>
        <time>2015-11-26T13:15:07Z</time>
      </trkpt>
      <trkpt lat="48.08744" lon="-4.25678">
        <ele>95.307739257812</ele>
        <time>2015-11-26T13:15:14Z</time>
      </trkpt>
      <trkpt lat="48.08745" lon="-4.25679">
        <ele>94.346557617188</ele>
        <time>2015-11-26T13:15:15Z</time>
      </trkpt>
      <trkpt lat="48.08752" lon="-4.25681">
        <ele>91.943237304688</ele>
        <time>2015-11-26T13:15:20Z</time>
      </trkpt>
      <trkpt lat="48.08761" lon="-4.25677">
        <ele>92.423950195312</ele>
        <time>2015-11-26T13:15:27Z</time>
      </trkpt>
      <trkpt lat="48.08763" lon="-4.25676">
        <ele>93.385131835938</ele>
        <time>2015-11-26T13:15:29Z</time>
      </trkpt>
      <trkpt lat="48.08769" lon="-4.25674">
        <ele>94.8271484375</ele>
        <time>2015-11-26T13:15:33Z</time>
      </trkpt>
      <trkpt lat="48.08775" lon="-4.25672">
        <ele>96.269287109375</ele>
        <time>2015-11-26T13:15:39Z</time>
      </trkpt>
      <trkpt lat="48.08777" lon="-4.25672">
        <ele>96.269287109375</ele>
        <time>2015-11-26T13:15:41Z</time>
      </trkpt>
      <trkpt lat="48.08782" lon="-4.2567">
        <ele>96.269287109375</ele>
        <time>2015-11-26T13:15:45Z</time>
      </trkpt>
      <trkpt lat="48.08785" lon="-4.25666">
        <ele>94.8271484375</ele>
        <time>2015-11-26T13:15:48Z</time>
      </trkpt>
      <trkpt lat="48.08792" lon="-4.25662">
        <ele>99.153076171875</ele>
        <time>2015-11-26T13:15:54Z</time>
      </trkpt>
      <trkpt lat="48.08793" lon="-4.25662">
        <ele>99.6337890625</ele>
        <time>2015-11-26T13:15:55Z</time>
      </trkpt>
      <trkpt lat="48.08796" lon="-4.25657">
        <ele>103.47900390625</ele>
        <time>2015-11-26T13:16:02Z</time>
      </trkpt>
      <trkpt lat="48.08801" lon="-4.25647">
        <ele>98.19189453125</ele>
        <time>2015-11-26T13:16:08Z</time>
      </trkpt>
      <trkpt lat="48.08801" lon="-4.25636">
        <ele>97.711181640625</ele>
        <time>2015-11-26T13:16:14Z</time>
      </trkpt>
      <trkpt lat="48.08805" lon="-4.25627">
        <ele>101.55639648438</ele>
        <time>2015-11-26T13:16:20Z</time>
      </trkpt>
      <trkpt lat="48.08803" lon="-4.25616">
        <ele>102.51770019531</ele>
        <time>2015-11-26T13:16:27Z</time>
      </trkpt>
      <trkpt lat="48.08803" lon="-4.25609">
        <ele>102.99829101562</ele>
        <time>2015-11-26T13:16:32Z</time>
      </trkpt>
      <trkpt lat="48.08803" lon="-4.25596">
        <ele>101.07568359375</ele>
        <time>2015-11-26T13:16:40Z</time>
      </trkpt>
      <trkpt lat="48.08802" lon="-4.25584">
        <ele>100.59509277344</ele>
        <time>2015-11-26T13:16:47Z</time>
      </trkpt>
      <trkpt lat="48.08803" lon="-4.2558">
        <ele>101.55639648438</ele>
        <time>2015-11-26T13:16:50Z</time>
      </trkpt>
      <trkpt lat="48.08805" lon="-4.25567">
        <ele>99.153076171875</ele>
        <time>2015-11-26T13:16:56Z</time>
      </trkpt>
      <trkpt lat="48.08806" lon="-4.25558">
        <ele>98.672485351562</ele>
        <time>2015-11-26T13:17:01Z</time>
      </trkpt>
      <trkpt lat="48.08803" lon="-4.2555">
        <ele>100.59509277344</ele>
        <time>2015-11-26T13:17:06Z</time>
      </trkpt>
      <trkpt lat="48.08803" lon="-4.25544">
        <ele>101.07568359375</ele>
        <time>2015-11-26T13:17:10Z</time>
      </trkpt>
      <trkpt lat="48.08803" lon="-4.25542">
        <ele>101.55639648438</ele>
        <time>2015-11-26T13:17:12Z</time>
      </trkpt>
      <trkpt lat="48.088" lon="-4.25535">
        <ele>99.153076171875</ele>
        <time>2015-11-26T13:17:19Z</time>
      </trkpt>
      <trkpt lat="48.08796" lon="-4.25528">
        <ele>99.6337890625</ele>
        <time>2015-11-26T13:17:26Z</time>
      </trkpt>
      <trkpt lat="48.08792" lon="-4.25523">
        <ele>96.749877929688</ele>
        <time>2015-11-26T13:17:32Z</time>
      </trkpt>
      <trkpt lat="48.08787" lon="-4.2552">
        <ele>95.788452148438</ele>
        <time>2015-11-26T13:17:39Z</time>
      </trkpt>
      <trkpt lat="48.08783" lon="-4.25513">
        <ele>95.307739257812</ele>
        <time>2015-11-26T13:17:44Z</time>
      </trkpt>
      <trkpt lat="48.08775" lon="-4.25506">
        <ele>95.307739257812</ele>
        <time>2015-11-26T13:17:52Z</time>
      </trkpt>
      <trkpt lat="48.08774" lon="-4.25506">
        <ele>95.307739257812</ele>
        <time>2015-11-26T13:17:53Z</time>
      </trkpt>
      <trkpt lat="48.08771" lon="-4.25503">
        <ele>95.788452148438</ele>
        <time>2015-11-26T13:17:57Z</time>
      </trkpt>
      <trkpt lat="48.08769" lon="-4.25491">
        <ele>98.19189453125</ele>
        <time>2015-11-26T13:18:03Z</time>
      </trkpt>
      <trkpt lat="48.08769" lon="-4.25487">
        <ele>98.672485351562</ele>
        <time>2015-11-26T13:18:05Z</time>
      </trkpt>
      <trkpt lat="48.08769" lon="-4.25482">
        <ele>98.19189453125</ele>
        <time>2015-11-26T13:18:09Z</time>
      </trkpt>
      <trkpt lat="48.08768" lon="-4.25472">
        <ele>98.19189453125</ele>
        <time>2015-11-26T13:18:15Z</time>
      </trkpt>
      <trkpt lat="48.08767" lon="-4.25462">
        <ele>99.153076171875</ele>
        <time>2015-11-26T13:18:23Z</time>
      </trkpt>
      <trkpt lat="48.08765" lon="-4.25452">
        <ele>101.07568359375</ele>
        <time>2015-11-26T13:18:29Z</time>
      </trkpt>
      <trkpt lat="48.08761" lon="-4.25437">
        <ele>101.55639648438</ele>
        <time>2015-11-26T13:18:35Z</time>
      </trkpt>
      <trkpt lat="48.08759" lon="-4.25433">
        <ele>101.07568359375</ele>
        <time>2015-11-26T13:18:38Z</time>
      </trkpt>
      <trkpt lat="48.08758" lon="-4.25425">
        <ele>101.07568359375</ele>
        <time>2015-11-26T13:18:43Z</time>
      </trkpt>
      <trkpt lat="48.08759" lon="-4.25416">
        <ele>99.153076171875</ele>
        <time>2015-11-26T13:18:48Z</time>
      </trkpt>
      <trkpt lat="48.08762" lon="-4.25405">
        <ele>98.19189453125</ele>
        <time>2015-11-26T13:18:54Z</time>
      </trkpt>
      <trkpt lat="48.08766" lon="-4.25395">
        <ele>100.59509277344</ele>
        <time>2015-11-26T13:19:01Z</time>
      </trkpt>
      <trkpt lat="48.0877" lon="-4.25385">
        <ele>100.59509277344</ele>
        <time>2015-11-26T13:19:07Z</time>
      </trkpt>
      <trkpt lat="48.08774" lon="-4.2538">
        <ele>102.99829101562</ele>
        <time>2015-11-26T13:19:12Z</time>
      </trkpt>
      <trkpt lat="48.08774" lon="-4.25379">
        <ele>103.47900390625</ele>
        <time>2015-11-26T13:19:13Z</time>
      </trkpt>
      <trkpt lat="48.08776" lon="-4.25379">
        <ele>102.99829101562</ele>
        <time>2015-11-26T13:19:15Z</time>
      </trkpt>
      <trkpt lat="48.08781" lon="-4.25374">
        <ele>102.037109375</ele>
        <time>2015-11-26T13:19:21Z</time>
      </trkpt>
      <trkpt lat="48.08783" lon="-4.2537">
        <ele>104.4404296875</ele>
        <time>2015-11-26T13:19:24Z</time>
      </trkpt>
      <trkpt lat="48.08783" lon="-4.25366">
        <ele>103.47900390625</ele>
        <time>2015-11-26T13:19:26Z</time>
      </trkpt>
      <trkpt lat="48.0878" lon="-4.25356">
        <ele>102.51770019531</ele>
        <time>2015-11-26T13:19:32Z</time>
      </trkpt>
      <trkpt lat="48.08778" lon="-4.2535">
        <ele>102.51770019531</ele>
        <time>2015-11-26T13:19:36Z</time>
      </trkpt>
      <trkpt lat="48.08772" lon="-4.25339">
        <ele>103.95971679688</ele>
        <time>2015-11-26T13:19:44Z</time>
      </trkpt>
      <trkpt lat="48.08767" lon="-4.25333">
        <ele>103.95971679688</ele>
        <time>2015-11-26T13:19:48Z</time>
      </trkpt>
      <trkpt lat="48.08762" lon="-4.25329">
        <ele>102.99829101562</ele>
        <time>2015-11-26T13:19:55Z</time>
      </trkpt>
      <trkpt lat="48.08753" lon="-4.25322">
        <ele>100.59509277344</ele>
        <time>2015-11-26T13:20:05Z</time>
      </trkpt>
      <trkpt lat="48.08746" lon="-4.25312">
        <ele>99.153076171875</ele>
        <time>2015-11-26T13:20:12Z</time>
      </trkpt>
      <trkpt lat="48.08743" lon="-4.25309">
        <ele>98.672485351562</ele>
        <time>2015-11-26T13:20:15Z</time>
      </trkpt>
      <trkpt lat="48.08737" lon="-4.253">
        <ele>98.19189453125</ele>
        <time>2015-11-26T13:20:22Z</time>
      </trkpt>
      <trkpt lat="48.08732" lon="-4.25291">
        <ele>98.672485351562</ele>
        <time>2015-11-26T13:20:28Z</time>
      </trkpt>
      <trkpt lat="48.08725" lon="-4.25273">
        <ele>99.153076171875</ele>
        <time>2015-11-26T13:20:37Z</time>
      </trkpt>
      <trkpt lat="48.08719" lon="-4.25258">
        <ele>99.6337890625</ele>
        <time>2015-11-26T13:20:45Z</time>
      </trkpt>
      <trkpt lat="48.08712" lon="-4.2524">
        <ele>100.59509277344</ele>
        <time>2015-11-26T13:20:55Z</time>
      </trkpt>
      <trkpt lat="48.08705" lon="-4.25223">
        <ele>100.59509277344</ele>
        <time>2015-11-26T13:21:05Z</time>
      </trkpt>
      <trkpt lat="48.087" lon="-4.2521">
        <ele>100.11450195312</ele>
        <time>2015-11-26T13:21:13Z</time>
      </trkpt>
      <trkpt lat="48.08695" lon="-4.25198">
        <ele>100.59509277344</ele>
        <time>2015-11-26T13:21:20Z</time>
      </trkpt>
      <trkpt lat="48.08691" lon="-4.25185">
        <ele>100.11450195312</ele>
        <time>2015-11-26T13:21:28Z</time>
      </trkpt>
      <trkpt lat="48.08687" lon="-4.25174">
        <ele>100.11450195312</ele>
        <time>2015-11-26T13:21:35Z</time>
      </trkpt>
      <trkpt lat="48.08686" lon="-4.25162">
        <ele>101.07568359375</ele>
        <time>2015-11-26T13:21:41Z</time>
      </trkpt>
      <trkpt lat="48.08685" lon="-4.25149">
        <ele>100.11450195312</ele>
        <time>2015-11-26T13:21:49Z</time>
      </trkpt>
      <trkpt lat="48.08685" lon="-4.25147">
        <ele>99.6337890625</ele>
        <time>2015-11-26T13:21:50Z</time>
      </trkpt>
      <trkpt lat="48.08685" lon="-4.25136">
        <ele>100.11450195312</ele>
        <time>2015-11-26T13:21:55Z</time>
      </trkpt>
      <trkpt lat="48.08683" lon="-4.25129">
        <ele>100.59509277344</ele>
        <time>2015-11-26T13:21:59Z</time>
      </trkpt>
      <trkpt lat="48.08678" lon="-4.25113">
        <ele>101.55639648438</ele>
        <time>2015-11-26T13:22:08Z</time>
      </trkpt>
      <trkpt lat="48.08674" lon="-4.25102">
        <ele>101.55639648438</ele>
        <time>2015-11-26T13:22:14Z</time>
      </trkpt>
      <trkpt lat="48.08669" lon="-4.25092">
        <ele>102.51770019531</ele>
        <time>2015-11-26T13:22:21Z</time>
      </trkpt>
      <trkpt lat="48.08667" lon="-4.25089">
        <ele>102.51770019531</ele>
        <time>2015-11-26T13:22:23Z</time>
      </trkpt>
      <trkpt lat="48.0866" lon="-4.2508">
        <ele>103.47900390625</ele>
        <time>2015-11-26T13:22:31Z</time>
      </trkpt>
      <trkpt lat="48.08658" lon="-4.25077">
        <ele>104.4404296875</ele>
        <time>2015-11-26T13:22:35Z</time>
      </trkpt>
      <trkpt lat="48.08652" lon="-4.2507">
        <ele>104.92102050781</ele>
        <time>2015-11-26T13:22:42Z</time>
      </trkpt>
      <trkpt lat="48.08651" lon="-4.25069">
        <ele>104.92102050781</ele>
        <time>2015-11-26T13:22:43Z</time>
      </trkpt>
      <trkpt lat="48.08648" lon="-4.25061">
        <ele>105.88244628906</ele>
        <time>2015-11-26T13:22:47Z</time>
      </trkpt>
      <trkpt lat="48.08647" lon="-4.25058">
        <ele>105.40173339844</ele>
        <time>2015-11-26T13:22:50Z</time>
      </trkpt>
      <trkpt lat="48.08646" lon="-4.25052">
        <ele>107.32434082031</ele>
        <time>2015-11-26T13:22:54Z</time>
      </trkpt>
      <trkpt lat="48.08645" lon="-4.25039">
        <ele>107.32434082031</ele>
        <time>2015-11-26T13:23:02Z</time>
      </trkpt>
      <trkpt lat="48.08644" lon="-4.25032">
        <ele>108.28564453125</ele>
        <time>2015-11-26T13:23:06Z</time>
      </trkpt>
      <trkpt lat="48.08644" lon="-4.25022">
        <ele>107.80505371094</ele>
        <time>2015-11-26T13:23:12Z</time>
      </trkpt>
      <trkpt lat="48.08642" lon="-4.2501">
        <ele>106.84362792969</ele>
        <time>2015-11-26T13:23:20Z</time>
      </trkpt>
      <trkpt lat="48.08642" lon="-4.25">
        <ele>107.80505371094</ele>
        <time>2015-11-26T13:23:26Z</time>
      </trkpt>
      <trkpt lat="48.08642" lon="-4.24995">
        <ele>108.28564453125</ele>
        <time>2015-11-26T13:23:29Z</time>
      </trkpt>
      <trkpt lat="48.08642" lon="-4.24983">
        <ele>110.68884277344</ele>
        <time>2015-11-26T13:23:36Z</time>
      </trkpt>
      <trkpt lat="48.08643" lon="-4.24973">
        <ele>109.24694824219</ele>
        <time>2015-11-26T13:23:42Z</time>
      </trkpt>
      <trkpt lat="48.08643" lon="-4.24967">
        <ele>109.24694824219</ele>
        <time>2015-11-26T13:23:46Z</time>
      </trkpt>
      <trkpt lat="48.08645" lon="-4.24962">
        <ele>109.24694824219</ele>
        <time>2015-11-26T13:23:49Z</time>
      </trkpt>
      <trkpt lat="48.08646" lon="-4.2495">
        <ele>110.20825195312</ele>
        <time>2015-11-26T13:23:55Z</time>
      </trkpt>
      <trkpt lat="48.08647" lon="-4.24939">
        <ele>111.16955566406</ele>
        <time>2015-11-26T13:24:01Z</time>
      </trkpt>
      <trkpt lat="48.08646" lon="-4.24933">
        <ele>110.68884277344</ele>
        <time>2015-11-26T13:24:04Z</time>
      </trkpt>
      <trkpt lat="48.08645" lon="-4.24916">
        <ele>110.20825195312</ele>
        <time>2015-11-26T13:24:13Z</time>
      </trkpt>
      <trkpt lat="48.08645" lon="-4.24913">
        <ele>109.72766113281</ele>
        <time>2015-11-26T13:24:15Z</time>
      </trkpt>
      <trkpt lat="48.08646" lon="-4.24906">
        <ele>110.68884277344</ele>
        <time>2015-11-26T13:24:19Z</time>
      </trkpt>
      <trkpt lat="48.08646" lon="-4.24892">
        <ele>112.13098144531</ele>
        <time>2015-11-26T13:24:26Z</time>
      </trkpt>
      <trkpt lat="48.08645" lon="-4.2489">
        <ele>111.65026855469</ele>
        <time>2015-11-26T13:24:27Z</time>
      </trkpt>
      <trkpt lat="48.08646" lon="-4.24878">
        <ele>113.09228515625</ele>
        <time>2015-11-26T13:24:34Z</time>
      </trkpt>
      <trkpt lat="48.08645" lon="-4.24866">
        <ele>113.57299804688</ele>
        <time>2015-11-26T13:24:40Z</time>
      </trkpt>
      <trkpt lat="48.08645" lon="-4.24864">
        <ele>113.57299804688</ele>
        <time>2015-11-26T13:24:41Z</time>
      </trkpt>
      <trkpt lat="48.08644" lon="-4.24846">
        <ele>114.05358886719</ele>
        <time>2015-11-26T13:24:50Z</time>
      </trkpt>
      <trkpt lat="48.08643" lon="-4.24838">
        <ele>111.16955566406</ele>
        <time>2015-11-26T13:24:55Z</time>
      </trkpt>
      <trkpt lat="48.08641" lon="-4.24827">
        <ele>110.68884277344</ele>
        <time>2015-11-26T13:25:01Z</time>
      </trkpt>
      <trkpt lat="48.08641" lon="-4.24824">
        <ele>111.16955566406</ele>
        <time>2015-11-26T13:25:03Z</time>
      </trkpt>
      <trkpt lat="48.0864" lon="-4.24814">
        <ele>113.57299804688</ele>
        <time>2015-11-26T13:25:09Z</time>
      </trkpt>
      <trkpt lat="48.0864" lon="-4.2481">
        <ele>115.01489257812</ele>
        <time>2015-11-26T13:25:15Z</time>
      </trkpt>
      <trkpt lat="48.08641" lon="-4.24804">
        <ele>118.37939453125</ele>
        <time>2015-11-26T13:25:25Z</time>
      </trkpt>
      <trkpt lat="48.08642" lon="-4.24802">
        <ele>119.82141113281</ele>
        <time>2015-11-26T13:25:32Z</time>
      </trkpt>
      <trkpt lat="48.08646" lon="-4.24803">
        <ele>123.18615722656</ele>
        <time>2015-11-26T13:25:45Z</time>
      </trkpt>
      <trkpt lat="48.08644" lon="-4.24801">
        <ele>116.45678710938</ele>
        <time>2015-11-26T13:26:04Z</time>
      </trkpt>
      <trkpt lat="48.08642" lon="-4.24794">
        <ele>114.5341796875</ele>
        <time>2015-11-26T13:26:09Z</time>
      </trkpt>
      <trkpt lat="48.08639" lon="-4.24786">
        <ele>113.57299804688</ele>
        <time>2015-11-26T13:26:14Z</time>
      </trkpt>
      <trkpt lat="48.08636" lon="-4.2478">
        <ele>113.57299804688</ele>
        <time>2015-11-26T13:26:18Z</time>
      </trkpt>
      <trkpt lat="48.08635" lon="-4.24768">
        <ele>115.97619628906</ele>
        <time>2015-11-26T13:26:25Z</time>
      </trkpt>
      <trkpt lat="48.08634" lon="-4.24762">
        <ele>115.49560546875</ele>
        <time>2015-11-26T13:26:29Z</time>
      </trkpt>
      <trkpt lat="48.08633" lon="-4.24757">
        <ele>115.01489257812</ele>
        <time>2015-11-26T13:26:32Z</time>
      </trkpt>
      <trkpt lat="48.08628" lon="-4.24745">
        <ele>112.13098144531</ele>
        <time>2015-11-26T13:26:39Z</time>
      </trkpt>
      <trkpt lat="48.08624" lon="-4.24736">
        <ele>111.16955566406</ele>
        <time>2015-11-26T13:26:45Z</time>
      </trkpt>
      <trkpt lat="48.08623" lon="-4.24731">
        <ele>109.72766113281</ele>
        <time>2015-11-26T13:26:48Z</time>
      </trkpt>
      <trkpt lat="48.08623" lon="-4.24728">
        <ele>110.20825195312</ele>
        <time>2015-11-26T13:26:50Z</time>
      </trkpt>
      <trkpt lat="48.08621" lon="-4.24722">
        <ele>110.68884277344</ele>
        <time>2015-11-26T13:26:54Z</time>
      </trkpt>
      <trkpt lat="48.08622" lon="-4.24717">
        <ele>113.57299804688</ele>
        <time>2015-11-26T13:26:58Z</time>
      </trkpt>
      <trkpt lat="48.08622" lon="-4.24713">
        <ele>113.57299804688</ele>
        <time>2015-11-26T13:27:00Z</time>
      </trkpt>
      <trkpt lat="48.08623" lon="-4.24703">
        <ele>111.16955566406</ele>
        <time>2015-11-26T13:27:05Z</time>
      </trkpt>
      <trkpt lat="48.08624" lon="-4.24699">
        <ele>109.72766113281</ele>
        <time>2015-11-26T13:27:07Z</time>
      </trkpt>
      <trkpt lat="48.08625" lon="-4.24693">
        <ele>108.28564453125</ele>
        <time>2015-11-26T13:27:10Z</time>
      </trkpt>
      <trkpt lat="48.08625" lon="-4.24685">
        <ele>108.28564453125</ele>
        <time>2015-11-26T13:27:14Z</time>
      </trkpt>
      <trkpt lat="48.08625" lon="-4.2468">
        <ele>109.24694824219</ele>
        <time>2015-11-26T13:27:16Z</time>
      </trkpt>
      <trkpt lat="48.08626" lon="-4.24672">
        <ele>110.68884277344</ele>
        <time>2015-11-26T13:27:20Z</time>
      </trkpt>
      <trkpt lat="48.08628" lon="-4.24658">
        <ele>112.61157226562</ele>
        <time>2015-11-26T13:27:27Z</time>
      </trkpt>
      <trkpt lat="48.0863" lon="-4.2465">
        <ele>112.13098144531</ele>
        <time>2015-11-26T13:27:31Z</time>
      </trkpt>
      <trkpt lat="48.08634" lon="-4.24639">
        <ele>113.57299804688</ele>
        <time>2015-11-26T13:27:38Z</time>
      </trkpt>
      <trkpt lat="48.08636" lon="-4.24633">
        <ele>114.05358886719</ele>
        <time>2015-11-26T13:27:41Z</time>
      </trkpt>
      <trkpt lat="48.08638" lon="-4.24621">
        <ele>115.49560546875</ele>
        <time>2015-11-26T13:27:47Z</time>
      </trkpt>
      <trkpt lat="48.08638" lon="-4.24616">
        <ele>115.01489257812</ele>
        <time>2015-11-26T13:27:50Z</time>
      </trkpt>
      <trkpt lat="48.08641" lon="-4.24605">
        <ele>115.49560546875</ele>
        <time>2015-11-26T13:27:56Z</time>
      </trkpt>
      <trkpt lat="48.08642" lon="-4.24599">
        <ele>116.45678710938</ele>
        <time>2015-11-26T13:28:00Z</time>
      </trkpt>
      <trkpt lat="48.08645" lon="-4.24585">
        <ele>113.09228515625</ele>
        <time>2015-11-26T13:28:07Z</time>
      </trkpt>
      <trkpt lat="48.08646" lon="-4.24575">
        <ele>112.13098144531</ele>
        <time>2015-11-26T13:28:12Z</time>
      </trkpt>
      <trkpt lat="48.08648" lon="-4.24572">
        <ele>111.65026855469</ele>
        <time>2015-11-26T13:28:14Z</time>
      </trkpt>
      <trkpt lat="48.0865" lon="-4.24561">
        <ele>112.61157226562</ele>
        <time>2015-11-26T13:28:20Z</time>
      </trkpt>
      <trkpt lat="48.08652" lon="-4.24554">
        <ele>113.09228515625</ele>
        <time>2015-11-26T13:28:24Z</time>
      </trkpt>
      <trkpt lat="48.08653" lon="-4.24551">
        <ele>112.61157226562</ele>
        <time>2015-11-26T13:28:26Z</time>
      </trkpt>
      <trkpt lat="48.08655" lon="-4.24541">
        <ele>110.68884277344</ele>
        <time>2015-11-26T13:28:33Z</time>
      </trkpt>
      <trkpt lat="48.08657" lon="-4.24534">
        <ele>111.16955566406</ele>
        <time>2015-11-26T13:28:37Z</time>
      </trkpt>
      <trkpt lat="48.08659" lon="-4.24528">
        <ele>112.61157226562</ele>
        <time>2015-11-26T13:28:41Z</time>
      </trkpt>
      <trkpt lat="48.08662" lon="-4.24518">
        <ele>113.57299804688</ele>
        <time>2015-11-26T13:28:47Z</time>
      </trkpt>
      <trkpt lat="48.08663" lon="-4.24511">
        <ele>114.5341796875</ele>
        <time>2015-11-26T13:28:51Z</time>
      </trkpt>
      <trkpt lat="48.08666" lon="-4.24503">
        <ele>115.97619628906</ele>
        <time>2015-11-26T13:28:56Z</time>
      </trkpt>
      <trkpt lat="48.08668" lon="-4.24492">
        <ele>113.57299804688</ele>
        <time>2015-11-26T13:29:02Z</time>
      </trkpt>
      <trkpt lat="48.0867" lon="-4.24486">
        <ele>114.05358886719</ele>
        <time>2015-11-26T13:29:06Z</time>
      </trkpt>
      <trkpt lat="48.08676" lon="-4.24477">
        <ele>116.45678710938</ele>
        <time>2015-11-26T13:29:11Z</time>
      </trkpt>
      <trkpt lat="48.08679" lon="-4.2447">
        <ele>116.9375</ele>
        <time>2015-11-26T13:29:16Z</time>
      </trkpt>
      <trkpt lat="48.08683" lon="-4.24461">
        <ele>116.9375</ele>
        <time>2015-11-26T13:29:23Z</time>
      </trkpt>
      <trkpt lat="48.08689" lon="-4.24447">
        <ele>117.89880371094</ele>
        <time>2015-11-26T13:29:32Z</time>
      </trkpt>
      <trkpt lat="48.08694" lon="-4.24437">
        <ele>117.89880371094</ele>
        <time>2015-11-26T13:29:39Z</time>
      </trkpt>
      <trkpt lat="48.08697" lon="-4.24432">
        <ele>118.37939453125</ele>
        <time>2015-11-26T13:29:42Z</time>
      </trkpt>
      <trkpt lat="48.08699" lon="-4.24428">
        <ele>116.45678710938</ele>
        <time>2015-11-26T13:29:45Z</time>
      </trkpt>
      <trkpt lat="48.08705" lon="-4.24419">
        <ele>119.3408203125</ele>
        <time>2015-11-26T13:29:51Z</time>
      </trkpt>
      <trkpt lat="48.08709" lon="-4.24413">
        <ele>124.14733886719</ele>
        <time>2015-11-26T13:29:56Z</time>
      </trkpt>
      <trkpt lat="48.08713" lon="-4.24404">
        <ele>128.9541015625</ele>
        <time>2015-11-26T13:30:02Z</time>
      </trkpt>
      <trkpt lat="48.0872" lon="-4.24399">
        <ele>130.39599609375</ele>
        <time>2015-11-26T13:30:10Z</time>
      </trkpt>
      <trkpt lat="48.08726" lon="-4.24393">
        <ele>128.9541015625</ele>
        <time>2015-11-26T13:30:17Z</time>
      </trkpt>
      <trkpt lat="48.08729" lon="-4.24392">
        <ele>126.55065917969</ele>
        <time>2015-11-26T13:30:21Z</time>
      </trkpt>
      <trkpt lat="48.08738" lon="-4.24386">
        <ele>125.10876464844</ele>
        <time>2015-11-26T13:30:28Z</time>
      </trkpt>
      <trkpt lat="48.08743" lon="-4.24384">
        <ele>125.58935546875</ele>
        <time>2015-11-26T13:30:31Z</time>
      </trkpt>
      <trkpt lat="48.08753" lon="-4.2438">
        <ele>121.26354980469</ele>
        <time>2015-11-26T13:30:39Z</time>
      </trkpt>
      <trkpt lat="48.08754" lon="-4.2438">
        <ele>120.30212402344</ele>
        <time>2015-11-26T13:30:40Z</time>
      </trkpt>
      <trkpt lat="48.08756" lon="-4.24379">
        <ele>119.82141113281</ele>
        <time>2015-11-26T13:30:42Z</time>
      </trkpt>
      <trkpt lat="48.08764" lon="-4.24374">
        <ele>120.30212402344</ele>
        <time>2015-11-26T13:30:48Z</time>
      </trkpt>
      <trkpt lat="48.08772" lon="-4.24371">
        <ele>120.30212402344</ele>
        <time>2015-11-26T13:30:56Z</time>
      </trkpt>
      <trkpt lat="48.08781" lon="-4.24367">
        <ele>119.82141113281</ele>
        <time>2015-11-26T13:31:03Z</time>
      </trkpt>
      <trkpt lat="48.08786" lon="-4.24364">
        <ele>120.30212402344</ele>
        <time>2015-11-26T13:31:07Z</time>
      </trkpt>
      <trkpt lat="48.08793" lon="-4.2436">
        <ele>115.49560546875</ele>
        <time>2015-11-26T13:31:13Z</time>
      </trkpt>
      <trkpt lat="48.088" lon="-4.24357">
        <ele>115.01489257812</ele>
        <time>2015-11-26T13:31:18Z</time>
      </trkpt>
      <trkpt lat="48.08805" lon="-4.24354">
        <ele>114.05358886719</ele>
        <time>2015-11-26T13:31:23Z</time>
      </trkpt>
      <trkpt lat="48.08807" lon="-4.24353">
        <ele>111.65026855469</ele>
        <time>2015-11-26T13:31:25Z</time>
      </trkpt>
      <trkpt lat="48.08812" lon="-4.24351">
        <ele>111.16955566406</ele>
        <time>2015-11-26T13:31:29Z</time>
      </trkpt>
      <trkpt lat="48.08818" lon="-4.24348">
        <ele>108.28564453125</ele>
        <time>2015-11-26T13:31:35Z</time>
      </trkpt>
      <trkpt lat="48.08831" lon="-4.24346">
        <ele>108.76623535156</ele>
        <time>2015-11-26T13:31:44Z</time>
      </trkpt>
      <trkpt lat="48.08838" lon="-4.24344">
        <ele>108.28564453125</ele>
        <time>2015-11-26T13:31:50Z</time>
      </trkpt>
      <trkpt lat="48.08845" lon="-4.24342">
        <ele>108.76623535156</ele>
        <time>2015-11-26T13:31:56Z</time>
      </trkpt>
      <trkpt lat="48.0885" lon="-4.2434">
        <ele>109.72766113281</ele>
        <time>2015-11-26T13:32:00Z</time>
      </trkpt>
      <trkpt lat="48.08853" lon="-4.24339">
        <ele>108.28564453125</ele>
        <time>2015-11-26T13:32:03Z</time>
      </trkpt>
      <trkpt lat="48.08863" lon="-4.24337">
        <ele>112.13098144531</ele>
        <time>2015-11-26T13:32:09Z</time>
      </trkpt>
      <trkpt lat="48.08864" lon="-4.24337">
        <ele>113.09228515625</ele>
        <time>2015-11-26T13:32:10Z</time>
      </trkpt>
      <trkpt lat="48.0887" lon="-4.24336">
        <ele>115.97619628906</ele>
        <time>2015-11-26T13:32:14Z</time>
      </trkpt>
      <trkpt lat="48.08875" lon="-4.24336">
        <ele>117.89880371094</ele>
        <time>2015-11-26T13:32:18Z</time>
      </trkpt>
      <trkpt lat="48.08886" lon="-4.24332">
        <ele>120.30212402344</ele>
        <time>2015-11-26T13:32:27Z</time>
      </trkpt>
      <trkpt lat="48.08895" lon="-4.24328">
        <ele>121.26354980469</ele>
        <time>2015-11-26T13:32:34Z</time>
      </trkpt>
      <trkpt lat="48.08902" lon="-4.24326">
        <ele>121.744140625</ele>
        <time>2015-11-26T13:32:39Z</time>
      </trkpt>
      <trkpt lat="48.0891" lon="-4.24322">
        <ele>121.744140625</ele>
        <time>2015-11-26T13:32:46Z</time>
      </trkpt>
      <trkpt lat="48.08915" lon="-4.2432">
        <ele>121.744140625</ele>
        <time>2015-11-26T13:32:49Z</time>
      </trkpt>
      <trkpt lat="48.08927" lon="-4.24314">
        <ele>121.744140625</ele>
        <time>2015-11-26T13:32:58Z</time>
      </trkpt>
      <trkpt lat="48.08928" lon="-4.24313">
        <ele>121.744140625</ele>
        <time>2015-11-26T13:32:59Z</time>
      </trkpt>
      <trkpt lat="48.08937" lon="-4.24308">
        <ele>122.70544433594</ele>
        <time>2015-11-26T13:33:07Z</time>
      </trkpt>
      <trkpt lat="48.08944" lon="-4.24304">
        <ele>122.22473144531</ele>
        <time>2015-11-26T13:33:13Z</time>
      </trkpt>
      <trkpt lat="48.08951" lon="-4.24299">
        <ele>122.70544433594</ele>
        <time>2015-11-26T13:33:20Z</time>
      </trkpt>
      <trkpt lat="48.0896" lon="-4.24294">
        <ele>123.18615722656</ele>
        <time>2015-11-26T13:33:27Z</time>
      </trkpt>
      <trkpt lat="48.08968" lon="-4.2429">
        <ele>124.62805175781</ele>
        <time>2015-11-26T13:33:34Z</time>
      </trkpt>
      <trkpt lat="48.08971" lon="-4.24289">
        <ele>124.62805175781</ele>
        <time>2015-11-26T13:33:36Z</time>
      </trkpt>
      <trkpt lat="48.08975" lon="-4.24288">
        <ele>124.14733886719</ele>
        <time>2015-11-26T13:33:40Z</time>
      </trkpt>
      <trkpt lat="48.0898" lon="-4.24285">
        <ele>124.14733886719</ele>
        <time>2015-11-26T13:33:44Z</time>
      </trkpt>
      <trkpt lat="48.08987" lon="-4.24281">
        <ele>121.744140625</ele>
        <time>2015-11-26T13:33:51Z</time>
      </trkpt>
      <trkpt lat="48.08992" lon="-4.24278">
        <ele>122.70544433594</ele>
        <time>2015-11-26T13:33:55Z</time>
      </trkpt>
      <trkpt lat="48.08995" lon="-4.2427">
        <ele>124.14733886719</ele>
        <time>2015-11-26T13:34:00Z</time>
      </trkpt>
      <trkpt lat="48.09" lon="-4.24258">
        <ele>125.10876464844</ele>
        <time>2015-11-26T13:34:08Z</time>
      </trkpt>
      <trkpt lat="48.09002" lon="-4.24249">
        <ele>126.06994628906</ele>
        <time>2015-11-26T13:34:14Z</time>
      </trkpt>
      <trkpt lat="48.09005" lon="-4.24244">
        <ele>125.58935546875</ele>
        <time>2015-11-26T13:34:18Z</time>
      </trkpt>
      <trkpt lat="48.09012" lon="-4.24234">
        <ele>126.55065917969</ele>
        <time>2015-11-26T13:34:26Z</time>
      </trkpt>
      <trkpt lat="48.09013" lon="-4.24232">
        <ele>127.03137207031</ele>
        <time>2015-11-26T13:34:27Z</time>
      </trkpt>
      <trkpt lat="48.09016" lon="-4.24227">
        <ele>128.9541015625</ele>
        <time>2015-11-26T13:34:32Z</time>
      </trkpt>
      <trkpt lat="48.0902" lon="-4.24224">
        <ele>128.9541015625</ele>
        <time>2015-11-26T13:34:36Z</time>
      </trkpt>
      <trkpt lat="48.09027" lon="-4.24218">
        <ele>131.837890625</ele>
        <time>2015-11-26T13:34:42Z</time>
      </trkpt>
      <trkpt lat="48.09031" lon="-4.2421">
        <ele>131.837890625</ele>
        <time>2015-11-26T13:34:48Z</time>
      </trkpt>
      <trkpt lat="48.09031" lon="-4.24197">
        <ele>130.39599609375</ele>
        <time>2015-11-26T13:34:55Z</time>
      </trkpt>
      <trkpt lat="48.09026" lon="-4.24188">
        <ele>129.91528320312</ele>
        <time>2015-11-26T13:35:02Z</time>
      </trkpt>
      <trkpt lat="48.09021" lon="-4.24177">
        <ele>131.35729980469</ele>
        <time>2015-11-26T13:35:10Z</time>
      </trkpt>
      <trkpt lat="48.0902" lon="-4.24175">
        <ele>131.837890625</ele>
        <time>2015-11-26T13:35:12Z</time>
      </trkpt>
      <trkpt lat="48.09017" lon="-4.24165">
        <ele>130.87670898438</ele>
        <time>2015-11-26T13:35:18Z</time>
      </trkpt>
      <trkpt lat="48.09015" lon="-4.24163">
        <ele>129.91528320312</ele>
        <time>2015-11-26T13:35:20Z</time>
      </trkpt>
      <trkpt lat="48.09011" lon="-4.24154">
        <ele>131.35729980469</ele>
        <time>2015-11-26T13:35:28Z</time>
      </trkpt>
      <trkpt lat="48.09006" lon="-4.2414">
        <ele>130.39599609375</ele>
        <time>2015-11-26T13:35:36Z</time>
      </trkpt>
      <trkpt lat="48.09002" lon="-4.24127">
        <ele>130.39599609375</ele>
        <time>2015-11-26T13:35:43Z</time>
      </trkpt>
      <trkpt lat="48.09001" lon="-4.24125">
        <ele>130.39599609375</ele>
        <time>2015-11-26T13:35:44Z</time>
      </trkpt>
      <trkpt lat="48.08998" lon="-4.24119">
        <ele>130.87670898438</ele>
        <time>2015-11-26T13:35:48Z</time>
      </trkpt>
      <trkpt lat="48.08993" lon="-4.24112">
        <ele>132.31860351562</ele>
        <time>2015-11-26T13:35:53Z</time>
      </trkpt>
      <trkpt lat="48.08991" lon="-4.24109">
        <ele>131.837890625</ele>
        <time>2015-11-26T13:35:55Z</time>
      </trkpt>
      <trkpt lat="48.0899" lon="-4.24107">
        <ele>131.35729980469</ele>
        <time>2015-11-26T13:35:57Z</time>
      </trkpt>
      <trkpt lat="48.08984" lon="-4.24098">
        <ele>132.31860351562</ele>
        <time>2015-11-26T13:36:04Z</time>
      </trkpt>
      <trkpt lat="48.08982" lon="-4.24095">
        <ele>132.31860351562</ele>
        <time>2015-11-26T13:36:06Z</time>
      </trkpt>
      <trkpt lat="48.08977" lon="-4.24084">
        <ele>131.35729980469</ele>
        <time>2015-11-26T13:36:13Z</time>
      </trkpt>
      <trkpt lat="48.08974" lon="-4.24078">
        <ele>133.27990722656</ele>
        <time>2015-11-26T13:36:18Z</time>
      </trkpt>
      <trkpt lat="48.08969" lon="-4.24066">
        <ele>133.76049804688</ele>
        <time>2015-11-26T13:36:26Z</time>
      </trkpt>
      <trkpt lat="48.08967" lon="-4.24056">
        <ele>133.27990722656</ele>
        <time>2015-11-26T13:36:32Z</time>
      </trkpt>
      <trkpt lat="48.08966" lon="-4.24045">
        <ele>134.2412109375</ele>
        <time>2015-11-26T13:36:38Z</time>
      </trkpt>
      <trkpt lat="48.08963" lon="-4.24034">
        <ele>133.76049804688</ele>
        <time>2015-11-26T13:36:44Z</time>
      </trkpt>
      <trkpt lat="48.08965" lon="-4.24024">
        <ele>135.20251464844</ele>
        <time>2015-11-26T13:36:50Z</time>
      </trkpt>
      <trkpt lat="48.08966" lon="-4.24019">
        <ele>135.20251464844</ele>
        <time>2015-11-26T13:36:52Z</time>
      </trkpt>
      <trkpt lat="48.08966" lon="-4.24015">
        <ele>135.68310546875</ele>
        <time>2015-11-26T13:36:54Z</time>
      </trkpt>
      <trkpt lat="48.08968" lon="-4.24005">
        <ele>136.16394042969</ele>
        <time>2015-11-26T13:37:01Z</time>
      </trkpt>
      <trkpt lat="48.0897" lon="-4.2399">
        <ele>136.64465332031</ele>
        <time>2015-11-26T13:37:08Z</time>
      </trkpt>
      <trkpt lat="48.0897" lon="-4.23981">
        <ele>136.64465332031</ele>
        <time>2015-11-26T13:37:12Z</time>
      </trkpt>
      <trkpt lat="48.08973" lon="-4.23972">
        <ele>135.68310546875</ele>
        <time>2015-11-26T13:37:16Z</time>
      </trkpt>
      <trkpt lat="48.08973" lon="-4.23962">
        <ele>133.27990722656</ele>
        <time>2015-11-26T13:37:23Z</time>
      </trkpt>
      <trkpt lat="48.08974" lon="-4.23959">
        <ele>134.2412109375</ele>
        <time>2015-11-26T13:37:25Z</time>
      </trkpt>
      <trkpt lat="48.08976" lon="-4.23949">
        <ele>133.27990722656</ele>
        <time>2015-11-26T13:37:32Z</time>
      </trkpt>
      <trkpt lat="48.08974" lon="-4.2395">
        <ele>130.87670898438</ele>
        <time>2015-11-26T13:37:38Z</time>
      </trkpt>
      <trkpt lat="48.08969" lon="-4.23954">
        <ele>128.47338867188</ele>
        <time>2015-11-26T13:37:44Z</time>
      </trkpt>
      <trkpt lat="48.08966" lon="-4.23958">
        <ele>126.06994628906</ele>
        <time>2015-11-26T13:37:49Z</time>
      </trkpt>
      <trkpt lat="48.08962" lon="-4.23961">
        <ele>124.62805175781</ele>
        <time>2015-11-26T13:37:52Z</time>
      </trkpt>
      <trkpt lat="48.08959" lon="-4.23964">
        <ele>123.66674804688</ele>
        <time>2015-11-26T13:37:55Z</time>
      </trkpt>
      <trkpt lat="48.08954" lon="-4.23973">
        <ele>121.744140625</ele>
        <time>2015-11-26T13:38:03Z</time>
      </trkpt>
      <trkpt lat="48.08952" lon="-4.23978">
        <ele>121.26354980469</ele>
        <time>2015-11-26T13:38:07Z</time>
      </trkpt>
      <trkpt lat="48.0895" lon="-4.23983">
        <ele>121.744140625</ele>
        <time>2015-11-26T13:38:11Z</time>
      </trkpt>
      <trkpt lat="48.08943" lon="-4.23984">
        <ele>123.18615722656</ele>
        <time>2015-11-26T13:38:16Z</time>
      </trkpt>
      <trkpt lat="48.08938" lon="-4.23987">
        <ele>123.66674804688</ele>
        <time>2015-11-26T13:38:21Z</time>
      </trkpt>
      <trkpt lat="48.08932" lon="-4.23993">
        <ele>125.58935546875</ele>
        <time>2015-11-26T13:38:28Z</time>
      </trkpt>
      <trkpt lat="48.0893" lon="-4.23994">
        <ele>126.06994628906</ele>
        <time>2015-11-26T13:38:30Z</time>
      </trkpt>
      <trkpt lat="48.08925" lon="-4.23999">
        <ele>125.10876464844</ele>
        <time>2015-11-26T13:38:35Z</time>
      </trkpt>
      <trkpt lat="48.08922" lon="-4.24002">
        <ele>125.58935546875</ele>
        <time>2015-11-26T13:38:39Z</time>
      </trkpt>
      <trkpt lat="48.08918" lon="-4.24006">
        <ele>124.62805175781</ele>
        <time>2015-11-26T13:38:43Z</time>
      </trkpt>
      <trkpt lat="48.08915" lon="-4.24011">
        <ele>122.22473144531</ele>
        <time>2015-11-26T13:38:47Z</time>
      </trkpt>
      <trkpt lat="48.08911" lon="-4.24016">
        <ele>120.30212402344</ele>
        <time>2015-11-26T13:38:51Z</time>
      </trkpt>
      <trkpt lat="48.08906" lon="-4.24023">
        <ele>117.41821289062</ele>
        <time>2015-11-26T13:38:57Z</time>
      </trkpt>
      <trkpt lat="48.08902" lon="-4.2403">
        <ele>114.5341796875</ele>
        <time>2015-11-26T13:39:03Z</time>
      </trkpt>
      <trkpt lat="48.08898" lon="-4.24038">
        <ele>115.49560546875</ele>
        <time>2015-11-26T13:39:09Z</time>
      </trkpt>
      <trkpt lat="48.08896" lon="-4.2404">
        <ele>115.01489257812</ele>
        <time>2015-11-26T13:39:11Z</time>
      </trkpt>
      <trkpt lat="48.08894" lon="-4.24041">
        <ele>114.5341796875</ele>
        <time>2015-11-26T13:39:13Z</time>
      </trkpt>
      <trkpt lat="48.08889" lon="-4.24043">
        <ele>115.49560546875</ele>
        <time>2015-11-26T13:39:17Z</time>
      </trkpt>
      <trkpt lat="48.08883" lon="-4.24039">
        <ele>122.22473144531</ele>
        <time>2015-11-26T13:39:26Z</time>
      </trkpt>
      <trkpt lat="48.08877" lon="-4.24034">
        <ele>125.10876464844</ele>
        <time>2015-11-26T13:39:32Z</time>
      </trkpt>
      <trkpt lat="48.08871" lon="-4.24028">
        <ele>128.47338867188</ele>
        <time>2015-11-26T13:39:38Z</time>
      </trkpt>
      <trkpt lat="48.08869" lon="-4.24026">
        <ele>128.9541015625</ele>
        <time>2015-11-26T13:39:40Z</time>
      </trkpt>
      <trkpt lat="48.08862" lon="-4.24018">
        <ele>129.91528320312</ele>
        <time>2015-11-26T13:39:48Z</time>
      </trkpt>
      <trkpt lat="48.0886" lon="-4.24016">
        <ele>130.39599609375</ele>
        <time>2015-11-26T13:39:50Z</time>
      </trkpt>
      <trkpt lat="48.08858" lon="-4.24015">
        <ele>130.87670898438</ele>
        <time>2015-11-26T13:39:52Z</time>
      </trkpt>
      <trkpt lat="48.08855" lon="-4.2401">
        <ele>132.79931640625</ele>
        <time>2015-11-26T13:39:56Z</time>
      </trkpt>
      <trkpt lat="48.08848" lon="-4.24006">
        <ele>134.2412109375</ele>
        <time>2015-11-26T13:40:00Z</time>
      </trkpt>
      <trkpt lat="48.08844" lon="-4.24002">
        <ele>134.2412109375</ele>
        <time>2015-11-26T13:40:06Z</time>
      </trkpt>
      <trkpt lat="48.08837" lon="-4.23996">
        <ele>132.79931640625</ele>
        <time>2015-11-26T13:40:13Z</time>
      </trkpt>
      <trkpt lat="48.08833" lon="-4.23991">
        <ele>133.76049804688</ele>
        <time>2015-11-26T13:40:19Z</time>
      </trkpt>
      <trkpt lat="48.08832" lon="-4.2399">
        <ele>133.76049804688</ele>
        <time>2015-11-26T13:40:20Z</time>
      </trkpt>
      <trkpt lat="48.08825" lon="-4.23984">
        <ele>134.72192382812</ele>
        <time>2015-11-26T13:40:24Z</time>
      </trkpt>
      <trkpt lat="48.08821" lon="-4.23981">
        <ele>133.76049804688</ele>
        <time>2015-11-26T13:40:27Z</time>
      </trkpt>
      <trkpt lat="48.08814" lon="-4.23974">
        <ele>135.68310546875</ele>
        <time>2015-11-26T13:40:32Z</time>
      </trkpt>
      <trkpt lat="48.08811" lon="-4.2397">
        <ele>136.64465332031</ele>
        <time>2015-11-26T13:40:37Z</time>
      </trkpt>
      <trkpt lat="48.08806" lon="-4.23965">
        <ele>138.08654785156</ele>
        <time>2015-11-26T13:40:42Z</time>
      </trkpt>
      <trkpt lat="48.08804" lon="-4.23964">
        <ele>137.60583496094</ele>
        <time>2015-11-26T13:40:44Z</time>
      </trkpt>
      <trkpt lat="48.08796" lon="-4.23956">
        <ele>137.12524414062</ele>
        <time>2015-11-26T13:40:51Z</time>
      </trkpt>
      <trkpt lat="48.08791" lon="-4.23952">
        <ele>137.60583496094</ele>
        <time>2015-11-26T13:40:54Z</time>
      </trkpt>
      <trkpt lat="48.08782" lon="-4.23944">
        <ele>135.68310546875</ele>
        <time>2015-11-26T13:41:01Z</time>
      </trkpt>
      <trkpt lat="48.08778" lon="-4.23938">
        <ele>137.12524414062</ele>
        <time>2015-11-26T13:41:06Z</time>
      </trkpt>
      <trkpt lat="48.08771" lon="-4.23932">
        <ele>136.16394042969</ele>
        <time>2015-11-26T13:41:12Z</time>
      </trkpt>
      <trkpt lat="48.0877" lon="-4.2393">
        <ele>136.16394042969</ele>
        <time>2015-11-26T13:41:13Z</time>
      </trkpt>
      <trkpt lat="48.08767" lon="-4.23928">
        <ele>136.16394042969</ele>
        <time>2015-11-26T13:41:16Z</time>
      </trkpt>
      <trkpt lat="48.08764" lon="-4.23923">
        <ele>136.64465332031</ele>
        <time>2015-11-26T13:41:20Z</time>
      </trkpt>
      <trkpt lat="48.08755" lon="-4.23913">
        <ele>137.60583496094</ele>
        <time>2015-11-26T13:41:27Z</time>
      </trkpt>
      <trkpt lat="48.0875" lon="-4.23908">
        <ele>137.12524414062</ele>
        <time>2015-11-26T13:41:33Z</time>
      </trkpt>
      <trkpt lat="48.08748" lon="-4.23907">
        <ele>137.12524414062</ele>
        <time>2015-11-26T13:41:35Z</time>
      </trkpt>
      <trkpt lat="48.0874" lon="-4.23899">
        <ele>136.64465332031</ele>
        <time>2015-11-26T13:41:41Z</time>
      </trkpt>
      <trkpt lat="48.08733" lon="-4.23891">
        <ele>135.68310546875</ele>
        <time>2015-11-26T13:41:48Z</time>
      </trkpt>
      <trkpt lat="48.08727" lon="-4.23885">
        <ele>133.27990722656</ele>
        <time>2015-11-26T13:41:54Z</time>
      </trkpt>
      <trkpt lat="48.08723" lon="-4.23881">
        <ele>132.31860351562</ele>
        <time>2015-11-26T13:41:57Z</time>
      </trkpt>
      <trkpt lat="48.08719" lon="-4.23877">
        <ele>130.39599609375</ele>
        <time>2015-11-26T13:42:03Z</time>
      </trkpt>
      <trkpt lat="48.08718" lon="-4.23875">
        <ele>130.39599609375</ele>
        <time>2015-11-26T13:42:04Z</time>
      </trkpt>
      <trkpt lat="48.08712" lon="-4.23868">
        <ele>128.9541015625</ele>
        <time>2015-11-26T13:42:10Z</time>
      </trkpt>
      <trkpt lat="48.08711" lon="-4.23866">
        <ele>128.9541015625</ele>
        <time>2015-11-26T13:42:11Z</time>
      </trkpt>
      <trkpt lat="48.08708" lon="-4.23862">
        <ele>128.47338867188</ele>
        <time>2015-11-26T13:42:14Z</time>
      </trkpt>
      <trkpt lat="48.08703" lon="-4.23858">
        <ele>128.9541015625</ele>
        <time>2015-11-26T13:42:19Z</time>
      </trkpt>
      <trkpt lat="48.08694" lon="-4.23849">
        <ele>131.837890625</ele>
        <time>2015-11-26T13:42:26Z</time>
      </trkpt>
      <trkpt lat="48.08688" lon="-4.23842">
        <ele>130.87670898438</ele>
        <time>2015-11-26T13:42:31Z</time>
      </trkpt>
      <trkpt lat="48.0868" lon="-4.23834">
        <ele>130.87670898438</ele>
        <time>2015-11-26T13:42:38Z</time>
      </trkpt>
      <trkpt lat="48.08674" lon="-4.23829">
        <ele>131.837890625</ele>
        <time>2015-11-26T13:42:43Z</time>
      </trkpt>
      <trkpt lat="48.08671" lon="-4.23827">
        <ele>131.837890625</ele>
        <time>2015-11-26T13:42:47Z</time>
      </trkpt>
      <trkpt lat="48.08666" lon="-4.23823">
        <ele>132.31860351562</ele>
        <time>2015-11-26T13:42:51Z</time>
      </trkpt>
      <trkpt lat="48.08658" lon="-4.23815">
        <ele>130.87670898438</ele>
        <time>2015-11-26T13:42:57Z</time>
      </trkpt>
      <trkpt lat="48.08653" lon="-4.2381">
        <ele>130.39599609375</ele>
        <time>2015-11-26T13:43:02Z</time>
      </trkpt>
      <trkpt lat="48.08644" lon="-4.23803">
        <ele>129.91528320312</ele>
        <time>2015-11-26T13:43:09Z</time>
      </trkpt>
      <trkpt lat="48.08642" lon="-4.23801">
        <ele>129.91528320312</ele>
        <time>2015-11-26T13:43:11Z</time>
      </trkpt>
      <trkpt lat="48.08633" lon="-4.23792">
        <ele>129.91528320312</ele>
        <time>2015-11-26T13:43:18Z</time>
      </trkpt>
      <trkpt lat="48.08632" lon="-4.23791">
        <ele>129.43469238281</ele>
        <time>2015-11-26T13:43:19Z</time>
      </trkpt>
      <trkpt lat="48.08624" lon="-4.23785">
        <ele>128.47338867188</ele>
        <time>2015-11-26T13:43:25Z</time>
      </trkpt>
      <trkpt lat="48.08617" lon="-4.23777">
        <ele>127.51196289062</ele>
        <time>2015-11-26T13:43:31Z</time>
      </trkpt>
      <trkpt lat="48.08613" lon="-4.23771">
        <ele>127.99255371094</ele>
        <time>2015-11-26T13:43:36Z</time>
      </trkpt>
      <trkpt lat="48.08612" lon="-4.2377">
        <ele>127.99255371094</ele>
        <time>2015-11-26T13:43:37Z</time>
      </trkpt>
      <trkpt lat="48.08604" lon="-4.23762">
        <ele>127.99255371094</ele>
        <time>2015-11-26T13:43:43Z</time>
      </trkpt>
      <trkpt lat="48.086" lon="-4.23759">
        <ele>127.99255371094</ele>
        <time>2015-11-26T13:43:46Z</time>
      </trkpt>
      <trkpt lat="48.08595" lon="-4.23752">
        <ele>127.99255371094</ele>
        <time>2015-11-26T13:43:52Z</time>
      </trkpt>
      <trkpt lat="48.08587" lon="-4.23745">
        <ele>127.99255371094</ele>
        <time>2015-11-26T13:43:58Z</time>
      </trkpt>
      <trkpt lat="48.08581" lon="-4.23738">
        <ele>127.99255371094</ele>
        <time>2015-11-26T13:44:04Z</time>
      </trkpt>
      <trkpt lat="48.08573" lon="-4.23731">
        <ele>127.51196289062</ele>
        <time>2015-11-26T13:44:11Z</time>
      </trkpt>
      <trkpt lat="48.08566" lon="-4.23724">
        <ele>128.47338867188</ele>
        <time>2015-11-26T13:44:17Z</time>
      </trkpt>
      <trkpt lat="48.08559" lon="-4.23718">
        <ele>129.43469238281</ele>
        <time>2015-11-26T13:44:25Z</time>
      </trkpt>
      <trkpt lat="48.08555" lon="-4.23713">
        <ele>129.43469238281</ele>
        <time>2015-11-26T13:44:31Z</time>
      </trkpt>
      <trkpt lat="48.08549" lon="-4.23708">
        <ele>130.39599609375</ele>
        <time>2015-11-26T13:44:36Z</time>
      </trkpt>
      <trkpt lat="48.08543" lon="-4.23701">
        <ele>132.31860351562</ele>
        <time>2015-11-26T13:44:43Z</time>
      </trkpt>
      <trkpt lat="48.08535" lon="-4.23692">
        <ele>133.27990722656</ele>
        <time>2015-11-26T13:44:49Z</time>
      </trkpt>
      <trkpt lat="48.08528" lon="-4.23686">
        <ele>132.31860351562</ele>
        <time>2015-11-26T13:44:55Z</time>
      </trkpt>
      <trkpt lat="48.08527" lon="-4.23686">
        <ele>132.31860351562</ele>
        <time>2015-11-26T13:44:56Z</time>
      </trkpt>
      <trkpt lat="48.0852" lon="-4.23679">
        <ele>130.87670898438</ele>
        <time>2015-11-26T13:45:01Z</time>
      </trkpt>
      <trkpt lat="48.0852" lon="-4.23678">
        <ele>131.35729980469</ele>
        <time>2015-11-26T13:45:02Z</time>
      </trkpt>
      <trkpt lat="48.08512" lon="-4.23667">
        <ele>129.43469238281</ele>
        <time>2015-11-26T13:45:10Z</time>
      </trkpt>
      <trkpt lat="48.08509" lon="-4.23661">
        <ele>128.9541015625</ele>
        <time>2015-11-26T13:45:14Z</time>
      </trkpt>
      <trkpt lat="48.08505" lon="-4.23653">
        <ele>129.43469238281</ele>
        <time>2015-11-26T13:45:21Z</time>
      </trkpt>
      <trkpt lat="48.08503" lon="-4.23643">
        <ele>130.39599609375</ele>
        <time>2015-11-26T13:45:28Z</time>
      </trkpt>
      <trkpt lat="48.08502" lon="-4.23633">
        <ele>131.35729980469</ele>
        <time>2015-11-26T13:45:34Z</time>
      </trkpt>
      <trkpt lat="48.08501" lon="-4.23626">
        <ele>131.837890625</ele>
        <time>2015-11-26T13:45:38Z</time>
      </trkpt>
      <trkpt lat="48.08501" lon="-4.23615">
        <ele>134.2412109375</ele>
        <time>2015-11-26T13:45:44Z</time>
      </trkpt>
      <trkpt lat="48.085" lon="-4.2361">
        <ele>135.20251464844</ele>
        <time>2015-11-26T13:45:47Z</time>
      </trkpt>
      <trkpt lat="48.08496" lon="-4.23598">
        <ele>133.27990722656</ele>
        <time>2015-11-26T13:45:55Z</time>
      </trkpt>
      <trkpt lat="48.08492" lon="-4.23586">
        <ele>131.35729980469</ele>
        <time>2015-11-26T13:46:01Z</time>
      </trkpt>
      <trkpt lat="48.08492" lon="-4.23581">
        <ele>131.837890625</ele>
        <time>2015-11-26T13:46:04Z</time>
      </trkpt>
      <trkpt lat="48.08492" lon="-4.23571">
        <ele>131.35729980469</ele>
        <time>2015-11-26T13:46:10Z</time>
      </trkpt>
      <trkpt lat="48.08492" lon="-4.23569">
        <ele>130.87670898438</ele>
        <time>2015-11-26T13:46:11Z</time>
      </trkpt>
      <trkpt lat="48.08488" lon="-4.23559">
        <ele>127.03137207031</ele>
        <time>2015-11-26T13:46:17Z</time>
      </trkpt>
      <trkpt lat="48.08487" lon="-4.23551">
        <ele>126.06994628906</ele>
        <time>2015-11-26T13:46:21Z</time>
      </trkpt>
      <trkpt lat="48.08482" lon="-4.23548">
        <ele>123.66674804688</ele>
        <time>2015-11-26T13:46:25Z</time>
      </trkpt>
      <trkpt lat="48.08478" lon="-4.23543">
        <ele>123.66674804688</ele>
        <time>2015-11-26T13:46:30Z</time>
      </trkpt>
      <trkpt lat="48.08474" lon="-4.23541">
        <ele>123.66674804688</ele>
        <time>2015-11-26T13:46:35Z</time>
      </trkpt>
      <trkpt lat="48.08466" lon="-4.23533">
        <ele>119.3408203125</ele>
        <time>2015-11-26T13:46:43Z</time>
      </trkpt>
      <trkpt lat="48.0846" lon="-4.23522">
        <ele>117.41821289062</ele>
        <time>2015-11-26T13:46:50Z</time>
      </trkpt>
      <trkpt lat="48.08454" lon="-4.23512">
        <ele>115.01489257812</ele>
        <time>2015-11-26T13:46:57Z</time>
      </trkpt>
      <trkpt lat="48.08451" lon="-4.23503">
        <ele>113.09228515625</ele>
        <time>2015-11-26T13:47:03Z</time>
      </trkpt>
      <trkpt lat="48.08444" lon="-4.23492">
        <ele>112.13098144531</ele>
        <time>2015-11-26T13:47:11Z</time>
      </trkpt>
      <trkpt lat="48.08439" lon="-4.23487">
        <ele>112.61157226562</ele>
        <time>2015-11-26T13:47:17Z</time>
      </trkpt>
      <trkpt lat="48.08437" lon="-4.23485">
        <ele>112.61157226562</ele>
        <time>2015-11-26T13:47:19Z</time>
      </trkpt>
      <trkpt lat="48.08428" lon="-4.23479">
        <ele>113.09228515625</ele>
        <time>2015-11-26T13:47:27Z</time>
      </trkpt>
      <trkpt lat="48.08421" lon="-4.23476">
        <ele>113.09228515625</ele>
        <time>2015-11-26T13:47:33Z</time>
      </trkpt>
      <trkpt lat="48.08419" lon="-4.23475">
        <ele>112.61157226562</ele>
        <time>2015-11-26T13:47:35Z</time>
      </trkpt>
      <trkpt lat="48.08411" lon="-4.23473">
        <ele>110.68884277344</ele>
        <time>2015-11-26T13:47:43Z</time>
      </trkpt>
      <trkpt lat="48.0841" lon="-4.23472">
        <ele>109.72766113281</ele>
        <time>2015-11-26T13:47:44Z</time>
      </trkpt>
      <trkpt lat="48.08401" lon="-4.23468">
        <ele>108.28564453125</ele>
        <time>2015-11-26T13:47:52Z</time>
      </trkpt>
      <trkpt lat="48.08393" lon="-4.23463">
        <ele>107.80505371094</ele>
        <time>2015-11-26T13:47:59Z</time>
      </trkpt>
      <trkpt lat="48.08386" lon="-4.23458">
        <ele>109.24694824219</ele>
        <time>2015-11-26T13:48:04Z</time>
      </trkpt>
      <trkpt lat="48.08379" lon="-4.23453">
        <ele>108.76623535156</ele>
        <time>2015-11-26T13:48:10Z</time>
      </trkpt>
      <trkpt lat="48.08372" lon="-4.23449">
        <ele>107.80505371094</ele>
        <time>2015-11-26T13:48:16Z</time>
      </trkpt>
      <trkpt lat="48.08369" lon="-4.23447">
        <ele>108.28564453125</ele>
        <time>2015-11-26T13:48:19Z</time>
      </trkpt>
      <trkpt lat="48.08361" lon="-4.2344">
        <ele>109.24694824219</ele>
        <time>2015-11-26T13:48:26Z</time>
      </trkpt>
      <trkpt lat="48.08358" lon="-4.23437">
        <ele>108.76623535156</ele>
        <time>2015-11-26T13:48:29Z</time>
      </trkpt>
      <trkpt lat="48.08355" lon="-4.23435">
        <ele>108.76623535156</ele>
        <time>2015-11-26T13:48:34Z</time>
      </trkpt>
      <trkpt lat="48.08351" lon="-4.23434">
        <ele>108.76623535156</ele>
        <time>2015-11-26T13:48:39Z</time>
      </trkpt>
      <trkpt lat="48.08347" lon="-4.23429">
        <ele>109.24694824219</ele>
        <time>2015-11-26T13:48:44Z</time>
      </trkpt>
      <trkpt lat="48.08343" lon="-4.23426">
        <ele>109.24694824219</ele>
        <time>2015-11-26T13:48:49Z</time>
      </trkpt>
      <trkpt lat="48.08342" lon="-4.23423">
        <ele>109.24694824219</ele>
        <time>2015-11-26T13:48:51Z</time>
      </trkpt>
      <trkpt lat="48.08332" lon="-4.23417">
        <ele>110.20825195312</ele>
        <time>2015-11-26T13:48:57Z</time>
      </trkpt>
      <trkpt lat="48.08331" lon="-4.23416">
        <ele>110.20825195312</ele>
        <time>2015-11-26T13:48:58Z</time>
      </trkpt>
      <trkpt lat="48.08326" lon="-4.2341">
        <ele>110.68884277344</ele>
        <time>2015-11-26T13:49:04Z</time>
      </trkpt>
      <trkpt lat="48.08319" lon="-4.23405">
        <ele>110.68884277344</ele>
        <time>2015-11-26T13:49:11Z</time>
      </trkpt>
      <trkpt lat="48.08312" lon="-4.234">
        <ele>109.72766113281</ele>
        <time>2015-11-26T13:49:17Z</time>
      </trkpt>
      <trkpt lat="48.08304" lon="-4.23394">
        <ele>108.76623535156</ele>
        <time>2015-11-26T13:49:24Z</time>
      </trkpt>
      <trkpt lat="48.08295" lon="-4.23389">
        <ele>109.24694824219</ele>
        <time>2015-11-26T13:49:32Z</time>
      </trkpt>
      <trkpt lat="48.08294" lon="-4.23389">
        <ele>109.24694824219</ele>
        <time>2015-11-26T13:49:33Z</time>
      </trkpt>
      <trkpt lat="48.08291" lon="-4.23388">
        <ele>109.24694824219</ele>
        <time>2015-11-26T13:49:35Z</time>
      </trkpt>
      <trkpt lat="48.08288" lon="-4.23388">
        <ele>109.72766113281</ele>
        <time>2015-11-26T13:49:38Z</time>
      </trkpt>
      <trkpt lat="48.08286" lon="-4.23386">
        <ele>108.76623535156</ele>
        <time>2015-11-26T13:49:41Z</time>
      </trkpt>
      <trkpt lat="48.0828" lon="-4.23383">
        <ele>109.24694824219</ele>
        <time>2015-11-26T13:49:47Z</time>
      </trkpt>
      <trkpt lat="48.08274" lon="-4.23381">
        <ele>105.88244628906</ele>
        <time>2015-11-26T13:49:53Z</time>
      </trkpt>
      <trkpt lat="48.08271" lon="-4.2338">
        <ele>104.4404296875</ele>
        <time>2015-11-26T13:49:56Z</time>
      </trkpt>
      <trkpt lat="48.08264" lon="-4.2338">
        <ele>103.47900390625</ele>
        <time>2015-11-26T13:50:02Z</time>
      </trkpt>
      <trkpt lat="48.08261" lon="-4.2338">
        <ele>103.95971679688</ele>
        <time>2015-11-26T13:50:04Z</time>
      </trkpt>
      <trkpt lat="48.08254" lon="-4.23379">
        <ele>103.95971679688</ele>
        <time>2015-11-26T13:50:10Z</time>
      </trkpt>
      <trkpt lat="48.08246" lon="-4.23378">
        <ele>103.95971679688</ele>
        <time>2015-11-26T13:50:16Z</time>
      </trkpt>
      <trkpt lat="48.0824" lon="-4.23376">
        <ele>102.51770019531</ele>
        <time>2015-11-26T13:50:20Z</time>
      </trkpt>
      <trkpt lat="48.08235" lon="-4.23376">
        <ele>102.51770019531</ele>
        <time>2015-11-26T13:50:24Z</time>
      </trkpt>
      <trkpt lat="48.08226" lon="-4.23376">
        <ele>102.51770019531</ele>
        <time>2015-11-26T13:50:31Z</time>
      </trkpt>
      <trkpt lat="48.08224" lon="-4.23375">
        <ele>102.51770019531</ele>
        <time>2015-11-26T13:50:32Z</time>
      </trkpt>
      <trkpt lat="48.08223" lon="-4.23375">
        <ele>102.51770019531</ele>
        <time>2015-11-26T13:50:34Z</time>
      </trkpt>
      <trkpt lat="48.08219" lon="-4.23375">
        <ele>102.037109375</ele>
        <time>2015-11-26T13:50:37Z</time>
      </trkpt>
      <trkpt lat="48.08214" lon="-4.23377">
        <ele>99.6337890625</ele>
        <time>2015-11-26T13:50:41Z</time>
      </trkpt>
      <trkpt lat="48.08211" lon="-4.23376">
        <ele>99.153076171875</ele>
        <time>2015-11-26T13:50:44Z</time>
      </trkpt>
      <trkpt lat="48.08202" lon="-4.23376">
        <ele>96.749877929688</ele>
        <time>2015-11-26T13:50:51Z</time>
      </trkpt>
      <trkpt lat="48.08192" lon="-4.2338">
        <ele>94.346557617188</ele>
        <time>2015-11-26T13:51:00Z</time>
      </trkpt>
      <trkpt lat="48.08182" lon="-4.23379">
        <ele>92.904541015625</ele>
        <time>2015-11-26T13:51:08Z</time>
      </trkpt>
      <trkpt lat="48.08176" lon="-4.23383">
        <ele>93.385131835938</ele>
        <time>2015-11-26T13:51:13Z</time>
      </trkpt>
      <trkpt lat="48.08174" lon="-4.23384">
        <ele>93.385131835938</ele>
        <time>2015-11-26T13:51:15Z</time>
      </trkpt>
      <trkpt lat="48.08165" lon="-4.2339">
        <ele>94.8271484375</ele>
        <time>2015-11-26T13:51:22Z</time>
      </trkpt>
      <trkpt lat="48.08161" lon="-4.23393">
        <ele>93.865844726562</ele>
        <time>2015-11-26T13:51:27Z</time>
      </trkpt>
      <trkpt lat="48.08156" lon="-4.23395">
        <ele>92.904541015625</ele>
        <time>2015-11-26T13:51:31Z</time>
      </trkpt>
      <trkpt lat="48.08155" lon="-4.23397">
        <ele>91.462524414062</ele>
        <time>2015-11-26T13:51:33Z</time>
      </trkpt>
      <trkpt lat="48.08146" lon="-4.23403">
        <ele>89.539916992188</ele>
        <time>2015-11-26T13:51:40Z</time>
      </trkpt>
      <trkpt lat="48.08144" lon="-4.23411">
        <ele>88.098022460938</ele>
        <time>2015-11-26T13:51:45Z</time>
      </trkpt>
      <trkpt lat="48.08149" lon="-4.23422">
        <ele>86.656005859375</ele>
        <time>2015-11-26T13:51:52Z</time>
      </trkpt>
      <trkpt lat="48.08152" lon="-4.23425">
        <ele>86.17529296875</ele>
        <time>2015-11-26T13:51:55Z</time>
      </trkpt>
      <trkpt lat="48.08157" lon="-4.2343">
        <ele>84.252685546875</ele>
        <time>2015-11-26T13:52:00Z</time>
      </trkpt>
      <trkpt lat="48.08162" lon="-4.23433">
        <ele>82.330078125</ele>
        <time>2015-11-26T13:52:04Z</time>
      </trkpt>
      <trkpt lat="48.08166" lon="-4.23439">
        <ele>81.368774414062</ele>
        <time>2015-11-26T13:52:09Z</time>
      </trkpt>
      <trkpt lat="48.08169" lon="-4.23446">
        <ele>82.810791015625</ele>
        <time>2015-11-26T13:52:14Z</time>
      </trkpt>
      <trkpt lat="48.08174" lon="-4.23459">
        <ele>83.291381835938</ele>
        <time>2015-11-26T13:52:23Z</time>
      </trkpt>
      <trkpt lat="48.08175" lon="-4.2346">
        <ele>83.291381835938</ele>
        <time>2015-11-26T13:52:24Z</time>
      </trkpt>
      <trkpt lat="48.08177" lon="-4.23464">
        <ele>85.213989257812</ele>
        <time>2015-11-26T13:52:29Z</time>
      </trkpt>
      <trkpt lat="48.08178" lon="-4.23465">
        <ele>85.694580078125</ele>
        <time>2015-11-26T13:52:31Z</time>
      </trkpt>
      <trkpt lat="48.08181" lon="-4.23468">
        <ele>86.17529296875</ele>
        <time>2015-11-26T13:52:33Z</time>
      </trkpt>
      <trkpt lat="48.08187" lon="-4.23478">
        <ele>88.578735351562</ele>
        <time>2015-11-26T13:52:41Z</time>
      </trkpt>
      <trkpt lat="48.08189" lon="-4.23482">
        <ele>89.539916992188</ele>
        <time>2015-11-26T13:52:44Z</time>
      </trkpt>
      <trkpt lat="48.08192" lon="-4.23487">
        <ele>90.020629882812</ele>
        <time>2015-11-26T13:52:47Z</time>
      </trkpt>
      <trkpt lat="48.08197" lon="-4.23497">
        <ele>91.943237304688</ele>
        <time>2015-11-26T13:52:54Z</time>
      </trkpt>
      <trkpt lat="48.08202" lon="-4.23501">
        <ele>92.423950195312</ele>
        <time>2015-11-26T13:53:04Z</time>
      </trkpt>
      <trkpt lat="48.08207" lon="-4.2351">
        <ele>91.943237304688</ele>
        <time>2015-11-26T13:53:10Z</time>
      </trkpt>
      <trkpt lat="48.08207" lon="-4.23512">
        <ele>91.943237304688</ele>
        <time>2015-11-26T13:53:11Z</time>
      </trkpt>
      <trkpt lat="48.0821" lon="-4.23515">
        <ele>90.501342773438</ele>
        <time>2015-11-26T13:53:14Z</time>
      </trkpt>
      <trkpt lat="48.08213" lon="-4.23522">
        <ele>90.501342773438</ele>
        <time>2015-11-26T13:53:18Z</time>
      </trkpt>
      <trkpt lat="48.08215" lon="-4.23526">
        <ele>88.578735351562</ele>
        <time>2015-11-26T13:53:21Z</time>
      </trkpt>
      <trkpt lat="48.08219" lon="-4.23538">
        <ele>89.539916992188</ele>
        <time>2015-11-26T13:53:28Z</time>
      </trkpt>
      <trkpt lat="48.08221" lon="-4.23545">
        <ele>91.462524414062</ele>
        <time>2015-11-26T13:53:32Z</time>
      </trkpt>
      <trkpt lat="48.08224" lon="-4.23549">
        <ele>92.423950195312</ele>
        <time>2015-11-26T13:53:38Z</time>
      </trkpt>
      <trkpt lat="48.08226" lon="-4.23555">
        <ele>92.423950195312</ele>
        <time>2015-11-26T13:53:42Z</time>
      </trkpt>
      <trkpt lat="48.08226" lon="-4.23557">
        <ele>92.904541015625</ele>
        <time>2015-11-26T13:53:43Z</time>
      </trkpt>
      <trkpt lat="48.08232" lon="-4.23568">
        <ele>90.501342773438</ele>
        <time>2015-11-26T13:53:50Z</time>
      </trkpt>
      <trkpt lat="48.08235" lon="-4.23575">
        <ele>92.423950195312</ele>
        <time>2015-11-26T13:53:55Z</time>
      </trkpt>
      <trkpt lat="48.08235" lon="-4.23576">
        <ele>93.385131835938</ele>
        <time>2015-11-26T13:53:56Z</time>
      </trkpt>
      <trkpt lat="48.08235" lon="-4.23586">
        <ele>97.23046875</ele>
        <time>2015-11-26T13:54:02Z</time>
      </trkpt>
      <trkpt lat="48.08236" lon="-4.2359">
        <ele>96.269287109375</ele>
        <time>2015-11-26T13:54:06Z</time>
      </trkpt>
      <trkpt lat="48.08233" lon="-4.236">
        <ele>92.904541015625</ele>
        <time>2015-11-26T13:54:14Z</time>
      </trkpt>
      <trkpt lat="48.0823" lon="-4.23603">
        <ele>91.943237304688</ele>
        <time>2015-11-26T13:54:17Z</time>
      </trkpt>
      <trkpt lat="48.08228" lon="-4.23604">
        <ele>91.462524414062</ele>
        <time>2015-11-26T13:54:19Z</time>
      </trkpt>
      <trkpt lat="48.08224" lon="-4.23609">
        <ele>91.943237304688</ele>
        <time>2015-11-26T13:54:25Z</time>
      </trkpt>
      <trkpt lat="48.08216" lon="-4.23614">
        <ele>86.656005859375</ele>
        <time>2015-11-26T13:54:33Z</time>
      </trkpt>
      <trkpt lat="48.08213" lon="-4.23614">
        <ele>87.136596679688</ele>
        <time>2015-11-26T13:54:35Z</time>
      </trkpt>
      <trkpt lat="48.08204" lon="-4.23621">
        <ele>82.810791015625</ele>
        <time>2015-11-26T13:54:44Z</time>
      </trkpt>
      <trkpt lat="48.08201" lon="-4.23622">
        <ele>80.88818359375</ele>
        <time>2015-11-26T13:54:47Z</time>
      </trkpt>
      <trkpt lat="48.082" lon="-4.23624">
        <ele>80.88818359375</ele>
        <time>2015-11-26T13:54:49Z</time>
      </trkpt>
      <trkpt lat="48.08197" lon="-4.23625">
        <ele>80.88818359375</ele>
        <time>2015-11-26T13:54:51Z</time>
      </trkpt>
      <trkpt lat="48.08193" lon="-4.23625">
        <ele>79.446044921875</ele>
        <time>2015-11-26T13:54:55Z</time>
      </trkpt>
      <trkpt lat="48.08186" lon="-4.23624">
        <ele>78.004028320312</ele>
        <time>2015-11-26T13:55:01Z</time>
      </trkpt>
      <trkpt lat="48.08184" lon="-4.23626">
        <ele>77.042846679688</ele>
        <time>2015-11-26T13:55:04Z</time>
      </trkpt>
      <trkpt lat="48.08177" lon="-4.23631">
        <ele>76.081420898438</ele>
        <time>2015-11-26T13:55:12Z</time>
      </trkpt>
      <trkpt lat="48.08167" lon="-4.2363">
        <ele>79.446044921875</ele>
        <time>2015-11-26T13:55:18Z</time>
      </trkpt>
      <trkpt lat="48.08165" lon="-4.2363">
        <ele>79.926635742188</ele>
        <time>2015-11-26T13:55:19Z</time>
      </trkpt>
      <trkpt lat="48.08156" lon="-4.23631">
        <ele>81.849365234375</ele>
        <time>2015-11-26T13:55:26Z</time>
      </trkpt>
      <trkpt lat="48.08146" lon="-4.23634">
        <ele>83.77197265625</ele>
        <time>2015-11-26T13:55:33Z</time>
      </trkpt>
      <trkpt lat="48.08144" lon="-4.23634">
        <ele>83.291381835938</ele>
        <time>2015-11-26T13:55:35Z</time>
      </trkpt>
      <trkpt lat="48.08141" lon="-4.2364">
        <ele>80.88818359375</ele>
        <time>2015-11-26T13:55:41Z</time>
      </trkpt>
      <trkpt lat="48.08138" lon="-4.23642">
        <ele>78.004028320312</ele>
        <time>2015-11-26T13:55:47Z</time>
      </trkpt>
      <trkpt lat="48.08134" lon="-4.23648">
        <ele>75.120239257812</ele>
        <time>2015-11-26T13:55:52Z</time>
      </trkpt>
      <trkpt lat="48.08129" lon="-4.23653">
        <ele>74.158813476562</ele>
        <time>2015-11-26T13:55:56Z</time>
      </trkpt>
      <trkpt lat="48.08119" lon="-4.23658">
        <ele>73.197631835938</ele>
        <time>2015-11-26T13:56:04Z</time>
      </trkpt>
      <trkpt lat="48.08113" lon="-4.2366">
        <ele>74.639526367188</ele>
        <time>2015-11-26T13:56:11Z</time>
      </trkpt>
      <trkpt lat="48.08106" lon="-4.23661">
        <ele>79.446044921875</ele>
        <time>2015-11-26T13:56:18Z</time>
      </trkpt>
      <trkpt lat="48.081" lon="-4.23662">
        <ele>81.849365234375</ele>
        <time>2015-11-26T13:56:24Z</time>
      </trkpt>
      <trkpt lat="48.08095" lon="-4.23662">
        <ele>85.213989257812</ele>
        <time>2015-11-26T13:56:29Z</time>
      </trkpt>
      <trkpt lat="48.08092" lon="-4.23663">
        <ele>87.6171875</ele>
        <time>2015-11-26T13:56:33Z</time>
      </trkpt>
      <trkpt lat="48.08087" lon="-4.23664">
        <ele>88.578735351562</ele>
        <time>2015-11-26T13:56:38Z</time>
      </trkpt>
      <trkpt lat="48.0808" lon="-4.23662">
        <ele>89.539916992188</ele>
        <time>2015-11-26T13:56:44Z</time>
      </trkpt>
      <trkpt lat="48.08078" lon="-4.23662">
        <ele>90.020629882812</ele>
        <time>2015-11-26T13:56:45Z</time>
      </trkpt>
      <trkpt lat="48.08075" lon="-4.23662">
        <ele>90.020629882812</ele>
        <time>2015-11-26T13:56:48Z</time>
      </trkpt>
      <trkpt lat="48.08067" lon="-4.23662">
        <ele>87.6171875</ele>
        <time>2015-11-26T13:56:55Z</time>
      </trkpt>
      <trkpt lat="48.08064" lon="-4.23663">
        <ele>86.656005859375</ele>
        <time>2015-11-26T13:56:58Z</time>
      </trkpt>
      <trkpt lat="48.0806" lon="-4.23663">
        <ele>85.694580078125</ele>
        <time>2015-11-26T13:57:01Z</time>
      </trkpt>
      <trkpt lat="48.08054" lon="-4.23663">
        <ele>86.17529296875</ele>
        <time>2015-11-26T13:57:05Z</time>
      </trkpt>
      <trkpt lat="48.08049" lon="-4.23664">
        <ele>86.17529296875</ele>
        <time>2015-11-26T13:57:10Z</time>
      </trkpt>
      <trkpt lat="48.08042" lon="-4.23664">
        <ele>85.694580078125</ele>
        <time>2015-11-26T13:57:16Z</time>
      </trkpt>
      <trkpt lat="48.08036" lon="-4.23664">
        <ele>84.7333984375</ele>
        <time>2015-11-26T13:57:21Z</time>
      </trkpt>
      <trkpt lat="48.08027" lon="-4.23663">
        <ele>84.252685546875</ele>
        <time>2015-11-26T13:57:28Z</time>
      </trkpt>
      <trkpt lat="48.08021" lon="-4.23666">
        <ele>84.252685546875</ele>
        <time>2015-11-26T13:57:34Z</time>
      </trkpt>
      <trkpt lat="48.08011" lon="-4.23667">
        <ele>84.7333984375</ele>
        <time>2015-11-26T13:57:41Z</time>
      </trkpt>
      <trkpt lat="48.08005" lon="-4.23671">
        <ele>83.291381835938</ele>
        <time>2015-11-26T13:57:48Z</time>
      </trkpt>
      <trkpt lat="48.08004" lon="-4.23674">
        <ele>81.849365234375</ele>
        <time>2015-11-26T13:57:50Z</time>
      </trkpt>
      <trkpt lat="48.08" lon="-4.23675">
        <ele>80.88818359375</ele>
        <time>2015-11-26T13:57:54Z</time>
      </trkpt>
      <trkpt lat="48.07996" lon="-4.23678">
        <ele>79.926635742188</ele>
        <time>2015-11-26T13:57:58Z</time>
      </trkpt>
      <trkpt lat="48.07993" lon="-4.23681">
        <ele>78.965454101562</ele>
        <time>2015-11-26T13:58:01Z</time>
      </trkpt>
      <trkpt lat="48.07989" lon="-4.23687">
        <ele>76.562133789062</ele>
        <time>2015-11-26T13:58:07Z</time>
      </trkpt>
      <trkpt lat="48.07987" lon="-4.23691">
        <ele>76.562133789062</ele>
        <time>2015-11-26T13:58:09Z</time>
      </trkpt>
      <trkpt lat="48.07983" lon="-4.23696">
        <ele>73.67822265625</ele>
        <time>2015-11-26T13:58:17Z</time>
      </trkpt>
      <trkpt lat="48.0798" lon="-4.23704">
        <ele>72.716918945312</ele>
        <time>2015-11-26T13:58:22Z</time>
      </trkpt>
      <trkpt lat="48.07979" lon="-4.2371">
        <ele>72.716918945312</ele>
        <time>2015-11-26T13:58:27Z</time>
      </trkpt>
      <trkpt lat="48.07978" lon="-4.23713">
        <ele>73.67822265625</ele>
        <time>2015-11-26T13:58:29Z</time>
      </trkpt>
      <trkpt lat="48.07981" lon="-4.23725">
        <ele>73.67822265625</ele>
        <time>2015-11-26T13:58:35Z</time>
      </trkpt>
      <trkpt lat="48.07984" lon="-4.23732">
        <ele>74.639526367188</ele>
        <time>2015-11-26T13:58:42Z</time>
      </trkpt>
      <trkpt lat="48.07989" lon="-4.23743">
        <ele>73.67822265625</ele>
        <time>2015-11-26T13:58:50Z</time>
      </trkpt>
      <trkpt lat="48.07993" lon="-4.23751">
        <ele>74.639526367188</ele>
        <time>2015-11-26T13:58:57Z</time>
      </trkpt>
      <trkpt lat="48.07996" lon="-4.23761">
        <ele>75.600830078125</ele>
        <time>2015-11-26T13:59:03Z</time>
      </trkpt>
      <trkpt lat="48.08" lon="-4.23768">
        <ele>78.004028320312</ele>
        <time>2015-11-26T13:59:08Z</time>
      </trkpt>
      <trkpt lat="48.08003" lon="-4.23775">
        <ele>80.407470703125</ele>
        <time>2015-11-26T13:59:13Z</time>
      </trkpt>
      <trkpt lat="48.08007" lon="-4.2378">
        <ele>81.368774414062</ele>
        <time>2015-11-26T13:59:18Z</time>
      </trkpt>
      <trkpt lat="48.08014" lon="-4.23784">
        <ele>84.252685546875</ele>
        <time>2015-11-26T13:59:25Z</time>
      </trkpt>
      <trkpt lat="48.08019" lon="-4.23789">
        <ele>85.694580078125</ele>
        <time>2015-11-26T13:59:31Z</time>
      </trkpt>
      <trkpt lat="48.08024" lon="-4.2379">
        <ele>86.17529296875</ele>
        <time>2015-11-26T13:59:36Z</time>
      </trkpt>
      <trkpt lat="48.08029" lon="-4.23789">
        <ele>88.098022460938</ele>
        <time>2015-11-26T13:59:40Z</time>
      </trkpt>
      <trkpt lat="48.08032" lon="-4.2379">
        <ele>87.6171875</ele>
        <time>2015-11-26T13:59:44Z</time>
      </trkpt>
      <trkpt lat="48.0804" lon="-4.23787">
        <ele>88.098022460938</ele>
        <time>2015-11-26T13:59:52Z</time>
      </trkpt>
      <trkpt lat="48.08045" lon="-4.23785">
        <ele>89.539916992188</ele>
        <time>2015-11-26T13:59:58Z</time>
      </trkpt>
      <trkpt lat="48.0805" lon="-4.23784">
        <ele>90.501342773438</ele>
        <time>2015-11-26T14:00:03Z</time>
      </trkpt>
      <trkpt lat="48.08056" lon="-4.23781">
        <ele>90.501342773438</ele>
        <time>2015-11-26T14:00:09Z</time>
      </trkpt>
      <trkpt lat="48.08061" lon="-4.23777">
        <ele>89.539916992188</ele>
        <time>2015-11-26T14:00:14Z</time>
      </trkpt>
      <trkpt lat="48.08064" lon="-4.23774">
        <ele>88.578735351562</ele>
        <time>2015-11-26T14:00:18Z</time>
      </trkpt>
      <trkpt lat="48.08067" lon="-4.23773">
        <ele>89.539916992188</ele>
        <time>2015-11-26T14:00:20Z</time>
      </trkpt>
      <trkpt lat="48.08071" lon="-4.23771">
        <ele>91.462524414062</ele>
        <time>2015-11-26T14:00:28Z</time>
      </trkpt>
      <trkpt lat="48.08072" lon="-4.23763">
        <ele>89.059326171875</ele>
        <time>2015-11-26T14:00:35Z</time>
      </trkpt>
      <trkpt lat="48.08073" lon="-4.23756">
        <ele>88.098022460938</ele>
        <time>2015-11-26T14:00:44Z</time>
      </trkpt>
      <trkpt lat="48.08074" lon="-4.23754">
        <ele>87.136596679688</ele>
        <time>2015-11-26T14:00:59Z</time>
      </trkpt>
      <trkpt lat="48.08078" lon="-4.23759">
        <ele>89.059326171875</ele>
        <time>2015-11-26T14:01:15Z</time>
      </trkpt>
      <trkpt lat="48.08079" lon="-4.23766">
        <ele>88.578735351562</ele>
        <time>2015-11-26T14:01:21Z</time>
      </trkpt>
      <trkpt lat="48.08081" lon="-4.23771">
        <ele>91.943237304688</ele>
        <time>2015-11-26T14:01:28Z</time>
      </trkpt>
      <trkpt lat="48.08087" lon="-4.23772">
        <ele>95.788452148438</ele>
        <time>2015-11-26T14:01:34Z</time>
      </trkpt>
      <trkpt lat="48.08091" lon="-4.23774">
        <ele>96.269287109375</ele>
        <time>2015-11-26T14:01:39Z</time>
      </trkpt>
      <trkpt lat="48.08095" lon="-4.23777">
        <ele>97.23046875</ele>
        <time>2015-11-26T14:01:46Z</time>
      </trkpt>
      <trkpt lat="48.081" lon="-4.23781">
        <ele>95.307739257812</ele>
        <time>2015-11-26T14:01:53Z</time>
      </trkpt>
      <trkpt lat="48.08106" lon="-4.23787">
        <ele>95.307739257812</ele>
        <time>2015-11-26T14:02:00Z</time>
      </trkpt>
      <trkpt lat="48.08111" lon="-4.23795">
        <ele>95.788452148438</ele>
        <time>2015-11-26T14:02:05Z</time>
      </trkpt>
      <trkpt lat="48.08112" lon="-4.23796">
        <ele>95.307739257812</ele>
        <time>2015-11-26T14:02:06Z</time>
      </trkpt>
      <trkpt lat="48.08117" lon="-4.23802">
        <ele>96.269287109375</ele>
        <time>2015-11-26T14:02:12Z</time>
      </trkpt>
      <trkpt lat="48.08119" lon="-4.23805">
        <ele>96.269287109375</ele>
        <time>2015-11-26T14:02:15Z</time>
      </trkpt>
      <trkpt lat="48.08124" lon="-4.2381">
        <ele>94.8271484375</ele>
        <time>2015-11-26T14:02:22Z</time>
      </trkpt>
      <trkpt lat="48.08129" lon="-4.23815">
        <ele>91.943237304688</ele>
        <time>2015-11-26T14:02:29Z</time>
      </trkpt>
      <trkpt lat="48.08135" lon="-4.23817">
        <ele>91.943237304688</ele>
        <time>2015-11-26T14:02:35Z</time>
      </trkpt>
      <trkpt lat="48.0814" lon="-4.23825">
        <ele>91.943237304688</ele>
        <time>2015-11-26T14:02:42Z</time>
      </trkpt>
      <trkpt lat="48.08144" lon="-4.23829">
        <ele>94.8271484375</ele>
        <time>2015-11-26T14:02:47Z</time>
      </trkpt>
      <trkpt lat="48.08146" lon="-4.23832">
        <ele>96.749877929688</ele>
        <time>2015-11-26T14:02:51Z</time>
      </trkpt>
      <trkpt lat="48.08153" lon="-4.23837">
        <ele>96.749877929688</ele>
        <time>2015-11-26T14:02:59Z</time>
      </trkpt>
      <trkpt lat="48.08157" lon="-4.23842">
        <ele>97.23046875</ele>
        <time>2015-11-26T14:03:05Z</time>
      </trkpt>
      <trkpt lat="48.08161" lon="-4.23846">
        <ele>98.19189453125</ele>
        <time>2015-11-26T14:03:10Z</time>
      </trkpt>
      <trkpt lat="48.08164" lon="-4.23846">
        <ele>99.6337890625</ele>
        <time>2015-11-26T14:03:16Z</time>
      </trkpt>
      <trkpt lat="48.08167" lon="-4.23848">
        <ele>105.40173339844</ele>
        <time>2015-11-26T14:03:23Z</time>
      </trkpt>
      <trkpt lat="48.08171" lon="-4.23857">
        <ele>105.40173339844</ele>
        <time>2015-11-26T14:03:30Z</time>
      </trkpt>
      <trkpt lat="48.08173" lon="-4.23863">
        <ele>104.92102050781</ele>
        <time>2015-11-26T14:03:35Z</time>
      </trkpt>
      <trkpt lat="48.08177" lon="-4.23872">
        <ele>102.037109375</ele>
        <time>2015-11-26T14:03:41Z</time>
      </trkpt>
      <trkpt lat="48.08181" lon="-4.23881">
        <ele>102.51770019531</ele>
        <time>2015-11-26T14:03:48Z</time>
      </trkpt>
      <trkpt lat="48.08183" lon="-4.23884">
        <ele>102.037109375</ele>
        <time>2015-11-26T14:03:50Z</time>
      </trkpt>
      <trkpt lat="48.08188" lon="-4.23896">
        <ele>101.07568359375</ele>
        <time>2015-11-26T14:03:58Z</time>
      </trkpt>
      <trkpt lat="48.08191" lon="-4.23905">
        <ele>100.59509277344</ele>
        <time>2015-11-26T14:04:03Z</time>
      </trkpt>
      <trkpt lat="48.08194" lon="-4.23913">
        <ele>102.99829101562</ele>
        <time>2015-11-26T14:04:08Z</time>
      </trkpt>
      <trkpt lat="48.08198" lon="-4.2392">
        <ele>103.47900390625</ele>
        <time>2015-11-26T14:04:14Z</time>
      </trkpt>
      <trkpt lat="48.08201" lon="-4.23924">
        <ele>101.55639648438</ele>
        <time>2015-11-26T14:04:18Z</time>
      </trkpt>
      <trkpt lat="48.08203" lon="-4.23927">
        <ele>101.55639648438</ele>
        <time>2015-11-26T14:04:20Z</time>
      </trkpt>
      <trkpt lat="48.08205" lon="-4.23932">
        <ele>102.51770019531</ele>
        <time>2015-11-26T14:04:24Z</time>
      </trkpt>
      <trkpt lat="48.08207" lon="-4.23939">
        <ele>100.59509277344</ele>
        <time>2015-11-26T14:04:29Z</time>
      </trkpt>
      <trkpt lat="48.08211" lon="-4.23951">
        <ele>102.51770019531</ele>
        <time>2015-11-26T14:04:37Z</time>
      </trkpt>
      <trkpt lat="48.08215" lon="-4.23962">
        <ele>104.4404296875</ele>
        <time>2015-11-26T14:04:44Z</time>
      </trkpt>
      <trkpt lat="48.08216" lon="-4.23965">
        <ele>104.92102050781</ele>
        <time>2015-11-26T14:04:46Z</time>
      </trkpt>
      <trkpt lat="48.0822" lon="-4.23973">
        <ele>106.84362792969</ele>
        <time>2015-11-26T14:04:53Z</time>
      </trkpt>
      <trkpt lat="48.08222" lon="-4.23976">
        <ele>105.88244628906</ele>
        <time>2015-11-26T14:04:55Z</time>
      </trkpt>
      <trkpt lat="48.08224" lon="-4.23982">
        <ele>106.36303710938</ele>
        <time>2015-11-26T14:04:59Z</time>
      </trkpt>
      <trkpt lat="48.08226" lon="-4.23988">
        <ele>105.88244628906</ele>
        <time>2015-11-26T14:05:03Z</time>
      </trkpt>
      <trkpt lat="48.08229" lon="-4.23995">
        <ele>105.88244628906</ele>
        <time>2015-11-26T14:05:07Z</time>
      </trkpt>
      <trkpt lat="48.08232" lon="-4.24008">
        <ele>106.84362792969</ele>
        <time>2015-11-26T14:05:14Z</time>
      </trkpt>
      <trkpt lat="48.08233" lon="-4.24011">
        <ele>106.36303710938</ele>
        <time>2015-11-26T14:05:16Z</time>
      </trkpt>
      <trkpt lat="48.08235" lon="-4.24016">
        <ele>105.88244628906</ele>
        <time>2015-11-26T14:05:19Z</time>
      </trkpt>
      <trkpt lat="48.08237" lon="-4.24028">
        <ele>103.47900390625</ele>
        <time>2015-11-26T14:05:26Z</time>
      </trkpt>
      <trkpt lat="48.08238" lon="-4.24029">
        <ele>103.47900390625</ele>
        <time>2015-11-26T14:05:27Z</time>
      </trkpt>
      <trkpt lat="48.08238" lon="-4.24031">
        <ele>103.95971679688</ele>
        <time>2015-11-26T14:05:29Z</time>
      </trkpt>
      <trkpt lat="48.08239" lon="-4.24038">
        <ele>103.47900390625</ele>
        <time>2015-11-26T14:05:33Z</time>
      </trkpt>
      <trkpt lat="48.0824" lon="-4.24041">
        <ele>102.51770019531</ele>
        <time>2015-11-26T14:05:35Z</time>
      </trkpt>
      <trkpt lat="48.08239" lon="-4.24049">
        <ele>102.51770019531</ele>
        <time>2015-11-26T14:05:40Z</time>
      </trkpt>
      <trkpt lat="48.08237" lon="-4.24051">
        <ele>102.99829101562</ele>
        <time>2015-11-26T14:05:42Z</time>
      </trkpt>
      <trkpt lat="48.08236" lon="-4.24062">
        <ele>100.59509277344</ele>
        <time>2015-11-26T14:05:48Z</time>
      </trkpt>
      <trkpt lat="48.08235" lon="-4.24072">
        <ele>99.6337890625</ele>
        <time>2015-11-26T14:05:53Z</time>
      </trkpt>
      <trkpt lat="48.08233" lon="-4.24079">
        <ele>98.672485351562</ele>
        <time>2015-11-26T14:05:58Z</time>
      </trkpt>
      <trkpt lat="48.08228" lon="-4.24088">
        <ele>100.11450195312</ele>
        <time>2015-11-26T14:06:05Z</time>
      </trkpt>
      <trkpt lat="48.08224" lon="-4.24096">
        <ele>98.19189453125</ele>
        <time>2015-11-26T14:06:10Z</time>
      </trkpt>
      <trkpt lat="48.08219" lon="-4.24104">
        <ele>99.6337890625</ele>
        <time>2015-11-26T14:06:15Z</time>
      </trkpt>
      <trkpt lat="48.08218" lon="-4.24106">
        <ele>99.6337890625</ele>
        <time>2015-11-26T14:06:16Z</time>
      </trkpt>
      <trkpt lat="48.08214" lon="-4.24114">
        <ele>99.6337890625</ele>
        <time>2015-11-26T14:06:21Z</time>
      </trkpt>
      <trkpt lat="48.08211" lon="-4.24116">
        <ele>100.59509277344</ele>
        <time>2015-11-26T14:06:23Z</time>
      </trkpt>
      <trkpt lat="48.08203" lon="-4.24122">
        <ele>101.07568359375</ele>
        <time>2015-11-26T14:06:31Z</time>
      </trkpt>
      <trkpt lat="48.08203" lon="-4.24127">
        <ele>101.55639648438</ele>
        <time>2015-11-26T14:06:38Z</time>
      </trkpt>
      <trkpt lat="48.08208" lon="-4.24138">
        <ele>103.47900390625</ele>
        <time>2015-11-26T14:06:47Z</time>
      </trkpt>
      <trkpt lat="48.08211" lon="-4.24142">
        <ele>104.4404296875</ele>
        <time>2015-11-26T14:06:52Z</time>
      </trkpt>
      <trkpt lat="48.08214" lon="-4.2415">
        <ele>105.88244628906</ele>
        <time>2015-11-26T14:07:00Z</time>
      </trkpt>
      <trkpt lat="48.08215" lon="-4.24157">
        <ele>106.84362792969</ele>
        <time>2015-11-26T14:07:04Z</time>
      </trkpt>
      <trkpt lat="48.08219" lon="-4.24163">
        <ele>107.32434082031</ele>
        <time>2015-11-26T14:07:10Z</time>
      </trkpt>
      <trkpt lat="48.0822" lon="-4.24166">
        <ele>106.84362792969</ele>
        <time>2015-11-26T14:07:12Z</time>
      </trkpt>
      <trkpt lat="48.08226" lon="-4.24174">
        <ele>107.32434082031</ele>
        <time>2015-11-26T14:07:19Z</time>
      </trkpt>
      <trkpt lat="48.0823" lon="-4.24179">
        <ele>107.80505371094</ele>
        <time>2015-11-26T14:07:24Z</time>
      </trkpt>
      <trkpt lat="48.08236" lon="-4.24189">
        <ele>108.28564453125</ele>
        <time>2015-11-26T14:07:31Z</time>
      </trkpt>
      <trkpt lat="48.0824" lon="-4.24197">
        <ele>108.76623535156</ele>
        <time>2015-11-26T14:07:38Z</time>
      </trkpt>
      <trkpt lat="48.08245" lon="-4.24204">
        <ele>110.68884277344</ele>
        <time>2015-11-26T14:07:43Z</time>
      </trkpt>
      <trkpt lat="48.0825" lon="-4.24208">
        <ele>109.72766113281</ele>
        <time>2015-11-26T14:07:48Z</time>
      </trkpt>
      <trkpt lat="48.08253" lon="-4.24215">
        <ele>109.24694824219</ele>
        <time>2015-11-26T14:07:54Z</time>
      </trkpt>
      <trkpt lat="48.08252" lon="-4.24223">
        <ele>108.76623535156</ele>
        <time>2015-11-26T14:08:00Z</time>
      </trkpt>
      <trkpt lat="48.08251" lon="-4.24226">
        <ele>108.76623535156</ele>
        <time>2015-11-26T14:08:05Z</time>
      </trkpt>
      <trkpt lat="48.08249" lon="-4.24227">
        <ele>107.32434082031</ele>
        <time>2015-11-26T14:08:14Z</time>
      </trkpt>
      <trkpt lat="48.08246" lon="-4.24224">
        <ele>108.76623535156</ele>
        <time>2015-11-26T14:08:24Z</time>
      </trkpt>
      <trkpt lat="48.08245" lon="-4.24224">
        <ele>108.28564453125</ele>
        <time>2015-11-26T14:08:27Z</time>
      </trkpt>
      <trkpt lat="48.08243" lon="-4.24235">
        <ele>105.40173339844</ele>
        <time>2015-11-26T14:08:33Z</time>
      </trkpt>
      <trkpt lat="48.08238" lon="-4.24247">
        <ele>106.84362792969</ele>
        <time>2015-11-26T14:08:40Z</time>
      </trkpt>
      <trkpt lat="48.08235" lon="-4.24256">
        <ele>105.88244628906</ele>
        <time>2015-11-26T14:08:46Z</time>
      </trkpt>
      <trkpt lat="48.08233" lon="-4.2426">
        <ele>106.84362792969</ele>
        <time>2015-11-26T14:08:49Z</time>
      </trkpt>
      <trkpt lat="48.0823" lon="-4.24268">
        <ele>106.84362792969</ele>
        <time>2015-11-26T14:08:54Z</time>
      </trkpt>
      <trkpt lat="48.0823" lon="-4.2427">
        <ele>106.84362792969</ele>
        <time>2015-11-26T14:08:55Z</time>
      </trkpt>
      <trkpt lat="48.08228" lon="-4.24279">
        <ele>106.36303710938</ele>
        <time>2015-11-26T14:09:00Z</time>
      </trkpt>
      <trkpt lat="48.08226" lon="-4.24283">
        <ele>105.88244628906</ele>
        <time>2015-11-26T14:09:03Z</time>
      </trkpt>
      <trkpt lat="48.0822" lon="-4.24292">
        <ele>107.32434082031</ele>
        <time>2015-11-26T14:09:10Z</time>
      </trkpt>
      <trkpt lat="48.08217" lon="-4.243">
        <ele>107.80505371094</ele>
        <time>2015-11-26T14:09:14Z</time>
      </trkpt>
      <trkpt lat="48.08215" lon="-4.24303">
        <ele>108.76623535156</ele>
        <time>2015-11-26T14:09:16Z</time>
      </trkpt>
      <trkpt lat="48.08208" lon="-4.24314">
        <ele>111.16955566406</ele>
        <time>2015-11-26T14:09:23Z</time>
      </trkpt>
      <trkpt lat="48.08204" lon="-4.24325">
        <ele>114.05358886719</ele>
        <time>2015-11-26T14:09:28Z</time>
      </trkpt>
      <trkpt lat="48.08201" lon="-4.24331">
        <ele>113.57299804688</ele>
        <time>2015-11-26T14:09:32Z</time>
      </trkpt>
      <trkpt lat="48.08196" lon="-4.24342">
        <ele>109.24694824219</ele>
        <time>2015-11-26T14:09:40Z</time>
      </trkpt>
      <trkpt lat="48.08196" lon="-4.24343">
        <ele>108.76623535156</ele>
        <time>2015-11-26T14:09:41Z</time>
      </trkpt>
      <trkpt lat="48.08192" lon="-4.24354">
        <ele>105.88244628906</ele>
        <time>2015-11-26T14:09:47Z</time>
      </trkpt>
      <trkpt lat="48.08187" lon="-4.24365">
        <ele>101.55639648438</ele>
        <time>2015-11-26T14:09:55Z</time>
      </trkpt>
      <trkpt lat="48.08184" lon="-4.24373">
        <ele>99.6337890625</ele>
        <time>2015-11-26T14:10:01Z</time>
      </trkpt>
      <trkpt lat="48.0818" lon="-4.2438">
        <ele>100.11450195312</ele>
        <time>2015-11-26T14:10:06Z</time>
      </trkpt>
      <trkpt lat="48.08179" lon="-4.24383">
        <ele>99.6337890625</ele>
        <time>2015-11-26T14:10:08Z</time>
      </trkpt>
      <trkpt lat="48.08174" lon="-4.24393">
        <ele>99.6337890625</ele>
        <time>2015-11-26T14:10:15Z</time>
      </trkpt>
      <trkpt lat="48.08171" lon="-4.24398">
        <ele>101.55639648438</ele>
        <time>2015-11-26T14:10:19Z</time>
      </trkpt>
      <trkpt lat="48.08166" lon="-4.24405">
        <ele>104.92102050781</ele>
        <time>2015-11-26T14:10:24Z</time>
      </trkpt>
      <trkpt lat="48.08163" lon="-4.24417">
        <ele>103.47900390625</ele>
        <time>2015-11-26T14:10:32Z</time>
      </trkpt>
      <trkpt lat="48.08161" lon="-4.24428">
        <ele>103.47900390625</ele>
        <time>2015-11-26T14:10:39Z</time>
      </trkpt>
      <trkpt lat="48.08154" lon="-4.24438">
        <ele>103.95971679688</ele>
        <time>2015-11-26T14:10:45Z</time>
      </trkpt>
      <trkpt lat="48.0815" lon="-4.24445">
        <ele>105.40173339844</ele>
        <time>2015-11-26T14:10:50Z</time>
      </trkpt>
      <trkpt lat="48.08143" lon="-4.24457">
        <ele>106.84362792969</ele>
        <time>2015-11-26T14:10:58Z</time>
      </trkpt>
      <trkpt lat="48.08139" lon="-4.24464">
        <ele>108.76623535156</ele>
        <time>2015-11-26T14:11:04Z</time>
      </trkpt>
      <trkpt lat="48.08136" lon="-4.24468">
        <ele>109.72766113281</ele>
        <time>2015-11-26T14:11:07Z</time>
      </trkpt>
      <trkpt lat="48.08136" lon="-4.24481">
        <ele>107.80505371094</ele>
        <time>2015-11-26T14:11:13Z</time>
      </trkpt>
      <trkpt lat="48.08136" lon="-4.24486">
        <ele>107.80505371094</ele>
        <time>2015-11-26T14:11:16Z</time>
      </trkpt>
      <trkpt lat="48.08139" lon="-4.24496">
        <ele>105.88244628906</ele>
        <time>2015-11-26T14:11:22Z</time>
      </trkpt>
      <trkpt lat="48.08143" lon="-4.24507">
        <ele>105.40173339844</ele>
        <time>2015-11-26T14:11:29Z</time>
      </trkpt>
      <trkpt lat="48.08143" lon="-4.24511">
        <ele>105.88244628906</ele>
        <time>2015-11-26T14:11:31Z</time>
      </trkpt>
      <trkpt lat="48.08144" lon="-4.24516">
        <ele>104.92102050781</ele>
        <time>2015-11-26T14:11:34Z</time>
      </trkpt>
      <trkpt lat="48.08148" lon="-4.24529">
        <ele>102.99829101562</ele>
        <time>2015-11-26T14:11:42Z</time>
      </trkpt>
      <trkpt lat="48.08149" lon="-4.24538">
        <ele>104.4404296875</ele>
        <time>2015-11-26T14:11:47Z</time>
      </trkpt>
      <trkpt lat="48.08152" lon="-4.24549">
        <ele>102.99829101562</ele>
        <time>2015-11-26T14:11:54Z</time>
      </trkpt>
      <trkpt lat="48.08153" lon="-4.24552">
        <ele>102.99829101562</ele>
        <time>2015-11-26T14:11:56Z</time>
      </trkpt>
      <trkpt lat="48.08155" lon="-4.24564">
        <ele>102.51770019531</ele>
        <time>2015-11-26T14:12:04Z</time>
      </trkpt>
      <trkpt lat="48.08156" lon="-4.24571">
        <ele>103.95971679688</ele>
        <time>2015-11-26T14:12:08Z</time>
      </trkpt>
      <trkpt lat="48.0816" lon="-4.24584">
        <ele>104.4404296875</ele>
        <time>2015-11-26T14:12:15Z</time>
      </trkpt>
      <trkpt lat="48.08163" lon="-4.24596">
        <ele>104.92102050781</ele>
        <time>2015-11-26T14:12:22Z</time>
      </trkpt>
      <trkpt lat="48.08165" lon="-4.24603">
        <ele>105.88244628906</ele>
        <time>2015-11-26T14:12:27Z</time>
      </trkpt>
      <trkpt lat="48.08167" lon="-4.24613">
        <ele>103.95971679688</ele>
        <time>2015-11-26T14:12:31Z</time>
      </trkpt>
      <trkpt lat="48.08169" lon="-4.24621">
        <ele>104.92102050781</ele>
        <time>2015-11-26T14:12:36Z</time>
      </trkpt>
      <trkpt lat="48.0817" lon="-4.24627">
        <ele>105.40173339844</ele>
        <time>2015-11-26T14:12:40Z</time>
      </trkpt>
      <trkpt lat="48.08172" lon="-4.24634">
        <ele>104.92102050781</ele>
        <time>2015-11-26T14:12:44Z</time>
      </trkpt>
      <trkpt lat="48.08175" lon="-4.24645">
        <ele>104.92102050781</ele>
        <time>2015-11-26T14:12:50Z</time>
      </trkpt>
      <trkpt lat="48.08177" lon="-4.24653">
        <ele>105.88244628906</ele>
        <time>2015-11-26T14:12:56Z</time>
      </trkpt>
      <trkpt lat="48.08179" lon="-4.24656">
        <ele>106.84362792969</ele>
        <time>2015-11-26T14:12:59Z</time>
      </trkpt>
      <trkpt lat="48.08183" lon="-4.24663">
        <ele>110.68884277344</ele>
        <time>2015-11-26T14:13:05Z</time>
      </trkpt>
      <trkpt lat="48.08184" lon="-4.24665">
        <ele>111.65026855469</ele>
        <time>2015-11-26T14:13:06Z</time>
      </trkpt>
      <trkpt lat="48.0819" lon="-4.2467">
        <ele>115.01489257812</ele>
        <time>2015-11-26T14:13:14Z</time>
      </trkpt>
      <trkpt lat="48.08196" lon="-4.24673">
        <ele>113.09228515625</ele>
        <time>2015-11-26T14:13:19Z</time>
      </trkpt>
      <trkpt lat="48.08202" lon="-4.2468">
        <ele>114.05358886719</ele>
        <time>2015-11-26T14:13:24Z</time>
      </trkpt>
      <trkpt lat="48.08209" lon="-4.24687">
        <ele>116.45678710938</ele>
        <time>2015-11-26T14:13:31Z</time>
      </trkpt>
      <trkpt lat="48.08213" lon="-4.2469">
        <ele>116.45678710938</ele>
        <time>2015-11-26T14:13:35Z</time>
      </trkpt>
      <trkpt lat="48.08221" lon="-4.24696">
        <ele>116.45678710938</ele>
        <time>2015-11-26T14:13:41Z</time>
      </trkpt>
      <trkpt lat="48.08226" lon="-4.247">
        <ele>115.49560546875</ele>
        <time>2015-11-26T14:13:46Z</time>
      </trkpt>
      <trkpt lat="48.08233" lon="-4.24709">
        <ele>117.89880371094</ele>
        <time>2015-11-26T14:13:53Z</time>
      </trkpt>
      <trkpt lat="48.08237" lon="-4.24715">
        <ele>116.9375</ele>
        <time>2015-11-26T14:13:57Z</time>
      </trkpt>
      <trkpt lat="48.0824" lon="-4.24717">
        <ele>117.41821289062</ele>
        <time>2015-11-26T14:13:59Z</time>
      </trkpt>
      <trkpt lat="48.08247" lon="-4.24729">
        <ele>114.05358886719</ele>
        <time>2015-11-26T14:14:06Z</time>
      </trkpt>
      <trkpt lat="48.08251" lon="-4.24738">
        <ele>110.20825195312</ele>
        <time>2015-11-26T14:14:10Z</time>
      </trkpt>
      <trkpt lat="48.08251" lon="-4.24752">
        <ele>104.92102050781</ele>
        <time>2015-11-26T14:14:19Z</time>
      </trkpt>
      <trkpt lat="48.08246" lon="-4.24759">
        <ele>108.76623535156</ele>
        <time>2015-11-26T14:14:26Z</time>
      </trkpt>
      <trkpt lat="48.08242" lon="-4.24761">
        <ele>112.61157226562</ele>
        <time>2015-11-26T14:14:31Z</time>
      </trkpt>
      <trkpt lat="48.08239" lon="-4.24762">
        <ele>113.57299804688</ele>
        <time>2015-11-26T14:14:34Z</time>
      </trkpt>
      <trkpt lat="48.08234" lon="-4.24766">
        <ele>112.61157226562</ele>
        <time>2015-11-26T14:14:39Z</time>
      </trkpt>
      <trkpt lat="48.0823" lon="-4.24774">
        <ele>112.61157226562</ele>
        <time>2015-11-26T14:14:44Z</time>
      </trkpt>
      <trkpt lat="48.08228" lon="-4.24776">
        <ele>111.65026855469</ele>
        <time>2015-11-26T14:14:46Z</time>
      </trkpt>
      <trkpt lat="48.08224" lon="-4.24783">
        <ele>115.01489257812</ele>
        <time>2015-11-26T14:14:51Z</time>
      </trkpt>
      <trkpt lat="48.08221" lon="-4.24794">
        <ele>115.49560546875</ele>
        <time>2015-11-26T14:14:57Z</time>
      </trkpt>
      <trkpt lat="48.0822" lon="-4.24803">
        <ele>114.5341796875</ele>
        <time>2015-11-26T14:15:02Z</time>
      </trkpt>
      <trkpt lat="48.08218" lon="-4.24814">
        <ele>112.13098144531</ele>
        <time>2015-11-26T14:15:06Z</time>
      </trkpt>
      <trkpt lat="48.08215" lon="-4.24824">
        <ele>113.09228515625</ele>
        <time>2015-11-26T14:15:11Z</time>
      </trkpt>
      <trkpt lat="48.08213" lon="-4.24829">
        <ele>115.97619628906</ele>
        <time>2015-11-26T14:15:15Z</time>
      </trkpt>
      <trkpt lat="48.08207" lon="-4.24833">
        <ele>114.05358886719</ele>
        <time>2015-11-26T14:15:20Z</time>
      </trkpt>
      <trkpt lat="48.08205" lon="-4.24837">
        <ele>114.05358886719</ele>
        <time>2015-11-26T14:15:22Z</time>
      </trkpt>
      <trkpt lat="48.08199" lon="-4.24845">
        <ele>115.49560546875</ele>
        <time>2015-11-26T14:15:28Z</time>
      </trkpt>
      <trkpt lat="48.08198" lon="-4.24847">
        <ele>116.45678710938</ele>
        <time>2015-11-26T14:15:29Z</time>
      </trkpt>
      <trkpt lat="48.08197" lon="-4.24855">
        <ele>116.45678710938</ele>
        <time>2015-11-26T14:15:33Z</time>
      </trkpt>
      <trkpt lat="48.08196" lon="-4.24867">
        <ele>113.57299804688</ele>
        <time>2015-11-26T14:15:38Z</time>
      </trkpt>
      <trkpt lat="48.08185" lon="-4.24876">
        <ele>114.5341796875</ele>
        <time>2015-11-26T14:15:46Z</time>
      </trkpt>
      <trkpt lat="48.08183" lon="-4.24883">
        <ele>111.65026855469</ele>
        <time>2015-11-26T14:15:51Z</time>
      </trkpt>
      <trkpt lat="48.08183" lon="-4.24883">
        <ele>111.65026855469</ele>
        <time>2015-11-26T14:15:52Z</time>
      </trkpt>
      <trkpt lat="48.08181" lon="-4.24891">
        <ele>109.24694824219</ele>
        <time>2015-11-26T14:15:57Z</time>
      </trkpt>
      <trkpt lat="48.08178" lon="-4.24896">
        <ele>106.84362792969</ele>
        <time>2015-11-26T14:16:01Z</time>
      </trkpt>
      <trkpt lat="48.08177" lon="-4.24899">
        <ele>105.88244628906</ele>
        <time>2015-11-26T14:16:04Z</time>
      </trkpt>
      <trkpt lat="48.08177" lon="-4.2491">
        <ele>104.92102050781</ele>
        <time>2015-11-26T14:16:09Z</time>
      </trkpt>
      <trkpt lat="48.08177" lon="-4.24912">
        <ele>103.47900390625</ele>
        <time>2015-11-26T14:16:10Z</time>
      </trkpt>
      <trkpt lat="48.08178" lon="-4.24924">
        <ele>102.51770019531</ele>
        <time>2015-11-26T14:16:15Z</time>
      </trkpt>
      <trkpt lat="48.08179" lon="-4.24932">
        <ele>102.99829101562</ele>
        <time>2015-11-26T14:16:19Z</time>
      </trkpt>
      <trkpt lat="48.0818" lon="-4.24943">
        <ele>103.95971679688</ele>
        <time>2015-11-26T14:16:24Z</time>
      </trkpt>
      <trkpt lat="48.08178" lon="-4.24955">
        <ele>105.40173339844</ele>
        <time>2015-11-26T14:16:31Z</time>
      </trkpt>
      <trkpt lat="48.08177" lon="-4.24957">
        <ele>105.88244628906</ele>
        <time>2015-11-26T14:16:32Z</time>
      </trkpt>
      <trkpt lat="48.08178" lon="-4.24964">
        <ele>105.40173339844</ele>
        <time>2015-11-26T14:16:36Z</time>
      </trkpt>
      <trkpt lat="48.08177" lon="-4.24974">
        <ele>103.47900390625</ele>
        <time>2015-11-26T14:16:42Z</time>
      </trkpt>
      <trkpt lat="48.08176" lon="-4.24983">
        <ele>105.40173339844</ele>
        <time>2015-11-26T14:16:47Z</time>
      </trkpt>
      <trkpt lat="48.08175" lon="-4.24993">
        <ele>105.88244628906</ele>
        <time>2015-11-26T14:16:52Z</time>
      </trkpt>
      <trkpt lat="48.08175" lon="-4.24999">
        <ele>105.88244628906</ele>
        <time>2015-11-26T14:16:55Z</time>
      </trkpt>
      <trkpt lat="48.08175" lon="-4.2501">
        <ele>106.84362792969</ele>
        <time>2015-11-26T14:17:01Z</time>
      </trkpt>
      <trkpt lat="48.08175" lon="-4.25019">
        <ele>105.88244628906</ele>
        <time>2015-11-26T14:17:06Z</time>
      </trkpt>
      <trkpt lat="48.08172" lon="-4.2503">
        <ele>105.40173339844</ele>
        <time>2015-11-26T14:17:12Z</time>
      </trkpt>
      <trkpt lat="48.08169" lon="-4.25039">
        <ele>105.40173339844</ele>
        <time>2015-11-26T14:17:17Z</time>
      </trkpt>
      <trkpt lat="48.08167" lon="-4.25047">
        <ele>103.47900390625</ele>
        <time>2015-11-26T14:17:22Z</time>
      </trkpt>
      <trkpt lat="48.08161" lon="-4.25056">
        <ele>103.47900390625</ele>
        <time>2015-11-26T14:17:28Z</time>
      </trkpt>
      <trkpt lat="48.08158" lon="-4.2506">
        <ele>103.95971679688</ele>
        <time>2015-11-26T14:17:31Z</time>
      </trkpt>
      <trkpt lat="48.08156" lon="-4.25069">
        <ele>104.92102050781</ele>
        <time>2015-11-26T14:17:36Z</time>
      </trkpt>
      <trkpt lat="48.08153" lon="-4.25075">
        <ele>106.84362792969</ele>
        <time>2015-11-26T14:17:40Z</time>
      </trkpt>
      <trkpt lat="48.08152" lon="-4.25081">
        <ele>108.28564453125</ele>
        <time>2015-11-26T14:17:44Z</time>
      </trkpt>
      <trkpt lat="48.08151" lon="-4.25082">
        <ele>108.28564453125</ele>
        <time>2015-11-26T14:17:45Z</time>
      </trkpt>
      <trkpt lat="48.08148" lon="-4.2509">
        <ele>110.20825195312</ele>
        <time>2015-11-26T14:17:49Z</time>
      </trkpt>
      <trkpt lat="48.08142" lon="-4.251">
        <ele>109.24694824219</ele>
        <time>2015-11-26T14:17:56Z</time>
      </trkpt>
      <trkpt lat="48.0814" lon="-4.25106">
        <ele>106.36303710938</ele>
        <time>2015-11-26T14:18:01Z</time>
      </trkpt>
      <trkpt lat="48.08135" lon="-4.25113">
        <ele>104.92102050781</ele>
        <time>2015-11-26T14:18:11Z</time>
      </trkpt>
      <trkpt lat="48.08134" lon="-4.25119">
        <ele>102.51770019531</ele>
        <time>2015-11-26T14:18:22Z</time>
      </trkpt>
      <trkpt lat="48.08134" lon="-4.25121">
        <ele>100.59509277344</ele>
        <time>2015-11-26T14:18:30Z</time>
      </trkpt>
      <trkpt lat="48.0813" lon="-4.25125">
        <ele>101.07568359375</ele>
        <time>2015-11-26T14:18:35Z</time>
      </trkpt>
      <trkpt lat="48.08125" lon="-4.2513">
        <ele>101.07568359375</ele>
        <time>2015-11-26T14:18:41Z</time>
      </trkpt>
      <trkpt lat="48.08121" lon="-4.25136">
        <ele>101.55639648438</ele>
        <time>2015-11-26T14:18:46Z</time>
      </trkpt>
      <trkpt lat="48.08106" lon="-4.25135">
        <ele>103.95971679688</ele>
        <time>2015-11-26T14:19:11Z</time>
      </trkpt>
      <trkpt lat="48.08102" lon="-4.25135">
        <ele>102.51770019531</ele>
        <time>2015-11-26T14:19:15Z</time>
      </trkpt>
      <trkpt lat="48.08094" lon="-4.25136">
        <ele>102.037109375</ele>
        <time>2015-11-26T14:19:22Z</time>
      </trkpt>
      <trkpt lat="48.08085" lon="-4.25137">
        <ele>99.6337890625</ele>
        <time>2015-11-26T14:19:33Z</time>
      </trkpt>
      <trkpt lat="48.0808" lon="-4.25137">
        <ele>99.153076171875</ele>
        <time>2015-11-26T14:19:37Z</time>
      </trkpt>
      <trkpt lat="48.08076" lon="-4.2514">
        <ele>99.153076171875</ele>
        <time>2015-11-26T14:19:40Z</time>
      </trkpt>
      <trkpt lat="48.08069" lon="-4.2514">
        <ele>101.55639648438</ele>
        <time>2015-11-26T14:19:45Z</time>
      </trkpt>
      <trkpt lat="48.08065" lon="-4.25142">
        <ele>101.55639648438</ele>
        <time>2015-11-26T14:19:50Z</time>
      </trkpt>
      <trkpt lat="48.08055" lon="-4.25144">
        <ele>99.6337890625</ele>
        <time>2015-11-26T14:19:59Z</time>
      </trkpt>
      <trkpt lat="48.08051" lon="-4.25144">
        <ele>99.153076171875</ele>
        <time>2015-11-26T14:20:03Z</time>
      </trkpt>
      <trkpt lat="48.08044" lon="-4.25145">
        <ele>98.672485351562</ele>
        <time>2015-11-26T14:20:08Z</time>
      </trkpt>
      <trkpt lat="48.08039" lon="-4.25145">
        <ele>98.19189453125</ele>
        <time>2015-11-26T14:20:13Z</time>
      </trkpt>
      <trkpt lat="48.08034" lon="-4.25145">
        <ele>97.23046875</ele>
        <time>2015-11-26T14:20:17Z</time>
      </trkpt>
      <trkpt lat="48.08028" lon="-4.25146">
        <ele>96.749877929688</ele>
        <time>2015-11-26T14:20:23Z</time>
      </trkpt>
      <trkpt lat="48.08023" lon="-4.25145">
        <ele>96.749877929688</ele>
        <time>2015-11-26T14:20:27Z</time>
      </trkpt>
      <trkpt lat="48.08015" lon="-4.25142">
        <ele>96.269287109375</ele>
        <time>2015-11-26T14:20:32Z</time>
      </trkpt>
      <trkpt lat="48.08008" lon="-4.2514">
        <ele>95.307739257812</ele>
        <time>2015-11-26T14:20:37Z</time>
      </trkpt>
      <trkpt lat="48.08003" lon="-4.25139">
        <ele>94.8271484375</ele>
        <time>2015-11-26T14:20:41Z</time>
      </trkpt>
      <trkpt lat="48.08" lon="-4.25137">
        <ele>95.307739257812</ele>
        <time>2015-11-26T14:20:44Z</time>
      </trkpt>
      <trkpt lat="48.07997" lon="-4.25135">
        <ele>95.307739257812</ele>
        <time>2015-11-26T14:20:47Z</time>
      </trkpt>
      <trkpt lat="48.07989" lon="-4.25132">
        <ele>92.904541015625</ele>
        <time>2015-11-26T14:20:52Z</time>
      </trkpt>
      <trkpt lat="48.07984" lon="-4.25132">
        <ele>90.98193359375</ele>
        <time>2015-11-26T14:20:57Z</time>
      </trkpt>
      <trkpt lat="48.07977" lon="-4.25132">
        <ele>90.020629882812</ele>
        <time>2015-11-26T14:21:04Z</time>
      </trkpt>
      <trkpt lat="48.07969" lon="-4.25129">
        <ele>89.539916992188</ele>
        <time>2015-11-26T14:21:10Z</time>
      </trkpt>
      <trkpt lat="48.07962" lon="-4.25127">
        <ele>89.539916992188</ele>
        <time>2015-11-26T14:21:14Z</time>
      </trkpt>
      <trkpt lat="48.07957" lon="-4.25126">
        <ele>89.059326171875</ele>
        <time>2015-11-26T14:21:18Z</time>
      </trkpt>
      <trkpt lat="48.0795" lon="-4.25127">
        <ele>84.7333984375</ele>
        <time>2015-11-26T14:21:25Z</time>
      </trkpt>
      <trkpt lat="48.07944" lon="-4.25125">
        <ele>85.694580078125</ele>
        <time>2015-11-26T14:21:29Z</time>
      </trkpt>
      <trkpt lat="48.07927" lon="-4.25127">
        <ele>89.539916992188</ele>
        <time>2015-11-26T14:21:42Z</time>
      </trkpt>
      <trkpt lat="48.07921" lon="-4.25128">
        <ele>90.501342773438</ele>
        <time>2015-11-26T14:21:46Z</time>
      </trkpt>
      <trkpt lat="48.07916" lon="-4.25129">
        <ele>90.501342773438</ele>
        <time>2015-11-26T14:21:50Z</time>
      </trkpt>
      <trkpt lat="48.07911" lon="-4.25133">
        <ele>93.385131835938</ele>
        <time>2015-11-26T14:21:54Z</time>
      </trkpt>
      <trkpt lat="48.07906" lon="-4.25142">
        <ele>92.904541015625</ele>
        <time>2015-11-26T14:21:59Z</time>
      </trkpt>
      <trkpt lat="48.079" lon="-4.25145">
        <ele>92.904541015625</ele>
        <time>2015-11-26T14:22:03Z</time>
      </trkpt>
      <trkpt lat="48.07896" lon="-4.25148">
        <ele>90.020629882812</ele>
        <time>2015-11-26T14:22:07Z</time>
      </trkpt>
      <trkpt lat="48.0789" lon="-4.25149">
        <ele>87.6171875</ele>
        <time>2015-11-26T14:22:12Z</time>
      </trkpt>
      <trkpt lat="48.07885" lon="-4.25154">
        <ele>87.6171875</ele>
        <time>2015-11-26T14:22:17Z</time>
      </trkpt>
      <trkpt lat="48.07881" lon="-4.25161">
        <ele>89.539916992188</ele>
        <time>2015-11-26T14:22:21Z</time>
      </trkpt>
      <trkpt lat="48.07874" lon="-4.25164">
        <ele>89.539916992188</ele>
        <time>2015-11-26T14:22:27Z</time>
      </trkpt>
      <trkpt lat="48.07866" lon="-4.25162">
        <ele>87.6171875</ele>
        <time>2015-11-26T14:22:32Z</time>
      </trkpt>
      <trkpt lat="48.07859" lon="-4.25163">
        <ele>88.098022460938</ele>
        <time>2015-11-26T14:22:37Z</time>
      </trkpt>
      <trkpt lat="48.07855" lon="-4.2516">
        <ele>89.539916992188</ele>
        <time>2015-11-26T14:22:41Z</time>
      </trkpt>
      <trkpt lat="48.07847" lon="-4.25159">
        <ele>86.656005859375</ele>
        <time>2015-11-26T14:22:46Z</time>
      </trkpt>
      <trkpt lat="48.07842" lon="-4.25162">
        <ele>85.694580078125</ele>
        <time>2015-11-26T14:22:50Z</time>
      </trkpt>
      <trkpt lat="48.07835" lon="-4.25164">
        <ele>87.136596679688</ele>
        <time>2015-11-26T14:22:55Z</time>
      </trkpt>
      <trkpt lat="48.0783" lon="-4.25162">
        <ele>86.17529296875</ele>
        <time>2015-11-26T14:22:59Z</time>
      </trkpt>
      <trkpt lat="48.07827" lon="-4.25163">
        <ele>88.098022460938</ele>
        <time>2015-11-26T14:23:02Z</time>
      </trkpt>
      <trkpt lat="48.07821" lon="-4.25167">
        <ele>87.6171875</ele>
        <time>2015-11-26T14:23:06Z</time>
      </trkpt>
      <trkpt lat="48.07816" lon="-4.25172">
        <ele>87.136596679688</ele>
        <time>2015-11-26T14:23:10Z</time>
      </trkpt>
      <trkpt lat="48.07815" lon="-4.25173">
        <ele>86.656005859375</ele>
        <time>2015-11-26T14:23:11Z</time>
      </trkpt>
      <trkpt lat="48.07814" lon="-4.25177">
        <ele>87.136596679688</ele>
        <time>2015-11-26T14:23:13Z</time>
      </trkpt>
      <trkpt lat="48.0781" lon="-4.25189">
        <ele>90.501342773438</ele>
        <time>2015-11-26T14:23:18Z</time>
      </trkpt>
      <trkpt lat="48.07808" lon="-4.25201">
        <ele>98.19189453125</ele>
        <time>2015-11-26T14:23:23Z</time>
      </trkpt>
      <trkpt lat="48.07808" lon="-4.25206">
        <ele>93.865844726562</ele>
        <time>2015-11-26T14:23:28Z</time>
      </trkpt>
      <trkpt lat="48.07807" lon="-4.25207">
        <ele>91.462524414062</ele>
        <time>2015-11-26T14:23:30Z</time>
      </trkpt>
      <trkpt lat="48.07805" lon="-4.25214">
        <ele>90.501342773438</ele>
        <time>2015-11-26T14:23:35Z</time>
      </trkpt>
      <trkpt lat="48.07803" lon="-4.25221">
        <ele>89.539916992188</ele>
        <time>2015-11-26T14:23:39Z</time>
      </trkpt>
      <trkpt lat="48.07803" lon="-4.25229">
        <ele>89.539916992188</ele>
        <time>2015-11-26T14:23:44Z</time>
      </trkpt>
      <trkpt lat="48.07798" lon="-4.25237">
        <ele>86.17529296875</ele>
        <time>2015-11-26T14:23:52Z</time>
      </trkpt>
      <trkpt lat="48.07795" lon="-4.25242">
        <ele>83.291381835938</ele>
        <time>2015-11-26T14:23:56Z</time>
      </trkpt>
      <trkpt lat="48.07791" lon="-4.25246">
        <ele>82.330078125</ele>
        <time>2015-11-26T14:24:00Z</time>
      </trkpt>
      <trkpt lat="48.07786" lon="-4.25251">
        <ele>80.88818359375</ele>
        <time>2015-11-26T14:24:05Z</time>
      </trkpt>
      <trkpt lat="48.07782" lon="-4.25256">
        <ele>79.446044921875</ele>
        <time>2015-11-26T14:24:10Z</time>
      </trkpt>
      <trkpt lat="48.07778" lon="-4.25263">
        <ele>79.926635742188</ele>
        <time>2015-11-26T14:24:15Z</time>
      </trkpt>
      <trkpt lat="48.07773" lon="-4.25267">
        <ele>80.407470703125</ele>
        <time>2015-11-26T14:24:19Z</time>
      </trkpt>
      <trkpt lat="48.07768" lon="-4.25272">
        <ele>79.926635742188</ele>
        <time>2015-11-26T14:24:24Z</time>
      </trkpt>
      <trkpt lat="48.07762" lon="-4.25281">
        <ele>79.926635742188</ele>
        <time>2015-11-26T14:24:30Z</time>
      </trkpt>
      <trkpt lat="48.07758" lon="-4.25289">
        <ele>78.965454101562</ele>
        <time>2015-11-26T14:24:35Z</time>
      </trkpt>
      <trkpt lat="48.07752" lon="-4.25292">
        <ele>77.042846679688</ele>
        <time>2015-11-26T14:24:40Z</time>
      </trkpt>
      <trkpt lat="48.07744" lon="-4.25297">
        <ele>74.639526367188</ele>
        <time>2015-11-26T14:24:48Z</time>
      </trkpt>
      <trkpt lat="48.07737" lon="-4.25303">
        <ele>74.158813476562</ele>
        <time>2015-11-26T14:24:54Z</time>
      </trkpt>
      <trkpt lat="48.07733" lon="-4.25304">
        <ele>75.120239257812</ele>
        <time>2015-11-26T14:25:00Z</time>
      </trkpt>
      <trkpt lat="48.07728" lon="-4.25307">
        <ele>75.120239257812</ele>
        <time>2015-11-26T14:25:05Z</time>
      </trkpt>
      <trkpt lat="48.07724" lon="-4.25311">
        <ele>75.600830078125</ele>
        <time>2015-11-26T14:25:08Z</time>
      </trkpt>
      <trkpt lat="48.07718" lon="-4.25311">
        <ele>75.120239257812</ele>
        <time>2015-11-26T14:25:12Z</time>
      </trkpt>
      <trkpt lat="48.07713" lon="-4.25316">
        <ele>75.600830078125</ele>
        <time>2015-11-26T14:25:16Z</time>
      </trkpt>
      <trkpt lat="48.0771" lon="-4.25324">
        <ele>73.197631835938</ele>
        <time>2015-11-26T14:25:21Z</time>
      </trkpt>
      <trkpt lat="48.07709" lon="-4.25328">
        <ele>72.716918945312</ele>
        <time>2015-11-26T14:25:24Z</time>
      </trkpt>
      <trkpt lat="48.07707" lon="-4.25335">
        <ele>71.755493164062</ele>
        <time>2015-11-26T14:25:28Z</time>
      </trkpt>
      <trkpt lat="48.07706" lon="-4.25341">
        <ele>70.794189453125</ele>
        <time>2015-11-26T14:25:31Z</time>
      </trkpt>
      <trkpt lat="48.0771" lon="-4.25352">
        <ele>70.794189453125</ele>
        <time>2015-11-26T14:25:37Z</time>
      </trkpt>
      <trkpt lat="48.0771" lon="-4.25362">
        <ele>72.236206054688</ele>
        <time>2015-11-26T14:25:43Z</time>
      </trkpt>
      <trkpt lat="48.0771" lon="-4.25369">
        <ele>76.081420898438</ele>
        <time>2015-11-26T14:25:47Z</time>
      </trkpt>
      <trkpt lat="48.07712" lon="-4.25376">
        <ele>75.600830078125</ele>
        <time>2015-11-26T14:25:51Z</time>
      </trkpt>
      <trkpt lat="48.07713" lon="-4.25382">
        <ele>76.081420898438</ele>
        <time>2015-11-26T14:25:55Z</time>
      </trkpt>
      <trkpt lat="48.07715" lon="-4.2539">
        <ele>76.562133789062</ele>
        <time>2015-11-26T14:26:00Z</time>
      </trkpt>
      <trkpt lat="48.07716" lon="-4.25398">
        <ele>77.042846679688</ele>
        <time>2015-11-26T14:26:05Z</time>
      </trkpt>
      <trkpt lat="48.07718" lon="-4.25406">
        <ele>75.600830078125</ele>
        <time>2015-11-26T14:26:11Z</time>
      </trkpt>
      <trkpt lat="48.07722" lon="-4.25416">
        <ele>75.120239257812</ele>
        <time>2015-11-26T14:26:17Z</time>
      </trkpt>
      <trkpt lat="48.07724" lon="-4.25417">
        <ele>73.197631835938</ele>
        <time>2015-11-26T14:26:19Z</time>
      </trkpt>
      <trkpt lat="48.07728" lon="-4.25422">
        <ele>72.236206054688</ele>
        <time>2015-11-26T14:26:26Z</time>
      </trkpt>
      <trkpt lat="48.07733" lon="-4.25428">
        <ele>68.390869140625</ele>
        <time>2015-11-26T14:26:33Z</time>
      </trkpt>
      <trkpt lat="48.07734" lon="-4.25429">
        <ele>66.948974609375</ele>
        <time>2015-11-26T14:26:34Z</time>
      </trkpt>
      <trkpt lat="48.07738" lon="-4.25435">
        <ele>66.46826171875</ele>
        <time>2015-11-26T14:26:40Z</time>
      </trkpt>
      <trkpt lat="48.07741" lon="-4.25439">
        <ele>67.910278320312</ele>
        <time>2015-11-26T14:26:45Z</time>
      </trkpt>
      <trkpt lat="48.07739" lon="-4.25446">
        <ele>67.4296875</ele>
        <time>2015-11-26T14:26:53Z</time>
      </trkpt>
      <trkpt lat="48.07737" lon="-4.25453">
        <ele>67.4296875</ele>
        <time>2015-11-26T14:27:00Z</time>
      </trkpt>
      <trkpt lat="48.07736" lon="-4.25457">
        <ele>66.46826171875</ele>
        <time>2015-11-26T14:27:06Z</time>
      </trkpt>
      <trkpt lat="48.07734" lon="-4.25463">
        <ele>68.390869140625</ele>
        <time>2015-11-26T14:27:11Z</time>
      </trkpt>
      <trkpt lat="48.07733" lon="-4.25466">
        <ele>66.46826171875</ele>
        <time>2015-11-26T14:27:19Z</time>
      </trkpt>
      <trkpt lat="48.07734" lon="-4.25491">
        <ele>59.258422851562</ele>
        <time>2015-11-26T14:27:44Z</time>
      </trkpt>
      <trkpt lat="48.07735" lon="-4.25498">
        <ele>59.258422851562</ele>
        <time>2015-11-26T14:27:50Z</time>
      </trkpt>
      <trkpt lat="48.07737" lon="-4.25505">
        <ele>59.258422851562</ele>
        <time>2015-11-26T14:27:57Z</time>
      </trkpt>
      <trkpt lat="48.07741" lon="-4.25516">
        <ele>57.335815429688</ele>
        <time>2015-11-26T14:28:11Z</time>
      </trkpt>
      <trkpt lat="48.07739" lon="-4.25522">
        <ele>58.297119140625</ele>
        <time>2015-11-26T14:28:19Z</time>
      </trkpt>
      <trkpt lat="48.0774" lon="-4.25526">
        <ele>56.855102539062</ele>
        <time>2015-11-26T14:28:25Z</time>
      </trkpt>
      <trkpt lat="48.07746" lon="-4.25526">
        <ele>57.335815429688</ele>
        <time>2015-11-26T14:28:32Z</time>
      </trkpt>
      <trkpt lat="48.0775" lon="-4.25527">
        <ele>59.739135742188</ele>
        <time>2015-11-26T14:28:35Z</time>
      </trkpt>
      <trkpt lat="48.07757" lon="-4.25528">
        <ele>62.622924804688</ele>
        <time>2015-11-26T14:28:42Z</time>
      </trkpt>
      <trkpt lat="48.07761" lon="-4.25532">
        <ele>61.661743164062</ele>
        <time>2015-11-26T14:28:49Z</time>
      </trkpt>
      <trkpt lat="48.07763" lon="-4.25537">
        <ele>60.700317382812</ele>
        <time>2015-11-26T14:28:56Z</time>
      </trkpt>
      <trkpt lat="48.07767" lon="-4.25541">
        <ele>59.739135742188</ele>
        <time>2015-11-26T14:29:02Z</time>
      </trkpt>
      <trkpt lat="48.07768" lon="-4.25545">
        <ele>59.739135742188</ele>
        <time>2015-11-26T14:29:07Z</time>
      </trkpt>
      <trkpt lat="48.07768" lon="-4.25545">
        <ele>61.181030273438</ele>
        <time>2015-11-26T14:29:35Z</time>
      </trkpt>
      <trkpt lat="48.07768" lon="-4.25544">
        <ele>61.661743164062</ele>
        <time>2015-11-26T14:29:46Z</time>
      </trkpt>
      <trkpt lat="48.07776" lon="-4.25542">
        <ele>66.46826171875</ele>
        <time>2015-11-26T14:30:05Z</time>
      </trkpt>
      <trkpt lat="48.07777" lon="-4.2554">
        <ele>71.27490234375</ele>
        <time>2015-11-26T14:30:22Z</time>
      </trkpt>
      <trkpt lat="48.0778" lon="-4.25543">
        <ele>70.794189453125</ele>
        <time>2015-11-26T14:30:29Z</time>
      </trkpt>
      <trkpt lat="48.07784" lon="-4.25551">
        <ele>69.352294921875</ele>
        <time>2015-11-26T14:30:35Z</time>
      </trkpt>
      <trkpt lat="48.07788" lon="-4.25558">
        <ele>66.948974609375</ele>
        <time>2015-11-26T14:30:41Z</time>
      </trkpt>
      <trkpt lat="48.07794" lon="-4.25565">
        <ele>65.507080078125</ele>
        <time>2015-11-26T14:30:48Z</time>
      </trkpt>
      <trkpt lat="48.07801" lon="-4.25573">
        <ele>63.584350585938</ele>
        <time>2015-11-26T14:30:57Z</time>
      </trkpt>
      <trkpt lat="48.07807" lon="-4.2558">
        <ele>62.142333984375</ele>
        <time>2015-11-26T14:31:04Z</time>
      </trkpt>
      <trkpt lat="48.07814" lon="-4.25591">
        <ele>61.181030273438</ele>
        <time>2015-11-26T14:31:13Z</time>
      </trkpt>
      <trkpt lat="48.07816" lon="-4.25595">
        <ele>61.181030273438</ele>
        <time>2015-11-26T14:31:16Z</time>
      </trkpt>
      <trkpt lat="48.07817" lon="-4.25598">
        <ele>60.700317382812</ele>
        <time>2015-11-26T14:31:19Z</time>
      </trkpt>
      <trkpt lat="48.07817" lon="-4.25603">
        <ele>61.661743164062</ele>
        <time>2015-11-26T14:31:24Z</time>
      </trkpt>
      <trkpt lat="48.0782" lon="-4.2561">
        <ele>62.622924804688</ele>
        <time>2015-11-26T14:31:30Z</time>
      </trkpt>
      <trkpt lat="48.07823" lon="-4.2562">
        <ele>60.700317382812</ele>
        <time>2015-11-26T14:31:38Z</time>
      </trkpt>
      <trkpt lat="48.07827" lon="-4.2563">
        <ele>62.142333984375</ele>
        <time>2015-11-26T14:31:45Z</time>
      </trkpt>
      <trkpt lat="48.07829" lon="-4.25636">
        <ele>62.142333984375</ele>
        <time>2015-11-26T14:31:49Z</time>
      </trkpt>
      <trkpt lat="48.07832" lon="-4.25646">
        <ele>62.622924804688</ele>
        <time>2015-11-26T14:31:56Z</time>
      </trkpt>
      <trkpt lat="48.07833" lon="-4.25648">
        <ele>62.622924804688</ele>
        <time>2015-11-26T14:31:58Z</time>
      </trkpt>
      <trkpt lat="48.07832" lon="-4.25651">
        <ele>64.545654296875</ele>
        <time>2015-11-26T14:32:05Z</time>
      </trkpt>
      <trkpt lat="48.07831" lon="-4.25656">
        <ele>67.910278320312</ele>
        <time>2015-11-26T14:32:10Z</time>
      </trkpt>
      <trkpt lat="48.0783" lon="-4.25662">
        <ele>68.87158203125</ele>
        <time>2015-11-26T14:32:14Z</time>
      </trkpt>
      <trkpt lat="48.0783" lon="-4.25674">
        <ele>69.832885742188</ele>
        <time>2015-11-26T14:32:21Z</time>
      </trkpt>
      <trkpt lat="48.0783" lon="-4.25686">
        <ele>71.27490234375</ele>
        <time>2015-11-26T14:32:28Z</time>
      </trkpt>
      <trkpt lat="48.0783" lon="-4.2569">
        <ele>71.755493164062</ele>
        <time>2015-11-26T14:32:30Z</time>
      </trkpt>
      <trkpt lat="48.07829" lon="-4.25699">
        <ele>72.236206054688</ele>
        <time>2015-11-26T14:32:35Z</time>
      </trkpt>
      <trkpt lat="48.0783" lon="-4.25711">
        <ele>70.3134765625</ele>
        <time>2015-11-26T14:32:41Z</time>
      </trkpt>
      <trkpt lat="48.0783" lon="-4.25713">
        <ele>69.832885742188</ele>
        <time>2015-11-26T14:32:42Z</time>
      </trkpt>
      <trkpt lat="48.07829" lon="-4.2573">
        <ele>68.390869140625</ele>
        <time>2015-11-26T14:32:51Z</time>
      </trkpt>
      <trkpt lat="48.0783" lon="-4.25745">
        <ele>67.4296875</ele>
        <time>2015-11-26T14:32:59Z</time>
      </trkpt>
      <trkpt lat="48.0783" lon="-4.2576">
        <ele>66.46826171875</ele>
        <time>2015-11-26T14:33:07Z</time>
      </trkpt>
      <trkpt lat="48.0783" lon="-4.25773">
        <ele>64.545654296875</ele>
        <time>2015-11-26T14:33:14Z</time>
      </trkpt>
      <trkpt lat="48.0783" lon="-4.25785">
        <ele>63.584350585938</ele>
        <time>2015-11-26T14:33:21Z</time>
      </trkpt>
      <trkpt lat="48.0783" lon="-4.25791">
        <ele>62.622924804688</ele>
        <time>2015-11-26T14:33:24Z</time>
      </trkpt>
      <trkpt lat="48.0783" lon="-4.25804">
        <ele>62.622924804688</ele>
        <time>2015-11-26T14:33:31Z</time>
      </trkpt>
      <trkpt lat="48.0783" lon="-4.25818">
        <ele>62.142333984375</ele>
        <time>2015-11-26T14:33:39Z</time>
      </trkpt>
      <trkpt lat="48.07831" lon="-4.25829">
        <ele>61.181030273438</ele>
        <time>2015-11-26T14:33:45Z</time>
      </trkpt>
      <trkpt lat="48.07833" lon="-4.25844">
        <ele>60.2197265625</ele>
        <time>2015-11-26T14:33:53Z</time>
      </trkpt>
      <trkpt lat="48.07833" lon="-4.25858">
        <ele>59.258422851562</ele>
        <time>2015-11-26T14:34:00Z</time>
      </trkpt>
      <trkpt lat="48.07834" lon="-4.25862">
        <ele>59.258422851562</ele>
        <time>2015-11-26T14:34:02Z</time>
      </trkpt>
      <trkpt lat="48.07835" lon="-4.25863">
        <ele>58.297119140625</ele>
        <time>2015-11-26T14:34:09Z</time>
      </trkpt>
      <trkpt lat="48.07835" lon="-4.25867">
        <ele>57.816528320312</ele>
        <time>2015-11-26T14:34:11Z</time>
      </trkpt>
      <trkpt lat="48.07835" lon="-4.25882">
        <ele>57.335815429688</ele>
        <time>2015-11-26T14:34:19Z</time>
      </trkpt>
      <trkpt lat="48.07836" lon="-4.25889">
        <ele>57.335815429688</ele>
        <time>2015-11-26T14:34:23Z</time>
      </trkpt>
      <trkpt lat="48.07837" lon="-4.25902">
        <ele>56.37451171875</ele>
        <time>2015-11-26T14:34:31Z</time>
      </trkpt>
      <trkpt lat="48.07839" lon="-4.25916">
        <ele>56.37451171875</ele>
        <time>2015-11-26T14:34:39Z</time>
      </trkpt>
      <trkpt lat="48.07841" lon="-4.25934">
        <ele>53.97119140625</ele>
        <time>2015-11-26T14:34:49Z</time>
      </trkpt>
      <trkpt lat="48.07842" lon="-4.25949">
        <ele>53.009765625</ele>
        <time>2015-11-26T14:34:58Z</time>
      </trkpt>
      <trkpt lat="48.07844" lon="-4.25965">
        <ele>51.56787109375</ele>
        <time>2015-11-26T14:35:06Z</time>
      </trkpt>
      <trkpt lat="48.07846" lon="-4.2598">
        <ele>50.1259765625</ele>
        <time>2015-11-26T14:35:15Z</time>
      </trkpt>
      <trkpt lat="48.07847" lon="-4.25992">
        <ele>49.645263671875</ele>
        <time>2015-11-26T14:35:22Z</time>
      </trkpt>
      <trkpt lat="48.07848" lon="-4.26006">
        <ele>49.645263671875</ele>
        <time>2015-11-26T14:35:29Z</time>
      </trkpt>
      <trkpt lat="48.07847" lon="-4.26016">
        <ele>51.087158203125</ele>
        <time>2015-11-26T14:35:35Z</time>
      </trkpt>
      <trkpt lat="48.07847" lon="-4.26034">
        <ele>47.241821289062</ele>
        <time>2015-11-26T14:35:44Z</time>
      </trkpt>
      <trkpt lat="48.07847" lon="-4.26047">
        <ele>46.280639648438</ele>
        <time>2015-11-26T14:35:51Z</time>
      </trkpt>
      <trkpt lat="48.07843" lon="-4.26058">
        <ele>49.16455078125</ele>
        <time>2015-11-26T14:35:58Z</time>
      </trkpt>
      <trkpt lat="48.07841" lon="-4.26061">
        <ele>50.606567382812</ele>
        <time>2015-11-26T14:36:00Z</time>
      </trkpt>
      <trkpt lat="48.07839" lon="-4.26067">
        <ele>50.1259765625</ele>
        <time>2015-11-26T14:36:04Z</time>
      </trkpt>
      <trkpt lat="48.07837" lon="-4.2607">
        <ele>50.606567382812</ele>
        <time>2015-11-26T14:36:06Z</time>
      </trkpt>
      <trkpt lat="48.07838" lon="-4.26086">
        <ele>50.606567382812</ele>
        <time>2015-11-26T14:36:14Z</time>
      </trkpt>
      <trkpt lat="48.07838" lon="-4.26102">
        <ele>47.722534179688</ele>
        <time>2015-11-26T14:36:21Z</time>
      </trkpt>
      <trkpt lat="48.07838" lon="-4.26106">
        <ele>46.76123046875</ele>
        <time>2015-11-26T14:36:23Z</time>
      </trkpt>
      <trkpt lat="48.07837" lon="-4.26124">
        <ele>45.319213867188</ele>
        <time>2015-11-26T14:36:32Z</time>
      </trkpt>
      <trkpt lat="48.07837" lon="-4.26127">
        <ele>45.319213867188</ele>
        <time>2015-11-26T14:36:34Z</time>
      </trkpt>
      <trkpt lat="48.07836" lon="-4.2614">
        <ele>44.838623046875</ele>
        <time>2015-11-26T14:36:41Z</time>
      </trkpt>
      <trkpt lat="48.07835" lon="-4.26153">
        <ele>47.241821289062</ele>
        <time>2015-11-26T14:36:49Z</time>
      </trkpt>
      <trkpt lat="48.07831" lon="-4.26165">
        <ele>46.280639648438</ele>
        <time>2015-11-26T14:36:55Z</time>
      </trkpt>
      <trkpt lat="48.07822" lon="-4.26171">
        <ele>44.358032226562</ele>
        <time>2015-11-26T14:37:03Z</time>
      </trkpt>
      <trkpt lat="48.0782" lon="-4.2617">
        <ele>43.877319335938</ele>
        <time>2015-11-26T14:37:04Z</time>
      </trkpt>
      <trkpt lat="48.07819" lon="-4.26171">
        <ele>44.358032226562</ele>
        <time>2015-11-26T14:37:10Z</time>
      </trkpt>
      <trkpt lat="48.07819" lon="-4.26171">
        <ele>45.799926757812</ele>
        <time>2015-11-26T14:37:17Z</time>
      </trkpt>
      <trkpt lat="48.07819" lon="-4.26171">
        <ele>46.280639648438</ele>
        <time>2015-11-26T14:37:26Z</time>
      </trkpt>
      <trkpt lat="48.0782" lon="-4.26172">
        <ele>45.799926757812</ele>
        <time>2015-11-26T14:37:32Z</time>
      </trkpt>
      <trkpt lat="48.0782" lon="-4.26171">
        <ele>44.358032226562</ele>
        <time>2015-11-26T14:37:39Z</time>
      </trkpt>
      <trkpt lat="48.0782" lon="-4.26171">
        <ele>44.358032226562</ele>
        <time>2015-11-26T14:37:52Z</time>
      </trkpt>
      <trkpt lat="48.07818" lon="-4.26173">
        <ele>43.877319335938</ele>
        <time>2015-11-26T14:38:10Z</time>
      </trkpt>
      <trkpt lat="48.07817" lon="-4.26172">
        <ele>45.799926757812</ele>
        <time>2015-11-26T14:38:23Z</time>
      </trkpt>
      <trkpt lat="48.07814" lon="-4.26171">
        <ele>44.358032226562</ele>
        <time>2015-11-26T14:39:02Z</time>
      </trkpt>
      <trkpt lat="48.07808" lon="-4.2617">
        <ele>42.435424804688</ele>
        <time>2015-11-26T14:39:09Z</time>
      </trkpt>
      <trkpt lat="48.07808" lon="-4.26172">
        <ele>41.954711914062</ele>
        <time>2015-11-26T14:39:15Z</time>
      </trkpt>
      <trkpt lat="48.07807" lon="-4.26174">
        <ele>41.954711914062</ele>
        <time>2015-11-26T14:39:26Z</time>
      </trkpt>
      <trkpt lat="48.07808" lon="-4.26173">
        <ele>40.512817382812</ele>
        <time>2015-11-26T14:39:34Z</time>
      </trkpt>
      <trkpt lat="48.07808" lon="-4.26173">
        <ele>40.032104492188</ele>
        <time>2015-11-26T14:39:48Z</time>
      </trkpt>
      <trkpt lat="48.07808" lon="-4.26173">
        <ele>39.55126953125</ele>
        <time>2015-11-26T14:40:09Z</time>
      </trkpt>
      <trkpt lat="48.07809" lon="-4.26173">
        <ele>41.473999023438</ele>
        <time>2015-11-26T14:40:19Z</time>
      </trkpt>
      <trkpt lat="48.07809" lon="-4.26172">
        <ele>42.435424804688</ele>
        <time>2015-11-26T14:40:31Z</time>
      </trkpt>
      <trkpt lat="48.07808" lon="-4.26175">
        <ele>43.877319335938</ele>
        <time>2015-11-26T14:40:41Z</time>
      </trkpt>
      <trkpt lat="48.07806" lon="-4.26173">
        <ele>43.396606445312</ele>
        <time>2015-11-26T14:40:46Z</time>
      </trkpt>
      <trkpt lat="48.07802" lon="-4.26172">
        <ele>41.473999023438</ele>
        <time>2015-11-26T14:40:52Z</time>
      </trkpt>
      <trkpt lat="48.07797" lon="-4.26171">
        <ele>39.55126953125</ele>
        <time>2015-11-26T14:40:57Z</time>
      </trkpt>
      <trkpt lat="48.07793" lon="-4.26169">
        <ele>39.070678710938</ele>
        <time>2015-11-26T14:41:02Z</time>
      </trkpt>
      <trkpt lat="48.07792" lon="-4.26169">
        <ele>37.628662109375</ele>
        <time>2015-11-26T14:41:06Z</time>
      </trkpt>
      <trkpt lat="48.07788" lon="-4.26167">
        <ele>35.225463867188</ele>
        <time>2015-11-26T14:41:12Z</time>
      </trkpt>
      <trkpt lat="48.07782" lon="-4.26165">
        <ele>33.302856445312</ele>
        <time>2015-11-26T14:41:19Z</time>
      </trkpt>
      <trkpt lat="48.07779" lon="-4.26164">
        <ele>33.302856445312</ele>
        <time>2015-11-26T14:41:24Z</time>
      </trkpt>
      <trkpt lat="48.07776" lon="-4.26164">
        <ele>34.26416015625</ele>
        <time>2015-11-26T14:41:31Z</time>
      </trkpt>
      <trkpt lat="48.0777" lon="-4.26164">
        <ele>33.783447265625</ele>
        <time>2015-11-26T14:41:37Z</time>
      </trkpt>
      <trkpt lat="48.07766" lon="-4.26164">
        <ele>32.822265625</ele>
        <time>2015-11-26T14:41:41Z</time>
      </trkpt>
      <trkpt lat="48.0776" lon="-4.26163">
        <ele>31.860717773438</ele>
        <time>2015-11-26T14:41:49Z</time>
      </trkpt>
      <trkpt lat="48.07758" lon="-4.26164">
        <ele>33.302856445312</ele>
        <time>2015-11-26T14:41:55Z</time>
      </trkpt>
      <trkpt lat="48.07756" lon="-4.2617">
        <ele>33.302856445312</ele>
        <time>2015-11-26T14:42:07Z</time>
      </trkpt>
      <trkpt lat="48.07756" lon="-4.2618">
        <ele>33.302856445312</ele>
        <time>2015-11-26T14:42:13Z</time>
      </trkpt>
      <trkpt lat="48.07756" lon="-4.26189">
        <ele>32.822265625</ele>
        <time>2015-11-26T14:42:22Z</time>
      </trkpt>
      <trkpt lat="48.07756" lon="-4.26195">
        <ele>32.341552734375</ele>
        <time>2015-11-26T14:42:27Z</time>
      </trkpt>
      <trkpt lat="48.07755" lon="-4.26205">
        <ele>31.860717773438</ele>
        <time>2015-11-26T14:42:33Z</time>
      </trkpt>
      <trkpt lat="48.07755" lon="-4.26219">
        <ele>31.860717773438</ele>
        <time>2015-11-26T14:42:41Z</time>
      </trkpt>
      <trkpt lat="48.07755" lon="-4.26226">
        <ele>32.341552734375</ele>
        <time>2015-11-26T14:42:45Z</time>
      </trkpt>
      <trkpt lat="48.07756" lon="-4.26234">
        <ele>31.860717773438</ele>
        <time>2015-11-26T14:42:51Z</time>
      </trkpt>
      <trkpt lat="48.07755" lon="-4.26241">
        <ele>31.380126953125</ele>
        <time>2015-11-26T14:42:56Z</time>
      </trkpt>
      <trkpt lat="48.07755" lon="-4.26245">
        <ele>31.380126953125</ele>
        <time>2015-11-26T14:42:58Z</time>
      </trkpt>
      <trkpt lat="48.07755" lon="-4.26252">
        <ele>31.860717773438</ele>
        <time>2015-11-26T14:43:02Z</time>
      </trkpt>
      <trkpt lat="48.07756" lon="-4.26259">
        <ele>31.380126953125</ele>
        <time>2015-11-26T14:43:07Z</time>
      </trkpt>
      <trkpt lat="48.07756" lon="-4.26269">
        <ele>31.380126953125</ele>
        <time>2015-11-26T14:43:12Z</time>
      </trkpt>
      <trkpt lat="48.07755" lon="-4.2628">
        <ele>32.341552734375</ele>
        <time>2015-11-26T14:43:18Z</time>
      </trkpt>
      <trkpt lat="48.07755" lon="-4.26286">
        <ele>32.822265625</ele>
        <time>2015-11-26T14:43:21Z</time>
      </trkpt>
      <trkpt lat="48.07755" lon="-4.26299">
        <ele>33.302856445312</ele>
        <time>2015-11-26T14:43:28Z</time>
      </trkpt>
      <trkpt lat="48.07755" lon="-4.26304">
        <ele>33.783447265625</ele>
        <time>2015-11-26T14:43:31Z</time>
      </trkpt>
      <trkpt lat="48.07754" lon="-4.26318">
        <ele>33.302856445312</ele>
        <time>2015-11-26T14:43:39Z</time>
      </trkpt>
      <trkpt lat="48.07755" lon="-4.26327">
        <ele>33.783447265625</ele>
        <time>2015-11-26T14:43:44Z</time>
      </trkpt>
      <trkpt lat="48.07758" lon="-4.26339">
        <ele>34.26416015625</ele>
        <time>2015-11-26T14:43:51Z</time>
      </trkpt>
      <trkpt lat="48.07763" lon="-4.26344">
        <ele>33.302856445312</ele>
        <time>2015-11-26T14:43:56Z</time>
      </trkpt>
      <trkpt lat="48.0777" lon="-4.2635">
        <ele>32.822265625</ele>
        <time>2015-11-26T14:44:03Z</time>
      </trkpt>
      <trkpt lat="48.0778" lon="-4.26357">
        <ele>32.341552734375</ele>
        <time>2015-11-26T14:44:12Z</time>
      </trkpt>
      <trkpt lat="48.07783" lon="-4.2636">
        <ele>32.341552734375</ele>
        <time>2015-11-26T14:44:15Z</time>
      </trkpt>
      <trkpt lat="48.07789" lon="-4.26369">
        <ele>32.341552734375</ele>
        <time>2015-11-26T14:44:23Z</time>
      </trkpt>
      <trkpt lat="48.07793" lon="-4.26374">
        <ele>32.341552734375</ele>
        <time>2015-11-26T14:44:27Z</time>
      </trkpt>
      <trkpt lat="48.07796" lon="-4.26378">
        <ele>32.822265625</ele>
        <time>2015-11-26T14:44:33Z</time>
      </trkpt>
      <trkpt lat="48.07797" lon="-4.2638">
        <ele>32.822265625</ele>
        <time>2015-11-26T14:44:38Z</time>
      </trkpt>
      <trkpt lat="48.078" lon="-4.26383">
        <ele>31.860717773438</ele>
        <time>2015-11-26T14:44:43Z</time>
      </trkpt>
      <trkpt lat="48.07807" lon="-4.26384">
        <ele>31.380126953125</ele>
        <time>2015-11-26T14:44:49Z</time>
      </trkpt>
      <trkpt lat="48.07809" lon="-4.26383">
        <ele>31.380126953125</ele>
        <time>2015-11-26T14:44:51Z</time>
      </trkpt>
      <trkpt lat="48.07811" lon="-4.26384">
        <ele>31.860717773438</ele>
        <time>2015-11-26T14:44:53Z</time>
      </trkpt>
      <trkpt lat="48.07816" lon="-4.26384">
        <ele>33.302856445312</ele>
        <time>2015-11-26T14:44:58Z</time>
      </trkpt>
      <trkpt lat="48.07822" lon="-4.26383">
        <ele>35.225463867188</ele>
        <time>2015-11-26T14:45:05Z</time>
      </trkpt>
      <trkpt lat="48.0783" lon="-4.26382">
        <ele>36.66748046875</ele>
        <time>2015-11-26T14:45:12Z</time>
      </trkpt>
      <trkpt lat="48.07837" lon="-4.26381">
        <ele>38.109375</ele>
        <time>2015-11-26T14:45:19Z</time>
      </trkpt>
      <trkpt lat="48.07839" lon="-4.2638">
        <ele>38.590087890625</ele>
        <time>2015-11-26T14:45:21Z</time>
      </trkpt>
      <trkpt lat="48.07847" lon="-4.26379">
        <ele>40.512817382812</ele>
        <time>2015-11-26T14:45:29Z</time>
      </trkpt>
      <trkpt lat="48.07854" lon="-4.26378">
        <ele>41.473999023438</ele>
        <time>2015-11-26T14:45:36Z</time>
      </trkpt>
      <trkpt lat="48.07862" lon="-4.26377">
        <ele>43.396606445312</ele>
        <time>2015-11-26T14:45:43Z</time>
      </trkpt>
      <trkpt lat="48.07868" lon="-4.26377">
        <ele>44.838623046875</ele>
        <time>2015-11-26T14:45:49Z</time>
      </trkpt>
      <trkpt lat="48.07875" lon="-4.26376">
        <ele>46.280639648438</ele>
        <time>2015-11-26T14:45:56Z</time>
      </trkpt>
      <trkpt lat="48.07882" lon="-4.26375">
        <ele>47.722534179688</ele>
        <time>2015-11-26T14:46:03Z</time>
      </trkpt>
      <trkpt lat="48.0789" lon="-4.26375">
        <ele>49.16455078125</ele>
        <time>2015-11-26T14:46:10Z</time>
      </trkpt>
      <trkpt lat="48.07897" lon="-4.26373">
        <ele>51.087158203125</ele>
        <time>2015-11-26T14:46:17Z</time>
      </trkpt>
      <trkpt lat="48.07905" lon="-4.26371">
        <ele>53.009765625</ele>
        <time>2015-11-26T14:46:25Z</time>
      </trkpt>
      <trkpt lat="48.07909" lon="-4.26367">
        <ele>53.490478515625</ele>
        <time>2015-11-26T14:46:31Z</time>
      </trkpt>
      <trkpt lat="48.07913" lon="-4.26364">
        <ele>53.97119140625</ele>
        <time>2015-11-26T14:46:37Z</time>
      </trkpt>
      <trkpt lat="48.07919" lon="-4.26363">
        <ele>54.451782226562</ele>
        <time>2015-11-26T14:46:43Z</time>
      </trkpt>
      <trkpt lat="48.07926" lon="-4.26365">
        <ele>55.4130859375</ele>
        <time>2015-11-26T14:46:50Z</time>
      </trkpt>
      <trkpt lat="48.07932" lon="-4.26365">
        <ele>55.893798828125</ele>
        <time>2015-11-26T14:46:56Z</time>
      </trkpt>
      <trkpt lat="48.07938" lon="-4.26366">
        <ele>56.855102539062</ele>
        <time>2015-11-26T14:47:02Z</time>
      </trkpt>
      <trkpt lat="48.07939" lon="-4.26366">
        <ele>56.855102539062</ele>
        <time>2015-11-26T14:47:03Z</time>
      </trkpt>
      <trkpt lat="48.07945" lon="-4.26371">
        <ele>57.335815429688</ele>
        <time>2015-11-26T14:47:09Z</time>
      </trkpt>
      <trkpt lat="48.07952" lon="-4.2638">
        <ele>60.2197265625</ele>
        <time>2015-11-26T14:47:17Z</time>
      </trkpt>
      <trkpt lat="48.07957" lon="-4.26389">
        <ele>61.661743164062</ele>
        <time>2015-11-26T14:47:23Z</time>
      </trkpt>
      <trkpt lat="48.07958" lon="-4.26393">
        <ele>62.142333984375</ele>
        <time>2015-11-26T14:47:26Z</time>
      </trkpt>
      <trkpt lat="48.07962" lon="-4.26402">
        <ele>61.661743164062</ele>
        <time>2015-11-26T14:47:32Z</time>
      </trkpt>
      <trkpt lat="48.07968" lon="-4.26413">
        <ele>59.258422851562</ele>
        <time>2015-11-26T14:47:40Z</time>
      </trkpt>
      <trkpt lat="48.07971" lon="-4.26419">
        <ele>58.777709960938</ele>
        <time>2015-11-26T14:47:45Z</time>
      </trkpt>
      <trkpt lat="48.07972" lon="-4.26419">
        <ele>58.297119140625</ele>
        <time>2015-11-26T14:47:47Z</time>
      </trkpt>
      <trkpt lat="48.07976" lon="-4.26415">
        <ele>57.816528320312</ele>
        <time>2015-11-26T14:47:53Z</time>
      </trkpt>
      <trkpt lat="48.07974" lon="-4.26417">
        <ele>58.297119140625</ele>
        <time>2015-11-26T14:47:57Z</time>
      </trkpt>
      <trkpt lat="48.07977" lon="-4.26431">
        <ele>58.297119140625</ele>
        <time>2015-11-26T14:48:05Z</time>
      </trkpt>
      <trkpt lat="48.07982" lon="-4.26439">
        <ele>57.335815429688</ele>
        <time>2015-11-26T14:48:11Z</time>
      </trkpt>
      <trkpt lat="48.07985" lon="-4.26445">
        <ele>57.335815429688</ele>
        <time>2015-11-26T14:48:16Z</time>
      </trkpt>
      <trkpt lat="48.07989" lon="-4.26453">
        <ele>57.335815429688</ele>
        <time>2015-11-26T14:48:21Z</time>
      </trkpt>
      <trkpt lat="48.07995" lon="-4.2646">
        <ele>54.932373046875</ele>
        <time>2015-11-26T14:48:29Z</time>
      </trkpt>
      <trkpt lat="48.07998" lon="-4.26463">
        <ele>54.932373046875</ele>
        <time>2015-11-26T14:48:32Z</time>
      </trkpt>
      <trkpt lat="48.08003" lon="-4.26473">
        <ele>55.893798828125</ele>
        <time>2015-11-26T14:48:39Z</time>
      </trkpt>
      <trkpt lat="48.08007" lon="-4.26478">
        <ele>56.37451171875</ele>
        <time>2015-11-26T14:48:43Z</time>
      </trkpt>
      <trkpt lat="48.08015" lon="-4.26483">
        <ele>55.893798828125</ele>
        <time>2015-11-26T14:48:51Z</time>
      </trkpt>
      <trkpt lat="48.08016" lon="-4.26483">
        <ele>55.893798828125</ele>
        <time>2015-11-26T14:48:52Z</time>
      </trkpt>
      <trkpt lat="48.08022" lon="-4.26486">
        <ele>54.451782226562</ele>
        <time>2015-11-26T14:48:57Z</time>
      </trkpt>
      <trkpt lat="48.08029" lon="-4.26491">
        <ele>53.97119140625</ele>
        <time>2015-11-26T14:49:03Z</time>
      </trkpt>
      <trkpt lat="48.08039" lon="-4.26497">
        <ele>54.451782226562</ele>
        <time>2015-11-26T14:49:11Z</time>
      </trkpt>
      <trkpt lat="48.08044" lon="-4.265">
        <ele>53.490478515625</ele>
        <time>2015-11-26T14:49:15Z</time>
      </trkpt>
      <trkpt lat="48.08048" lon="-4.26503">
        <ele>53.490478515625</ele>
        <time>2015-11-26T14:49:19Z</time>
      </trkpt>
      <trkpt lat="48.08051" lon="-4.26503">
        <ele>53.009765625</ele>
        <time>2015-11-26T14:49:21Z</time>
      </trkpt>
      <trkpt lat="48.08059" lon="-4.26509">
        <ele>53.490478515625</ele>
        <time>2015-11-26T14:49:28Z</time>
      </trkpt>
      <trkpt lat="48.08066" lon="-4.26512">
        <ele>53.97119140625</ele>
        <time>2015-11-26T14:49:34Z</time>
      </trkpt>
      <trkpt lat="48.08069" lon="-4.26516">
        <ele>55.4130859375</ele>
        <time>2015-11-26T14:49:38Z</time>
      </trkpt>
      <trkpt lat="48.0808" lon="-4.26521">
        <ele>56.37451171875</ele>
        <time>2015-11-26T14:49:47Z</time>
      </trkpt>
      <trkpt lat="48.08089" lon="-4.26523">
        <ele>55.893798828125</ele>
        <time>2015-11-26T14:49:55Z</time>
      </trkpt>
      <trkpt lat="48.08096" lon="-4.26524">
        <ele>55.893798828125</ele>
        <time>2015-11-26T14:50:01Z</time>
      </trkpt>
      <trkpt lat="48.08105" lon="-4.26527">
        <ele>56.37451171875</ele>
        <time>2015-11-26T14:50:08Z</time>
      </trkpt>
      <trkpt lat="48.08113" lon="-4.26529">
        <ele>56.855102539062</ele>
        <time>2015-11-26T14:50:15Z</time>
      </trkpt>
      <trkpt lat="48.08121" lon="-4.26532">
        <ele>57.816528320312</ele>
        <time>2015-11-26T14:50:22Z</time>
      </trkpt>
      <trkpt lat="48.08126" lon="-4.26533">
        <ele>57.816528320312</ele>
        <time>2015-11-26T14:50:27Z</time>
      </trkpt>
      <trkpt lat="48.08132" lon="-4.26536">
        <ele>58.297119140625</ele>
        <time>2015-11-26T14:50:32Z</time>
      </trkpt>
      <trkpt lat="48.0814" lon="-4.26538">
        <ele>58.777709960938</ele>
        <time>2015-11-26T14:50:39Z</time>
      </trkpt>
      <trkpt lat="48.08145" lon="-4.26539">
        <ele>58.777709960938</ele>
        <time>2015-11-26T14:50:45Z</time>
      </trkpt>
      <trkpt lat="48.08154" lon="-4.26539">
        <ele>58.297119140625</ele>
        <time>2015-11-26T14:50:53Z</time>
      </trkpt>
      <trkpt lat="48.08161" lon="-4.26539">
        <ele>58.777709960938</ele>
        <time>2015-11-26T14:50:59Z</time>
      </trkpt>
      <trkpt lat="48.08162" lon="-4.26539">
        <ele>58.777709960938</ele>
        <time>2015-11-26T14:51:00Z</time>
      </trkpt>
      <trkpt lat="48.0817" lon="-4.26539">
        <ele>59.258422851562</ele>
        <time>2015-11-26T14:51:07Z</time>
      </trkpt>
      <trkpt lat="48.08172" lon="-4.26538">
        <ele>59.258422851562</ele>
        <time>2015-11-26T14:51:09Z</time>
      </trkpt>
      <trkpt lat="48.08179" lon="-4.26537">
        <ele>60.700317382812</ele>
        <time>2015-11-26T14:51:16Z</time>
      </trkpt>
      <trkpt lat="48.08185" lon="-4.26537">
        <ele>61.661743164062</ele>
        <time>2015-11-26T14:51:21Z</time>
      </trkpt>
      <trkpt lat="48.08191" lon="-4.26539">
        <ele>64.065063476562</ele>
        <time>2015-11-26T14:51:27Z</time>
      </trkpt>
      <trkpt lat="48.08199" lon="-4.26543">
        <ele>66.46826171875</ele>
        <time>2015-11-26T14:51:34Z</time>
      </trkpt>
      <trkpt lat="48.08207" lon="-4.26543">
        <ele>65.987670898438</ele>
        <time>2015-11-26T14:51:41Z</time>
      </trkpt>
      <trkpt lat="48.08213" lon="-4.26542">
        <ele>65.507080078125</ele>
        <time>2015-11-26T14:51:46Z</time>
      </trkpt>
      <trkpt lat="48.08221" lon="-4.26541">
        <ele>64.545654296875</ele>
        <time>2015-11-26T14:51:53Z</time>
      </trkpt>
      <trkpt lat="48.08228" lon="-4.26541">
        <ele>64.065063476562</ele>
        <time>2015-11-26T14:51:59Z</time>
      </trkpt>
      <trkpt lat="48.08234" lon="-4.2654">
        <ele>64.065063476562</ele>
        <time>2015-11-26T14:52:04Z</time>
      </trkpt>
      <trkpt lat="48.08242" lon="-4.26539">
        <ele>63.103637695312</ele>
        <time>2015-11-26T14:52:11Z</time>
      </trkpt>
      <trkpt lat="48.08248" lon="-4.26539">
        <ele>62.622924804688</ele>
        <time>2015-11-26T14:52:17Z</time>
      </trkpt>
      <trkpt lat="48.08254" lon="-4.26539">
        <ele>63.103637695312</ele>
        <time>2015-11-26T14:52:21Z</time>
      </trkpt>
      <trkpt lat="48.08261" lon="-4.26538">
        <ele>64.065063476562</ele>
        <time>2015-11-26T14:52:27Z</time>
      </trkpt>
      <trkpt lat="48.08268" lon="-4.26534">
        <ele>65.507080078125</ele>
        <time>2015-11-26T14:52:34Z</time>
      </trkpt>
      <trkpt lat="48.08273" lon="-4.26532">
        <ele>65.987670898438</ele>
        <time>2015-11-26T14:52:40Z</time>
      </trkpt>
      <trkpt lat="48.08278" lon="-4.26529">
        <ele>65.507080078125</ele>
        <time>2015-11-26T14:52:46Z</time>
      </trkpt>
      <trkpt lat="48.08283" lon="-4.26525">
        <ele>66.46826171875</ele>
        <time>2015-11-26T14:52:50Z</time>
      </trkpt>
      <trkpt lat="48.08288" lon="-4.26519">
        <ele>66.46826171875</ele>
        <time>2015-11-26T14:52:55Z</time>
      </trkpt>
      <trkpt lat="48.08295" lon="-4.26508">
        <ele>69.832885742188</ele>
        <time>2015-11-26T14:53:03Z</time>
      </trkpt>
      <trkpt lat="48.08299" lon="-4.26504">
        <ele>72.236206054688</ele>
        <time>2015-11-26T14:53:06Z</time>
      </trkpt>
      <trkpt lat="48.08301" lon="-4.26501">
        <ele>73.67822265625</ele>
        <time>2015-11-26T14:53:08Z</time>
      </trkpt>
      <trkpt lat="48.08309" lon="-4.26501">
        <ele>76.562133789062</ele>
        <time>2015-11-26T14:53:14Z</time>
      </trkpt>
      <trkpt lat="48.08311" lon="-4.26503">
        <ele>75.600830078125</ele>
        <time>2015-11-26T14:53:16Z</time>
      </trkpt>
      <trkpt lat="48.08313" lon="-4.26505">
        <ele>73.67822265625</ele>
        <time>2015-11-26T14:53:20Z</time>
      </trkpt>
      <trkpt lat="48.08317" lon="-4.26509">
        <ele>73.67822265625</ele>
        <time>2015-11-26T14:53:27Z</time>
      </trkpt>
      <trkpt lat="48.0832" lon="-4.26512">
        <ele>73.197631835938</ele>
        <time>2015-11-26T14:53:32Z</time>
      </trkpt>
      <trkpt lat="48.08327" lon="-4.26513">
        <ele>72.716918945312</ele>
        <time>2015-11-26T14:53:37Z</time>
      </trkpt>
      <trkpt lat="48.08331" lon="-4.26519">
        <ele>69.352294921875</ele>
        <time>2015-11-26T14:53:43Z</time>
      </trkpt>
      <trkpt lat="48.08334" lon="-4.26522">
        <ele>68.390869140625</ele>
        <time>2015-11-26T14:53:49Z</time>
      </trkpt>
      <trkpt lat="48.08339" lon="-4.26526">
        <ele>67.4296875</ele>
        <time>2015-11-26T14:53:57Z</time>
      </trkpt>
      <trkpt lat="48.08341" lon="-4.2653">
        <ele>65.0263671875</ele>
        <time>2015-11-26T14:54:04Z</time>
      </trkpt>
      <trkpt lat="48.08345" lon="-4.26532">
        <ele>62.142333984375</ele>
        <time>2015-11-26T14:54:10Z</time>
      </trkpt>
      <trkpt lat="48.08346" lon="-4.26531">
        <ele>61.661743164062</ele>
        <time>2015-11-26T14:54:13Z</time>
      </trkpt>
      <trkpt lat="48.08351" lon="-4.26519">
        <ele>60.700317382812</ele>
        <time>2015-11-26T14:54:20Z</time>
      </trkpt>
      <trkpt lat="48.08352" lon="-4.2651">
        <ele>59.258422851562</ele>
        <time>2015-11-26T14:54:27Z</time>
      </trkpt>
      <trkpt lat="48.08354" lon="-4.26499">
        <ele>60.700317382812</ele>
        <time>2015-11-26T14:54:33Z</time>
      </trkpt>
      <trkpt lat="48.08354" lon="-4.26495">
        <ele>59.258422851562</ele>
        <time>2015-11-26T14:54:36Z</time>
      </trkpt>
      <trkpt lat="48.08359" lon="-4.26496">
        <ele>54.932373046875</ele>
        <time>2015-11-26T14:54:44Z</time>
      </trkpt>
      <trkpt lat="48.0836" lon="-4.26498">
        <ele>53.490478515625</ele>
        <time>2015-11-26T14:54:51Z</time>
      </trkpt>
      <trkpt lat="48.08361" lon="-4.26498">
        <ele>52.529174804688</ele>
        <time>2015-11-26T14:54:54Z</time>
      </trkpt>
      <trkpt lat="48.0837" lon="-4.26503">
        <ele>56.37451171875</ele>
        <time>2015-11-26T14:55:01Z</time>
      </trkpt>
      <trkpt lat="48.08371" lon="-4.26504">
        <ele>57.335815429688</ele>
        <time>2015-11-26T14:55:02Z</time>
      </trkpt>
      <trkpt lat="48.08374" lon="-4.26508">
        <ele>58.297119140625</ele>
        <time>2015-11-26T14:55:06Z</time>
      </trkpt>
      <trkpt lat="48.08378" lon="-4.26515">
        <ele>59.739135742188</ele>
        <time>2015-11-26T14:55:12Z</time>
      </trkpt>
      <trkpt lat="48.08377" lon="-4.2652">
        <ele>58.297119140625</ele>
        <time>2015-11-26T14:55:16Z</time>
      </trkpt>
      <trkpt lat="48.08379" lon="-4.26526">
        <ele>59.739135742188</ele>
        <time>2015-11-26T14:55:21Z</time>
      </trkpt>
      <trkpt lat="48.08378" lon="-4.2653">
        <ele>60.700317382812</ele>
        <time>2015-11-26T14:55:25Z</time>
      </trkpt>
      <trkpt lat="48.08381" lon="-4.26542">
        <ele>64.065063476562</ele>
        <time>2015-11-26T14:55:34Z</time>
      </trkpt>
      <trkpt lat="48.08381" lon="-4.26549">
        <ele>65.0263671875</ele>
        <time>2015-11-26T14:55:37Z</time>
      </trkpt>
      <trkpt lat="48.08381" lon="-4.26559">
        <ele>64.065063476562</ele>
        <time>2015-11-26T14:55:42Z</time>
      </trkpt>
      <trkpt lat="48.08382" lon="-4.26563">
        <ele>65.507080078125</ele>
        <time>2015-11-26T14:55:44Z</time>
      </trkpt>
      <trkpt lat="48.08381" lon="-4.26572">
        <ele>65.507080078125</ele>
        <time>2015-11-26T14:55:48Z</time>
      </trkpt>
      <trkpt lat="48.0838" lon="-4.26576">
        <ele>63.103637695312</ele>
        <time>2015-11-26T14:55:52Z</time>
      </trkpt>
      <trkpt lat="48.0838" lon="-4.26577">
        <ele>61.661743164062</ele>
        <time>2015-11-26T14:55:53Z</time>
      </trkpt>
      <trkpt lat="48.08381" lon="-4.26585">
        <ele>62.622924804688</ele>
        <time>2015-11-26T14:55:58Z</time>
      </trkpt>
      <trkpt lat="48.08385" lon="-4.26589">
        <ele>65.0263671875</ele>
        <time>2015-11-26T14:56:01Z</time>
      </trkpt>
      <trkpt lat="48.08386" lon="-4.26603">
        <ele>66.948974609375</ele>
        <time>2015-11-26T14:56:06Z</time>
      </trkpt>
      <trkpt lat="48.08388" lon="-4.26609">
        <ele>68.87158203125</ele>
        <time>2015-11-26T14:56:10Z</time>
      </trkpt>
      <trkpt lat="48.08388" lon="-4.2661">
        <ele>67.4296875</ele>
        <time>2015-11-26T14:56:11Z</time>
      </trkpt>
      <trkpt lat="48.0839" lon="-4.26614">
        <ele>60.700317382812</ele>
        <time>2015-11-26T14:56:16Z</time>
      </trkpt>
      <trkpt lat="48.08391" lon="-4.26616">
        <ele>58.777709960938</ele>
        <time>2015-11-26T14:56:19Z</time>
      </trkpt>
      <trkpt lat="48.08394" lon="-4.26624">
        <ele>60.2197265625</ele>
        <time>2015-11-26T14:56:23Z</time>
      </trkpt>
      <trkpt lat="48.08396" lon="-4.26632">
        <ele>56.37451171875</ele>
        <time>2015-11-26T14:56:29Z</time>
      </trkpt>
      <trkpt lat="48.08398" lon="-4.26634">
        <ele>50.1259765625</ele>
        <time>2015-11-26T14:56:40Z</time>
      </trkpt>
      <trkpt lat="48.08399" lon="-4.26639">
        <ele>52.048583984375</ele>
        <time>2015-11-26T14:56:43Z</time>
      </trkpt>
      <trkpt lat="48.084" lon="-4.26642">
        <ele>53.009765625</ele>
        <time>2015-11-26T14:56:45Z</time>
      </trkpt>
      <trkpt lat="48.08404" lon="-4.26645">
        <ele>53.97119140625</ele>
        <time>2015-11-26T14:56:49Z</time>
      </trkpt>
      <trkpt lat="48.08405" lon="-4.26647">
        <ele>53.97119140625</ele>
        <time>2015-11-26T14:56:51Z</time>
      </trkpt>
      <trkpt lat="48.08408" lon="-4.26655">
        <ele>54.451782226562</ele>
        <time>2015-11-26T14:56:57Z</time>
      </trkpt>
      <trkpt lat="48.08407" lon="-4.26659">
        <ele>50.1259765625</ele>
        <time>2015-11-26T14:57:00Z</time>
      </trkpt>
      <trkpt lat="48.08409" lon="-4.26671">
        <ele>47.722534179688</ele>
        <time>2015-11-26T14:57:05Z</time>
      </trkpt>
      <trkpt lat="48.08409" lon="-4.26672">
        <ele>46.76123046875</ele>
        <time>2015-11-26T14:57:06Z</time>
      </trkpt>
      <trkpt lat="48.08408" lon="-4.26677">
        <ele>39.55126953125</ele>
        <time>2015-11-26T14:57:10Z</time>
      </trkpt>
      <trkpt lat="48.08409" lon="-4.26685">
        <ele>33.783447265625</ele>
        <time>2015-11-26T14:57:15Z</time>
      </trkpt>
      <trkpt lat="48.08408" lon="-4.26691">
        <ele>30.899536132812</ele>
        <time>2015-11-26T14:57:21Z</time>
      </trkpt>
      <trkpt lat="48.08407" lon="-4.26695">
        <ele>31.380126953125</ele>
        <time>2015-11-26T14:57:29Z</time>
      </trkpt>
      <trkpt lat="48.08407" lon="-4.26699">
        <ele>32.822265625</ele>
        <time>2015-11-26T14:57:33Z</time>
      </trkpt>
      <trkpt lat="48.08406" lon="-4.26703">
        <ele>35.7060546875</ele>
        <time>2015-11-26T14:57:37Z</time>
      </trkpt>
      <trkpt lat="48.08405" lon="-4.26708">
        <ele>37.628662109375</ele>
        <time>2015-11-26T14:57:41Z</time>
      </trkpt>
      <trkpt lat="48.08401" lon="-4.26714">
        <ele>36.186767578125</ele>
        <time>2015-11-26T14:57:47Z</time>
      </trkpt>
      <trkpt lat="48.084" lon="-4.26716">
        <ele>36.186767578125</ele>
        <time>2015-11-26T14:57:48Z</time>
      </trkpt>
      <trkpt lat="48.08396" lon="-4.26722">
        <ele>35.225463867188</ele>
        <time>2015-11-26T14:57:52Z</time>
      </trkpt>
      <trkpt lat="48.08389" lon="-4.26733">
        <ele>33.302856445312</ele>
        <time>2015-11-26T14:57:59Z</time>
      </trkpt>
      <trkpt lat="48.08385" lon="-4.26738">
        <ele>32.822265625</ele>
        <time>2015-11-26T14:58:03Z</time>
      </trkpt>
      <trkpt lat="48.08383" lon="-4.26742">
        <ele>32.341552734375</ele>
        <time>2015-11-26T14:58:06Z</time>
      </trkpt>
      <trkpt lat="48.08373" lon="-4.26751">
        <ele>31.860717773438</ele>
        <time>2015-11-26T14:58:13Z</time>
      </trkpt>
      <trkpt lat="48.08372" lon="-4.26752">
        <ele>32.822265625</ele>
        <time>2015-11-26T14:58:14Z</time>
      </trkpt>
      <trkpt lat="48.08368" lon="-4.26758">
        <ele>32.822265625</ele>
        <time>2015-11-26T14:58:19Z</time>
      </trkpt>
      <trkpt lat="48.08365" lon="-4.26762">
        <ele>34.26416015625</ele>
        <time>2015-11-26T14:58:22Z</time>
      </trkpt>
      <trkpt lat="48.08361" lon="-4.26771">
        <ele>34.26416015625</ele>
        <time>2015-11-26T14:58:28Z</time>
      </trkpt>
      <trkpt lat="48.0836" lon="-4.26775">
        <ele>32.341552734375</ele>
        <time>2015-11-26T14:58:33Z</time>
      </trkpt>
      <trkpt lat="48.08357" lon="-4.26782">
        <ele>30.418823242188</ele>
        <time>2015-11-26T14:58:38Z</time>
      </trkpt>
      <trkpt lat="48.08356" lon="-4.26787">
        <ele>31.380126953125</ele>
        <time>2015-11-26T14:58:42Z</time>
      </trkpt>
      <trkpt lat="48.08357" lon="-4.2679">
        <ele>32.822265625</ele>
        <time>2015-11-26T14:58:44Z</time>
      </trkpt>
      <trkpt lat="48.08355" lon="-4.26798">
        <ele>31.860717773438</ele>
        <time>2015-11-26T14:58:49Z</time>
      </trkpt>
      <trkpt lat="48.08355" lon="-4.268">
        <ele>32.341552734375</ele>
        <time>2015-11-26T14:58:54Z</time>
      </trkpt>
      <trkpt lat="48.08352" lon="-4.26809">
        <ele>33.302856445312</ele>
        <time>2015-11-26T14:59:03Z</time>
      </trkpt>
      <trkpt lat="48.0835" lon="-4.26815">
        <ele>32.822265625</ele>
        <time>2015-11-26T14:59:07Z</time>
      </trkpt>
      <trkpt lat="48.08347" lon="-4.26827">
        <ele>29.938110351562</ele>
        <time>2015-11-26T14:59:14Z</time>
      </trkpt>
      <trkpt lat="48.08346" lon="-4.26828">
        <ele>29.45751953125</ele>
        <time>2015-11-26T14:59:15Z</time>
      </trkpt>
      <trkpt lat="48.08339" lon="-4.26836">
        <ele>24.170288085938</ele>
        <time>2015-11-26T14:59:20Z</time>
      </trkpt>
      <trkpt lat="48.08335" lon="-4.26845">
        <ele>24.170288085938</ele>
        <time>2015-11-26T14:59:25Z</time>
      </trkpt>
      <trkpt lat="48.08334" lon="-4.26849">
        <ele>25.131713867188</ele>
        <time>2015-11-26T14:59:27Z</time>
      </trkpt>
      <trkpt lat="48.08334" lon="-4.26852">
        <ele>25.6123046875</ele>
        <time>2015-11-26T14:59:29Z</time>
      </trkpt>
      <trkpt lat="48.08332" lon="-4.2686">
        <ele>27.054321289062</ele>
        <time>2015-11-26T14:59:34Z</time>
      </trkpt>
      <trkpt lat="48.08328" lon="-4.2687">
        <ele>25.6123046875</ele>
        <time>2015-11-26T14:59:41Z</time>
      </trkpt>
      <trkpt lat="48.08326" lon="-4.26879">
        <ele>25.6123046875</ele>
        <time>2015-11-26T14:59:47Z</time>
      </trkpt>
      <trkpt lat="48.08325" lon="-4.26891">
        <ele>26.573608398438</ele>
        <time>2015-11-26T14:59:53Z</time>
      </trkpt>
      <trkpt lat="48.08327" lon="-4.26904">
        <ele>31.860717773438</ele>
        <time>2015-11-26T14:59:59Z</time>
      </trkpt>
      <trkpt lat="48.08324" lon="-4.26916">
        <ele>30.899536132812</ele>
        <time>2015-11-26T15:00:06Z</time>
      </trkpt>
      <trkpt lat="48.08321" lon="-4.26926">
        <ele>25.131713867188</ele>
        <time>2015-11-26T15:00:11Z</time>
      </trkpt>
      <trkpt lat="48.08319" lon="-4.26931">
        <ele>26.092895507812</ele>
        <time>2015-11-26T15:00:14Z</time>
      </trkpt>
      <trkpt lat="48.08318" lon="-4.26941">
        <ele>23.689575195312</ele>
        <time>2015-11-26T15:00:20Z</time>
      </trkpt>
      <trkpt lat="48.08316" lon="-4.26951">
        <ele>21.286376953125</ele>
        <time>2015-11-26T15:00:25Z</time>
      </trkpt>
      <trkpt lat="48.08315" lon="-4.26953">
        <ele>20.324951171875</ele>
        <time>2015-11-26T15:00:26Z</time>
      </trkpt>
      <trkpt lat="48.08317" lon="-4.26959">
        <ele>18.40234375</ele>
        <time>2015-11-26T15:00:29Z</time>
      </trkpt>
      <trkpt lat="48.08324" lon="-4.26956">
        <ele>16.96044921875</ele>
        <time>2015-11-26T15:00:34Z</time>
      </trkpt>
      <trkpt lat="48.08333" lon="-4.26954">
        <ele>17.441162109375</ele>
        <time>2015-11-26T15:00:42Z</time>
      </trkpt>
      <trkpt lat="48.08341" lon="-4.26953">
        <ele>17.921752929688</ele>
        <time>2015-11-26T15:00:49Z</time>
      </trkpt>
      <trkpt lat="48.0835" lon="-4.2695">
        <ele>17.921752929688</ele>
        <time>2015-11-26T15:00:57Z</time>
      </trkpt>
      <trkpt lat="48.08358" lon="-4.26948">
        <ele>17.441162109375</ele>
        <time>2015-11-26T15:01:04Z</time>
      </trkpt>
      <trkpt lat="48.08364" lon="-4.26947">
        <ele>16.96044921875</ele>
        <time>2015-11-26T15:01:10Z</time>
      </trkpt>
      <trkpt lat="48.08374" lon="-4.26945">
        <ele>17.441162109375</ele>
        <time>2015-11-26T15:01:18Z</time>
      </trkpt>
      <trkpt lat="48.08381" lon="-4.26943">
        <ele>18.883056640625</ele>
        <time>2015-11-26T15:01:23Z</time>
      </trkpt>
      <trkpt lat="48.08391" lon="-4.2694">
        <ele>16.479736328125</ele>
        <time>2015-11-26T15:01:32Z</time>
      </trkpt>
      <trkpt lat="48.08399" lon="-4.26937">
        <ele>11.673217773438</ele>
        <time>2015-11-26T15:01:41Z</time>
      </trkpt>
      <trkpt lat="48.08406" lon="-4.26935">
        <ele>9.7506103515625</ele>
        <time>2015-11-26T15:01:48Z</time>
      </trkpt>
      <trkpt lat="48.08416" lon="-4.26934">
        <ele>11.192504882812</ele>
        <time>2015-11-26T15:01:55Z</time>
      </trkpt>
      <trkpt lat="48.0842" lon="-4.26934">
        <ele>11.673217773438</ele>
        <time>2015-11-26T15:01:59Z</time>
      </trkpt>
      <trkpt lat="48.08424" lon="-4.26937">
        <ele>15.037719726562</ele>
        <time>2015-11-26T15:02:03Z</time>
      </trkpt>
      <trkpt lat="48.08429" lon="-4.26934">
        <ele>14.557006835938</ele>
        <time>2015-11-26T15:02:07Z</time>
      </trkpt>
      <trkpt lat="48.08441" lon="-4.26929">
        <ele>15.518432617188</ele>
        <time>2015-11-26T15:02:17Z</time>
      </trkpt>
      <trkpt lat="48.08452" lon="-4.26927">
        <ele>16.96044921875</ele>
        <time>2015-11-26T15:02:26Z</time>
      </trkpt>
      <trkpt lat="48.08459" lon="-4.26924">
        <ele>17.441162109375</ele>
        <time>2015-11-26T15:02:32Z</time>
      </trkpt>
      <trkpt lat="48.0847" lon="-4.2692">
        <ele>18.40234375</ele>
        <time>2015-11-26T15:02:41Z</time>
      </trkpt>
      <trkpt lat="48.08479" lon="-4.26916">
        <ele>19.36376953125</ele>
        <time>2015-11-26T15:02:50Z</time>
      </trkpt>
      <trkpt lat="48.08487" lon="-4.26914">
        <ele>21.286376953125</ele>
        <time>2015-11-26T15:02:57Z</time>
      </trkpt>
      <trkpt lat="48.08494" lon="-4.26912">
        <ele>21.766967773438</ele>
        <time>2015-11-26T15:03:03Z</time>
      </trkpt>
      <trkpt lat="48.08499" lon="-4.26913">
        <ele>22.24755859375</ele>
        <time>2015-11-26T15:03:08Z</time>
      </trkpt>
      <trkpt lat="48.08512" lon="-4.26908">
        <ele>23.689575195312</ele>
        <time>2015-11-26T15:03:19Z</time>
      </trkpt>
      <trkpt lat="48.08519" lon="-4.26907">
        <ele>25.6123046875</ele>
        <time>2015-11-26T15:03:25Z</time>
      </trkpt>
      <trkpt lat="48.08525" lon="-4.26905">
        <ele>28.015502929688</ele>
        <time>2015-11-26T15:03:31Z</time>
      </trkpt>
      <trkpt lat="48.08535" lon="-4.26902">
        <ele>29.938110351562</ele>
        <time>2015-11-26T15:03:40Z</time>
      </trkpt>
      <trkpt lat="48.0854" lon="-4.26902">
        <ele>31.380126953125</ele>
        <time>2015-11-26T15:03:45Z</time>
      </trkpt>
      <trkpt lat="48.08548" lon="-4.269">
        <ele>32.341552734375</ele>
        <time>2015-11-26T15:03:52Z</time>
      </trkpt>
      <trkpt lat="48.08552" lon="-4.269">
        <ele>33.302856445312</ele>
        <time>2015-11-26T15:03:56Z</time>
      </trkpt>
      <trkpt lat="48.08558" lon="-4.269">
        <ele>34.744873046875</ele>
        <time>2015-11-26T15:04:01Z</time>
      </trkpt>
      <trkpt lat="48.08564" lon="-4.26899">
        <ele>34.26416015625</ele>
        <time>2015-11-26T15:04:07Z</time>
      </trkpt>
      <trkpt lat="48.08566" lon="-4.26898">
        <ele>34.744873046875</ele>
        <time>2015-11-26T15:04:08Z</time>
      </trkpt>
      <trkpt lat="48.08568" lon="-4.26898">
        <ele>34.744873046875</ele>
        <time>2015-11-26T15:04:10Z</time>
      </trkpt>
      <trkpt lat="48.08573" lon="-4.269">
        <ele>36.186767578125</ele>
        <time>2015-11-26T15:04:14Z</time>
      </trkpt>
      <trkpt lat="48.08575" lon="-4.26901">
        <ele>36.66748046875</ele>
        <time>2015-11-26T15:04:16Z</time>
      </trkpt>
      <trkpt lat="48.08577" lon="-4.26906">
        <ele>34.744873046875</ele>
        <time>2015-11-26T15:04:21Z</time>
      </trkpt>
      <trkpt lat="48.08583" lon="-4.26913">
        <ele>32.822265625</ele>
        <time>2015-11-26T15:04:28Z</time>
      </trkpt>
      <trkpt lat="48.08585" lon="-4.26914">
        <ele>32.341552734375</ele>
        <time>2015-11-26T15:04:30Z</time>
      </trkpt>
      <trkpt lat="48.08589" lon="-4.26919">
        <ele>30.899536132812</ele>
        <time>2015-11-26T15:04:35Z</time>
      </trkpt>
      <trkpt lat="48.08592" lon="-4.26924">
        <ele>30.418823242188</ele>
        <time>2015-11-26T15:04:38Z</time>
      </trkpt>
      <trkpt lat="48.08597" lon="-4.26935">
        <ele>30.899536132812</ele>
        <time>2015-11-26T15:04:46Z</time>
      </trkpt>
      <trkpt lat="48.08601" lon="-4.26944">
        <ele>30.418823242188</ele>
        <time>2015-11-26T15:04:52Z</time>
      </trkpt>
      <trkpt lat="48.08603" lon="-4.26952">
        <ele>30.418823242188</ele>
        <time>2015-11-26T15:04:57Z</time>
      </trkpt>
      <trkpt lat="48.08606" lon="-4.26966">
        <ele>31.380126953125</ele>
        <time>2015-11-26T15:05:04Z</time>
      </trkpt>
      <trkpt lat="48.08609" lon="-4.26971">
        <ele>31.380126953125</ele>
        <time>2015-11-26T15:05:08Z</time>
      </trkpt>
      <trkpt lat="48.08612" lon="-4.26982">
        <ele>32.341552734375</ele>
        <time>2015-11-26T15:05:15Z</time>
      </trkpt>
      <trkpt lat="48.08614" lon="-4.26988">
        <ele>31.860717773438</ele>
        <time>2015-11-26T15:05:18Z</time>
      </trkpt>
      <trkpt lat="48.08618" lon="-4.26995">
        <ele>31.380126953125</ele>
        <time>2015-11-26T15:05:24Z</time>
      </trkpt>
      <trkpt lat="48.0862" lon="-4.27002">
        <ele>31.860717773438</ele>
        <time>2015-11-26T15:05:29Z</time>
      </trkpt>
      <trkpt lat="48.08622" lon="-4.27011">
        <ele>32.822265625</ele>
        <time>2015-11-26T15:05:34Z</time>
      </trkpt>
      <trkpt lat="48.08622" lon="-4.27018">
        <ele>33.302856445312</ele>
        <time>2015-11-26T15:05:38Z</time>
      </trkpt>
      <trkpt lat="48.08624" lon="-4.27022">
        <ele>33.783447265625</ele>
        <time>2015-11-26T15:05:41Z</time>
      </trkpt>
      <trkpt lat="48.08626" lon="-4.27029">
        <ele>34.26416015625</ele>
        <time>2015-11-26T15:05:45Z</time>
      </trkpt>
      <trkpt lat="48.08626" lon="-4.27038">
        <ele>35.225463867188</ele>
        <time>2015-11-26T15:05:51Z</time>
      </trkpt>
      <trkpt lat="48.08625" lon="-4.27041">
        <ele>35.225463867188</ele>
        <time>2015-11-26T15:05:53Z</time>
      </trkpt>
      <trkpt lat="48.08624" lon="-4.27044">
        <ele>35.225463867188</ele>
        <time>2015-11-26T15:05:55Z</time>
      </trkpt>
      <trkpt lat="48.08622" lon="-4.2705">
        <ele>33.783447265625</ele>
        <time>2015-11-26T15:06:01Z</time>
      </trkpt>
      <trkpt lat="48.08621" lon="-4.27053">
        <ele>33.302856445312</ele>
        <time>2015-11-26T15:06:06Z</time>
      </trkpt>
      <trkpt lat="48.08614" lon="-4.27057">
        <ele>33.783447265625</ele>
        <time>2015-11-26T15:06:13Z</time>
      </trkpt>
      <trkpt lat="48.08611" lon="-4.27066">
        <ele>34.26416015625</ele>
        <time>2015-11-26T15:06:18Z</time>
      </trkpt>
      <trkpt lat="48.08611" lon="-4.27067">
        <ele>34.744873046875</ele>
        <time>2015-11-26T15:06:19Z</time>
      </trkpt>
      <trkpt lat="48.08609" lon="-4.27075">
        <ele>35.225463867188</ele>
        <time>2015-11-26T15:06:23Z</time>
      </trkpt>
      <trkpt lat="48.08609" lon="-4.27083">
        <ele>34.26416015625</ele>
        <time>2015-11-26T15:06:29Z</time>
      </trkpt>
      <trkpt lat="48.08606" lon="-4.2709">
        <ele>35.225463867188</ele>
        <time>2015-11-26T15:06:35Z</time>
      </trkpt>
      <trkpt lat="48.08603" lon="-4.27099">
        <ele>35.225463867188</ele>
        <time>2015-11-26T15:06:41Z</time>
      </trkpt>
      <trkpt lat="48.08602" lon="-4.271">
        <ele>34.744873046875</ele>
        <time>2015-11-26T15:06:42Z</time>
      </trkpt>
      <trkpt lat="48.08598" lon="-4.27105">
        <ele>33.302856445312</ele>
        <time>2015-11-26T15:06:49Z</time>
      </trkpt>
      <trkpt lat="48.08597" lon="-4.27115">
        <ele>30.418823242188</ele>
        <time>2015-11-26T15:06:54Z</time>
      </trkpt>
      <trkpt lat="48.08597" lon="-4.27116">
        <ele>30.418823242188</ele>
        <time>2015-11-26T15:06:55Z</time>
      </trkpt>
      <trkpt lat="48.08596" lon="-4.27121">
        <ele>28.496215820312</ele>
        <time>2015-11-26T15:06:59Z</time>
      </trkpt>
      <trkpt lat="48.08593" lon="-4.27133">
        <ele>29.45751953125</ele>
        <time>2015-11-26T15:07:06Z</time>
      </trkpt>
      <trkpt lat="48.08591" lon="-4.27137">
        <ele>30.899536132812</ele>
        <time>2015-11-26T15:07:09Z</time>
      </trkpt>
      <trkpt lat="48.08587" lon="-4.27147">
        <ele>32.341552734375</ele>
        <time>2015-11-26T15:07:15Z</time>
      </trkpt>
      <trkpt lat="48.08585" lon="-4.27153">
        <ele>31.860717773438</ele>
        <time>2015-11-26T15:07:18Z</time>
      </trkpt>
      <trkpt lat="48.08583" lon="-4.27161">
        <ele>31.380126953125</ele>
        <time>2015-11-26T15:07:24Z</time>
      </trkpt>
      <trkpt lat="48.08578" lon="-4.27175">
        <ele>29.938110351562</ele>
        <time>2015-11-26T15:07:31Z</time>
      </trkpt>
      <trkpt lat="48.08575" lon="-4.27184">
        <ele>29.45751953125</ele>
        <time>2015-11-26T15:07:38Z</time>
      </trkpt>
      <trkpt lat="48.08574" lon="-4.27192">
        <ele>28.496215820312</ele>
        <time>2015-11-26T15:07:45Z</time>
      </trkpt>
      <trkpt lat="48.0857" lon="-4.27196">
        <ele>32.822265625</ele>
        <time>2015-11-26T15:07:49Z</time>
      </trkpt>
      <trkpt lat="48.08566" lon="-4.27198">
        <ele>38.109375</ele>
        <time>2015-11-26T15:07:54Z</time>
      </trkpt>
      <trkpt lat="48.08562" lon="-4.27201">
        <ele>40.993408203125</ele>
        <time>2015-11-26T15:07:58Z</time>
      </trkpt>
      <trkpt lat="48.08557" lon="-4.27209">
        <ele>37.148071289062</ele>
        <time>2015-11-26T15:08:08Z</time>
      </trkpt>
      <trkpt lat="48.08555" lon="-4.27223">
        <ele>31.380126953125</ele>
        <time>2015-11-26T15:08:15Z</time>
      </trkpt>
      <trkpt lat="48.08555" lon="-4.27235">
        <ele>28.976928710938</ele>
        <time>2015-11-26T15:08:21Z</time>
      </trkpt>
      <trkpt lat="48.08553" lon="-4.2724">
        <ele>31.860717773438</ele>
        <time>2015-11-26T15:08:25Z</time>
      </trkpt>
      <trkpt lat="48.08557" lon="-4.27244">
        <ele>30.899536132812</ele>
        <time>2015-11-26T15:08:35Z</time>
      </trkpt>
      <trkpt lat="48.08551" lon="-4.27243">
        <ele>34.26416015625</ele>
        <time>2015-11-26T15:08:45Z</time>
      </trkpt>
      <trkpt lat="48.08549" lon="-4.27249">
        <ele>31.380126953125</ele>
        <time>2015-11-26T15:08:49Z</time>
      </trkpt>
      <trkpt lat="48.0855" lon="-4.27254">
        <ele>29.45751953125</ele>
        <time>2015-11-26T15:08:54Z</time>
      </trkpt>
      <trkpt lat="48.08551" lon="-4.27254">
        <ele>29.45751953125</ele>
        <time>2015-11-26T15:08:57Z</time>
      </trkpt>
      <trkpt lat="48.0855" lon="-4.27261">
        <ele>26.573608398438</ele>
        <time>2015-11-26T15:09:04Z</time>
      </trkpt>
      <trkpt lat="48.08548" lon="-4.2727">
        <ele>18.40234375</ele>
        <time>2015-11-26T15:09:17Z</time>
      </trkpt>
      <trkpt lat="48.08552" lon="-4.2727">
        <ele>21.286376953125</ele>
        <time>2015-11-26T15:09:23Z</time>
      </trkpt>
      <trkpt lat="48.08551" lon="-4.2727">
        <ele>24.170288085938</ele>
        <time>2015-11-26T15:09:30Z</time>
      </trkpt>
      <trkpt lat="48.08551" lon="-4.2727">
        <ele>25.6123046875</ele>
        <time>2015-11-26T15:09:34Z</time>
      </trkpt>
      <trkpt lat="48.08555" lon="-4.27268">
        <ele>27.054321289062</ele>
        <time>2015-11-26T15:09:41Z</time>
      </trkpt>
      <trkpt lat="48.08555" lon="-4.27257">
        <ele>16.96044921875</ele>
        <time>2015-11-26T15:10:58Z</time>
      </trkpt>
      <trkpt lat="48.08559" lon="-4.2726">
        <ele>12.15380859375</ele>
        <time>2015-11-26T15:11:10Z</time>
      </trkpt>
      <trkpt lat="48.08559" lon="-4.2726">
        <ele>10.711791992188</ele>
        <time>2015-11-26T15:11:11Z</time>
      </trkpt>
      <trkpt lat="48.08555" lon="-4.27259">
        <ele>11.192504882812</ele>
        <time>2015-11-26T15:11:14Z</time>
      </trkpt>
      <trkpt lat="48.08553" lon="-4.27261">
        <ele>9.7506103515625</ele>
        <time>2015-11-26T15:11:16Z</time>
      </trkpt>
      <trkpt lat="48.08546" lon="-4.27269">
        <ele>19.36376953125</ele>
        <time>2015-11-26T15:11:25Z</time>
      </trkpt>
      <trkpt lat="48.0854" lon="-4.27278">
        <ele>24.651000976562</ele>
        <time>2015-11-26T15:11:32Z</time>
      </trkpt>
      <trkpt lat="48.08539" lon="-4.2728">
        <ele>25.131713867188</ele>
        <time>2015-11-26T15:11:33Z</time>
      </trkpt>
      <trkpt lat="48.08535" lon="-4.27283">
        <ele>24.651000976562</ele>
        <time>2015-11-26T15:11:36Z</time>
      </trkpt>
      <trkpt lat="48.0853" lon="-4.27289">
        <ele>26.573608398438</ele>
        <time>2015-11-26T15:11:42Z</time>
      </trkpt>
      <trkpt lat="48.08526" lon="-4.27292">
        <ele>27.534912109375</ele>
        <time>2015-11-26T15:11:46Z</time>
      </trkpt>
      <trkpt lat="48.08522" lon="-4.27294">
        <ele>31.380126953125</ele>
        <time>2015-11-26T15:11:51Z</time>
      </trkpt>
      <trkpt lat="48.0852" lon="-4.27302">
        <ele>29.938110351562</ele>
        <time>2015-11-26T15:11:55Z</time>
      </trkpt>
      <trkpt lat="48.08518" lon="-4.27304">
        <ele>29.45751953125</ele>
        <time>2015-11-26T15:11:57Z</time>
      </trkpt>
      <trkpt lat="48.08517" lon="-4.27316">
        <ele>28.496215820312</ele>
        <time>2015-11-26T15:12:04Z</time>
      </trkpt>
      <trkpt lat="48.08517" lon="-4.27317">
        <ele>28.496215820312</ele>
        <time>2015-11-26T15:12:05Z</time>
      </trkpt>
      <trkpt lat="48.08513" lon="-4.27323">
        <ele>29.45751953125</ele>
        <time>2015-11-26T15:12:11Z</time>
      </trkpt>
      <trkpt lat="48.08509" lon="-4.27326">
        <ele>29.45751953125</ele>
        <time>2015-11-26T15:12:18Z</time>
      </trkpt>
      <trkpt lat="48.0851" lon="-4.27327">
        <ele>30.418823242188</ele>
        <time>2015-11-26T15:12:27Z</time>
      </trkpt>
      <trkpt lat="48.08506" lon="-4.27328">
        <ele>31.380126953125</ele>
        <time>2015-11-26T15:12:57Z</time>
      </trkpt>
      <trkpt lat="48.085" lon="-4.27329">
        <ele>29.45751953125</ele>
        <time>2015-11-26T15:13:03Z</time>
      </trkpt>
      <trkpt lat="48.08497" lon="-4.27329">
        <ele>28.976928710938</ele>
        <time>2015-11-26T15:13:08Z</time>
      </trkpt>
      <trkpt lat="48.0849" lon="-4.2733">
        <ele>27.054321289062</ele>
        <time>2015-11-26T15:13:14Z</time>
      </trkpt>
      <trkpt lat="48.08486" lon="-4.2733">
        <ele>27.054321289062</ele>
        <time>2015-11-26T15:13:18Z</time>
      </trkpt>
      <trkpt lat="48.08481" lon="-4.27332">
        <ele>25.6123046875</ele>
        <time>2015-11-26T15:13:23Z</time>
      </trkpt>
      <trkpt lat="48.08475" lon="-4.27334">
        <ele>23.208984375</ele>
        <time>2015-11-26T15:13:30Z</time>
      </trkpt>
      <trkpt lat="48.08469" lon="-4.27335">
        <ele>20.8056640625</ele>
        <time>2015-11-26T15:13:35Z</time>
      </trkpt>
      <trkpt lat="48.08463" lon="-4.27336">
        <ele>19.36376953125</ele>
        <time>2015-11-26T15:13:41Z</time>
      </trkpt>
      <trkpt lat="48.08457" lon="-4.27339">
        <ele>18.883056640625</ele>
        <time>2015-11-26T15:13:46Z</time>
      </trkpt>
      <trkpt lat="48.08455" lon="-4.27344">
        <ele>18.40234375</ele>
        <time>2015-11-26T15:13:50Z</time>
      </trkpt>
      <trkpt lat="48.08452" lon="-4.27353">
        <ele>17.441162109375</ele>
        <time>2015-11-26T15:13:55Z</time>
      </trkpt>
      <trkpt lat="48.08454" lon="-4.27362">
        <ele>16.96044921875</ele>
        <time>2015-11-26T15:13:59Z</time>
      </trkpt>
      <trkpt lat="48.08455" lon="-4.27373">
        <ele>18.40234375</ele>
        <time>2015-11-26T15:14:06Z</time>
      </trkpt>
      <trkpt lat="48.08457" lon="-4.27382">
        <ele>19.36376953125</ele>
        <time>2015-11-26T15:14:11Z</time>
      </trkpt>
      <trkpt lat="48.08459" lon="-4.27395">
        <ele>18.40234375</ele>
        <time>2015-11-26T15:14:18Z</time>
      </trkpt>
      <trkpt lat="48.08463" lon="-4.27407">
        <ele>17.921752929688</ele>
        <time>2015-11-26T15:14:25Z</time>
      </trkpt>
      <trkpt lat="48.08463" lon="-4.27408">
        <ele>17.921752929688</ele>
        <time>2015-11-26T15:14:26Z</time>
      </trkpt>
      <trkpt lat="48.08465" lon="-4.27414">
        <ele>16.96044921875</ele>
        <time>2015-11-26T15:14:30Z</time>
      </trkpt>
      <trkpt lat="48.08468" lon="-4.27419">
        <ele>15.9990234375</ele>
        <time>2015-11-26T15:14:34Z</time>
      </trkpt>
      <trkpt lat="48.08469" lon="-4.27429">
        <ele>15.9990234375</ele>
        <time>2015-11-26T15:14:40Z</time>
      </trkpt>
      <trkpt lat="48.08471" lon="-4.27438">
        <ele>15.037719726562</ele>
        <time>2015-11-26T15:14:45Z</time>
      </trkpt>
      <trkpt lat="48.08472" lon="-4.27443">
        <ele>14.557006835938</ele>
        <time>2015-11-26T15:14:47Z</time>
      </trkpt>
      <trkpt lat="48.08475" lon="-4.27451">
        <ele>13.115112304688</ele>
        <time>2015-11-26T15:14:51Z</time>
      </trkpt>
      <trkpt lat="48.08478" lon="-4.27461">
        <ele>12.15380859375</ele>
        <time>2015-11-26T15:14:57Z</time>
      </trkpt>
      <trkpt lat="48.08478" lon="-4.27463">
        <ele>12.634399414062</ele>
        <time>2015-11-26T15:14:58Z</time>
      </trkpt>
      <trkpt lat="48.08479" lon="-4.27466">
        <ele>12.634399414062</ele>
        <time>2015-11-26T15:15:00Z</time>
      </trkpt>
      <trkpt lat="48.08484" lon="-4.27472">
        <ele>12.15380859375</ele>
        <time>2015-11-26T15:15:04Z</time>
      </trkpt>
      <trkpt lat="48.08485" lon="-4.27475">
        <ele>12.15380859375</ele>
        <time>2015-11-26T15:15:06Z</time>
      </trkpt>
      <trkpt lat="48.08487" lon="-4.2748">
        <ele>10.711791992188</ele>
        <time>2015-11-26T15:15:10Z</time>
      </trkpt>
      <trkpt lat="48.08489" lon="-4.27484">
        <ele>10.711791992188</ele>
        <time>2015-11-26T15:15:13Z</time>
      </trkpt>
      <trkpt lat="48.08491" lon="-4.27494">
        <ele>9.7506103515625</ele>
        <time>2015-11-26T15:15:18Z</time>
      </trkpt>
      <trkpt lat="48.08491" lon="-4.27496">
        <ele>9.7506103515625</ele>
        <time>2015-11-26T15:15:19Z</time>
      </trkpt>
      <trkpt lat="48.08496" lon="-4.27503">
        <ele>9.7506103515625</ele>
        <time>2015-11-26T15:15:24Z</time>
      </trkpt>
      <trkpt lat="48.08499" lon="-4.27513">
        <ele>8.30859375</ele>
        <time>2015-11-26T15:15:31Z</time>
      </trkpt>
      <trkpt lat="48.085" lon="-4.27514">
        <ele>7.827880859375</ele>
        <time>2015-11-26T15:15:32Z</time>
      </trkpt>
      <trkpt lat="48.08503" lon="-4.27519">
        <ele>6.3858642578125</ele>
        <time>2015-11-26T15:15:36Z</time>
      </trkpt>
      <trkpt lat="48.08507" lon="-4.27527">
        <ele>5.9052734375</ele>
        <time>2015-11-26T15:15:41Z</time>
      </trkpt>
      <trkpt lat="48.0851" lon="-4.27532">
        <ele>7.34716796875</ele>
        <time>2015-11-26T15:15:45Z</time>
      </trkpt>
      <trkpt lat="48.08516" lon="-4.27543">
        <ele>9.7506103515625</ele>
        <time>2015-11-26T15:15:52Z</time>
      </trkpt>
      <trkpt lat="48.08517" lon="-4.27544">
        <ele>10.711791992188</ele>
        <time>2015-11-26T15:15:53Z</time>
      </trkpt>
      <trkpt lat="48.08524" lon="-4.27553">
        <ele>12.634399414062</ele>
        <time>2015-11-26T15:16:00Z</time>
      </trkpt>
      <trkpt lat="48.08527" lon="-4.27557">
        <ele>12.15380859375</ele>
        <time>2015-11-26T15:16:03Z</time>
      </trkpt>
      <trkpt lat="48.08529" lon="-4.27563">
        <ele>12.15380859375</ele>
        <time>2015-11-26T15:16:07Z</time>
      </trkpt>
      <trkpt lat="48.08533" lon="-4.27571">
        <ele>10.231201171875</ele>
        <time>2015-11-26T15:16:13Z</time>
      </trkpt>
      <trkpt lat="48.08539" lon="-4.27581">
        <ele>6.866455078125</ele>
        <time>2015-11-26T15:16:20Z</time>
      </trkpt>
      <trkpt lat="48.08543" lon="-4.27587">
        <ele>6.866455078125</ele>
        <time>2015-11-26T15:16:26Z</time>
      </trkpt>
      <trkpt lat="48.08544" lon="-4.27592">
        <ele>9.7506103515625</ele>
        <time>2015-11-26T15:16:30Z</time>
      </trkpt>
      <trkpt lat="48.08545" lon="-4.27595">
        <ele>11.192504882812</ele>
        <time>2015-11-26T15:16:32Z</time>
      </trkpt>
      <trkpt lat="48.08546" lon="-4.276">
        <ele>12.634399414062</ele>
        <time>2015-11-26T15:16:37Z</time>
      </trkpt>
      <trkpt lat="48.08548" lon="-4.27603">
        <ele>12.15380859375</ele>
        <time>2015-11-26T15:16:41Z</time>
      </trkpt>
      <trkpt lat="48.0855" lon="-4.27608">
        <ele>12.15380859375</ele>
        <time>2015-11-26T15:16:45Z</time>
      </trkpt>
      <trkpt lat="48.08554" lon="-4.27615">
        <ele>12.15380859375</ele>
        <time>2015-11-26T15:16:50Z</time>
      </trkpt>
      <trkpt lat="48.08559" lon="-4.27619">
        <ele>10.231201171875</ele>
        <time>2015-11-26T15:16:55Z</time>
      </trkpt>
      <trkpt lat="48.08563" lon="-4.27628">
        <ele>9.7506103515625</ele>
        <time>2015-11-26T15:17:03Z</time>
      </trkpt>
      <trkpt lat="48.08565" lon="-4.27634">
        <ele>8.7891845703125</ele>
        <time>2015-11-26T15:17:09Z</time>
      </trkpt>
      <trkpt lat="48.08568" lon="-4.27639">
        <ele>8.30859375</ele>
        <time>2015-11-26T15:17:15Z</time>
      </trkpt>
      <trkpt lat="48.08572" lon="-4.27646">
        <ele>6.866455078125</ele>
        <time>2015-11-26T15:17:21Z</time>
      </trkpt>
      <trkpt lat="48.08573" lon="-4.2765">
        <ele>5.9052734375</ele>
        <time>2015-11-26T15:17:24Z</time>
      </trkpt>
      <trkpt lat="48.08577" lon="-4.27653">
        <ele>6.3858642578125</ele>
        <time>2015-11-26T15:17:27Z</time>
      </trkpt>
      <trkpt lat="48.08578" lon="-4.27654">
        <ele>6.3858642578125</ele>
        <time>2015-11-26T15:17:29Z</time>
      </trkpt>
      <trkpt lat="48.0858" lon="-4.27655">
        <ele>6.866455078125</ele>
        <time>2015-11-26T15:17:35Z</time>
      </trkpt>
      <trkpt lat="48.08584" lon="-4.2766">
        <ele>6.866455078125</ele>
        <time>2015-11-26T15:17:41Z</time>
      </trkpt>
      <trkpt lat="48.08588" lon="-4.27667">
        <ele>8.30859375</ele>
        <time>2015-11-26T15:17:46Z</time>
      </trkpt>
      <trkpt lat="48.08591" lon="-4.27671">
        <ele>9.2698974609375</ele>
        <time>2015-11-26T15:17:49Z</time>
      </trkpt>
      <trkpt lat="48.08595" lon="-4.2768">
        <ele>10.711791992188</ele>
        <time>2015-11-26T15:17:54Z</time>
      </trkpt>
      <trkpt lat="48.086" lon="-4.27689">
        <ele>12.15380859375</ele>
        <time>2015-11-26T15:18:00Z</time>
      </trkpt>
      <trkpt lat="48.08604" lon="-4.27694">
        <ele>13.115112304688</ele>
        <time>2015-11-26T15:18:06Z</time>
      </trkpt>
      <trkpt lat="48.08605" lon="-4.27697">
        <ele>14.076416015625</ele>
        <time>2015-11-26T15:18:09Z</time>
      </trkpt>
      <trkpt lat="48.08611" lon="-4.277">
        <ele>15.9990234375</ele>
        <time>2015-11-26T15:18:15Z</time>
      </trkpt>
      <trkpt lat="48.08612" lon="-4.27699">
        <ele>15.9990234375</ele>
        <time>2015-11-26T15:18:16Z</time>
      </trkpt>
      <trkpt lat="48.08619" lon="-4.27695">
        <ele>15.518432617188</ele>
        <time>2015-11-26T15:18:23Z</time>
      </trkpt>
      <trkpt lat="48.08626" lon="-4.27686">
        <ele>14.557006835938</ele>
        <time>2015-11-26T15:18:31Z</time>
      </trkpt>
      <trkpt lat="48.08632" lon="-4.2768">
        <ele>14.557006835938</ele>
        <time>2015-11-26T15:18:38Z</time>
      </trkpt>
      <trkpt lat="48.08634" lon="-4.27677">
        <ele>15.037719726562</ele>
        <time>2015-11-26T15:18:41Z</time>
      </trkpt>
      <trkpt lat="48.0864" lon="-4.27669">
        <ele>15.9990234375</ele>
        <time>2015-11-26T15:18:49Z</time>
      </trkpt>
      <trkpt lat="48.08643" lon="-4.27663">
        <ele>18.40234375</ele>
        <time>2015-11-26T15:18:56Z</time>
      </trkpt>
      <trkpt lat="48.08647" lon="-4.27655">
        <ele>20.324951171875</ele>
        <time>2015-11-26T15:19:03Z</time>
      </trkpt>
      <trkpt lat="48.08649" lon="-4.27649">
        <ele>21.286376953125</ele>
        <time>2015-11-26T15:19:09Z</time>
      </trkpt>
      <trkpt lat="48.08652" lon="-4.27642">
        <ele>21.286376953125</ele>
        <time>2015-11-26T15:19:15Z</time>
      </trkpt>
      <trkpt lat="48.08655" lon="-4.27634">
        <ele>21.286376953125</ele>
        <time>2015-11-26T15:19:21Z</time>
      </trkpt>
      <trkpt lat="48.08658" lon="-4.27625">
        <ele>23.208984375</ele>
        <time>2015-11-26T15:19:28Z</time>
      </trkpt>
      <trkpt lat="48.08659" lon="-4.27621">
        <ele>23.689575195312</ele>
        <time>2015-11-26T15:19:31Z</time>
      </trkpt>
      <trkpt lat="48.08663" lon="-4.27614">
        <ele>23.689575195312</ele>
        <time>2015-11-26T15:19:37Z</time>
      </trkpt>
      <trkpt lat="48.08666" lon="-4.27608">
        <ele>24.651000976562</ele>
        <time>2015-11-26T15:19:42Z</time>
      </trkpt>
      <trkpt lat="48.08668" lon="-4.276">
        <ele>25.131713867188</ele>
        <time>2015-11-26T15:19:48Z</time>
      </trkpt>
      <trkpt lat="48.08672" lon="-4.27594">
        <ele>25.6123046875</ele>
        <time>2015-11-26T15:19:54Z</time>
      </trkpt>
      <trkpt lat="48.08675" lon="-4.27587">
        <ele>26.573608398438</ele>
        <time>2015-11-26T15:20:00Z</time>
      </trkpt>
      <trkpt lat="48.08679" lon="-4.27579">
        <ele>27.534912109375</ele>
        <time>2015-11-26T15:20:06Z</time>
      </trkpt>
      <trkpt lat="48.08681" lon="-4.27573">
        <ele>28.015502929688</ele>
        <time>2015-11-26T15:20:11Z</time>
      </trkpt>
      <trkpt lat="48.08684" lon="-4.27565">
        <ele>28.015502929688</ele>
        <time>2015-11-26T15:20:18Z</time>
      </trkpt>
      <trkpt lat="48.08688" lon="-4.27558">
        <ele>28.976928710938</ele>
        <time>2015-11-26T15:20:25Z</time>
      </trkpt>
      <trkpt lat="48.08691" lon="-4.2755">
        <ele>29.938110351562</ele>
        <time>2015-11-26T15:20:31Z</time>
      </trkpt>
      <trkpt lat="48.08695" lon="-4.27541">
        <ele>29.938110351562</ele>
        <time>2015-11-26T15:20:38Z</time>
      </trkpt>
      <trkpt lat="48.08697" lon="-4.27533">
        <ele>31.380126953125</ele>
        <time>2015-11-26T15:20:43Z</time>
      </trkpt>
      <trkpt lat="48.08699" lon="-4.27526">
        <ele>31.860717773438</ele>
        <time>2015-11-26T15:20:48Z</time>
      </trkpt>
      <trkpt lat="48.08701" lon="-4.27517">
        <ele>32.341552734375</ele>
        <time>2015-11-26T15:20:54Z</time>
      </trkpt>
      <trkpt lat="48.08704" lon="-4.27509">
        <ele>33.302856445312</ele>
        <time>2015-11-26T15:21:00Z</time>
      </trkpt>
      <trkpt lat="48.08708" lon="-4.27501">
        <ele>33.783447265625</ele>
        <time>2015-11-26T15:21:06Z</time>
      </trkpt>
      <trkpt lat="48.08711" lon="-4.27492">
        <ele>34.26416015625</ele>
        <time>2015-11-26T15:21:13Z</time>
      </trkpt>
      <trkpt lat="48.08714" lon="-4.27485">
        <ele>35.7060546875</ele>
        <time>2015-11-26T15:21:19Z</time>
      </trkpt>
      <trkpt lat="48.08717" lon="-4.27477">
        <ele>36.66748046875</ele>
        <time>2015-11-26T15:21:25Z</time>
      </trkpt>
      <trkpt lat="48.0872" lon="-4.27472">
        <ele>37.628662109375</ele>
        <time>2015-11-26T15:21:29Z</time>
      </trkpt>
      <trkpt lat="48.08723" lon="-4.27466">
        <ele>38.109375</ele>
        <time>2015-11-26T15:21:35Z</time>
      </trkpt>
      <trkpt lat="48.08726" lon="-4.27458">
        <ele>38.109375</ele>
        <time>2015-11-26T15:21:41Z</time>
      </trkpt>
      <trkpt lat="48.08729" lon="-4.27454">
        <ele>39.55126953125</ele>
        <time>2015-11-26T15:21:45Z</time>
      </trkpt>
      <trkpt lat="48.08732" lon="-4.2745">
        <ele>40.032104492188</ele>
        <time>2015-11-26T15:21:49Z</time>
      </trkpt>
      <trkpt lat="48.08737" lon="-4.27442">
        <ele>40.993408203125</ele>
        <time>2015-11-26T15:21:56Z</time>
      </trkpt>
      <trkpt lat="48.08739" lon="-4.27438">
        <ele>41.473999023438</ele>
        <time>2015-11-26T15:21:59Z</time>
      </trkpt>
      <trkpt lat="48.08743" lon="-4.27433">
        <ele>42.435424804688</ele>
        <time>2015-11-26T15:22:04Z</time>
      </trkpt>
      <trkpt lat="48.08746" lon="-4.27427">
        <ele>42.916015625</ele>
        <time>2015-11-26T15:22:10Z</time>
      </trkpt>
      <trkpt lat="48.0875" lon="-4.27419">
        <ele>42.916015625</ele>
        <time>2015-11-26T15:22:17Z</time>
      </trkpt>
      <trkpt lat="48.08754" lon="-4.27412">
        <ele>44.358032226562</ele>
        <time>2015-11-26T15:22:23Z</time>
      </trkpt>
      <trkpt lat="48.08759" lon="-4.27406">
        <ele>46.280639648438</ele>
        <time>2015-11-26T15:22:29Z</time>
      </trkpt>
      <trkpt lat="48.08761" lon="-4.27405">
        <ele>46.280639648438</ele>
        <time>2015-11-26T15:22:31Z</time>
      </trkpt>
      <trkpt lat="48.08764" lon="-4.27397">
        <ele>46.280639648438</ele>
        <time>2015-11-26T15:22:38Z</time>
      </trkpt>
      <trkpt lat="48.08771" lon="-4.27391">
        <ele>46.76123046875</ele>
        <time>2015-11-26T15:22:45Z</time>
      </trkpt>
      <trkpt lat="48.08772" lon="-4.27389">
        <ele>47.241821289062</ele>
        <time>2015-11-26T15:22:47Z</time>
      </trkpt>
      <trkpt lat="48.08778" lon="-4.27384">
        <ele>47.722534179688</ele>
        <time>2015-11-26T15:22:53Z</time>
      </trkpt>
      <trkpt lat="48.08784" lon="-4.27379">
        <ele>49.645263671875</ele>
        <time>2015-11-26T15:23:00Z</time>
      </trkpt>
      <trkpt lat="48.08788" lon="-4.27375">
        <ele>50.606567382812</ele>
        <time>2015-11-26T15:23:05Z</time>
      </trkpt>
      <trkpt lat="48.08791" lon="-4.2737">
        <ele>50.606567382812</ele>
        <time>2015-11-26T15:23:11Z</time>
      </trkpt>
      <trkpt lat="48.08796" lon="-4.27368">
        <ele>52.529174804688</ele>
        <time>2015-11-26T15:23:16Z</time>
      </trkpt>
      <trkpt lat="48.08801" lon="-4.27364">
        <ele>53.009765625</ele>
        <time>2015-11-26T15:23:21Z</time>
      </trkpt>
      <trkpt lat="48.08806" lon="-4.27361">
        <ele>54.932373046875</ele>
        <time>2015-11-26T15:23:25Z</time>
      </trkpt>
      <trkpt lat="48.0881" lon="-4.27358">
        <ele>55.893798828125</ele>
        <time>2015-11-26T15:23:29Z</time>
      </trkpt>
      <trkpt lat="48.08812" lon="-4.27355">
        <ele>55.893798828125</ele>
        <time>2015-11-26T15:23:32Z</time>
      </trkpt>
      <trkpt lat="48.08817" lon="-4.2735">
        <ele>56.37451171875</ele>
        <time>2015-11-26T15:23:39Z</time>
      </trkpt>
      <trkpt lat="48.08821" lon="-4.27345">
        <ele>56.37451171875</ele>
        <time>2015-11-26T15:23:45Z</time>
      </trkpt>
      <trkpt lat="48.08824" lon="-4.27342">
        <ele>58.297119140625</ele>
        <time>2015-11-26T15:23:51Z</time>
      </trkpt>
      <trkpt lat="48.08831" lon="-4.27338">
        <ele>59.739135742188</ele>
        <time>2015-11-26T15:23:57Z</time>
      </trkpt>
      <trkpt lat="48.08836" lon="-4.27333">
        <ele>59.739135742188</ele>
        <time>2015-11-26T15:24:02Z</time>
      </trkpt>
      <trkpt lat="48.08839" lon="-4.27331">
        <ele>59.739135742188</ele>
        <time>2015-11-26T15:24:05Z</time>
      </trkpt>
      <trkpt lat="48.0885" lon="-4.27327">
        <ele>64.065063476562</ele>
        <time>2015-11-26T15:24:14Z</time>
      </trkpt>
      <trkpt lat="48.08858" lon="-4.27323">
        <ele>64.545654296875</ele>
        <time>2015-11-26T15:24:21Z</time>
      </trkpt>
      <trkpt lat="48.08862" lon="-4.27321">
        <ele>64.545654296875</ele>
        <time>2015-11-26T15:24:26Z</time>
      </trkpt>
      <trkpt lat="48.08868" lon="-4.2732">
        <ele>65.987670898438</ele>
        <time>2015-11-26T15:24:32Z</time>
      </trkpt>
      <trkpt lat="48.08874" lon="-4.2732">
        <ele>66.46826171875</ele>
        <time>2015-11-26T15:24:39Z</time>
      </trkpt>
      <trkpt lat="48.08879" lon="-4.27321">
        <ele>67.4296875</ele>
        <time>2015-11-26T15:24:43Z</time>
      </trkpt>
      <trkpt lat="48.08884" lon="-4.27325">
        <ele>67.4296875</ele>
        <time>2015-11-26T15:24:48Z</time>
      </trkpt>
      <trkpt lat="48.08888" lon="-4.2733">
        <ele>67.910278320312</ele>
        <time>2015-11-26T15:24:53Z</time>
      </trkpt>
      <trkpt lat="48.08893" lon="-4.27338">
        <ele>67.910278320312</ele>
        <time>2015-11-26T15:25:00Z</time>
      </trkpt>
      <trkpt lat="48.08896" lon="-4.27342">
        <ele>67.910278320312</ele>
        <time>2015-11-26T15:25:03Z</time>
      </trkpt>
      <trkpt lat="48.089" lon="-4.27348">
        <ele>67.4296875</ele>
        <time>2015-11-26T15:25:08Z</time>
      </trkpt>
      <trkpt lat="48.08906" lon="-4.27355">
        <ele>67.4296875</ele>
        <time>2015-11-26T15:25:14Z</time>
      </trkpt>
      <trkpt lat="48.08911" lon="-4.27363">
        <ele>67.4296875</ele>
        <time>2015-11-26T15:25:21Z</time>
      </trkpt>
      <trkpt lat="48.08918" lon="-4.27371">
        <ele>67.4296875</ele>
        <time>2015-11-26T15:25:28Z</time>
      </trkpt>
      <trkpt lat="48.08923" lon="-4.27378">
        <ele>67.910278320312</ele>
        <time>2015-11-26T15:25:34Z</time>
      </trkpt>
      <trkpt lat="48.08929" lon="-4.27385">
        <ele>67.910278320312</ele>
        <time>2015-11-26T15:25:40Z</time>
      </trkpt>
      <trkpt lat="48.08934" lon="-4.27392">
        <ele>67.910278320312</ele>
        <time>2015-11-26T15:25:45Z</time>
      </trkpt>
      <trkpt lat="48.08939" lon="-4.27398">
        <ele>68.87158203125</ele>
        <time>2015-11-26T15:25:50Z</time>
      </trkpt>
      <trkpt lat="48.08945" lon="-4.27405">
        <ele>69.832885742188</ele>
        <time>2015-11-26T15:25:57Z</time>
      </trkpt>
      <trkpt lat="48.08952" lon="-4.27411">
        <ele>70.3134765625</ele>
        <time>2015-11-26T15:26:03Z</time>
      </trkpt>
      <trkpt lat="48.08955" lon="-4.27414">
        <ele>70.3134765625</ele>
        <time>2015-11-26T15:26:06Z</time>
      </trkpt>
      <trkpt lat="48.08962" lon="-4.27418">
        <ele>71.27490234375</ele>
        <time>2015-11-26T15:26:12Z</time>
      </trkpt>
      <trkpt lat="48.08963" lon="-4.27418">
        <ele>71.27490234375</ele>
        <time>2015-11-26T15:26:13Z</time>
      </trkpt>
      <trkpt lat="48.08968" lon="-4.2742">
        <ele>72.236206054688</ele>
        <time>2015-11-26T15:26:17Z</time>
      </trkpt>
      <trkpt lat="48.08974" lon="-4.2742">
        <ele>72.716918945312</ele>
        <time>2015-11-26T15:26:22Z</time>
      </trkpt>
      <trkpt lat="48.08984" lon="-4.2742">
        <ele>73.67822265625</ele>
        <time>2015-11-26T15:26:30Z</time>
      </trkpt>
      <trkpt lat="48.08991" lon="-4.2742">
        <ele>73.67822265625</ele>
        <time>2015-11-26T15:26:36Z</time>
      </trkpt>
      <trkpt lat="48.09" lon="-4.2742">
        <ele>73.67822265625</ele>
        <time>2015-11-26T15:26:43Z</time>
      </trkpt>
      <trkpt lat="48.09008" lon="-4.2742">
        <ele>74.639526367188</ele>
        <time>2015-11-26T15:26:50Z</time>
      </trkpt>
      <trkpt lat="48.09015" lon="-4.27419">
        <ele>75.120239257812</ele>
        <time>2015-11-26T15:26:56Z</time>
      </trkpt>
      <trkpt lat="48.09024" lon="-4.27418">
        <ele>75.600830078125</ele>
        <time>2015-11-26T15:27:04Z</time>
      </trkpt>
      <trkpt lat="48.09032" lon="-4.27419">
        <ele>76.562133789062</ele>
        <time>2015-11-26T15:27:11Z</time>
      </trkpt>
      <trkpt lat="48.09039" lon="-4.27418">
        <ele>78.004028320312</ele>
        <time>2015-11-26T15:27:18Z</time>
      </trkpt>
      <trkpt lat="48.09041" lon="-4.27418">
        <ele>78.965454101562</ele>
        <time>2015-11-26T15:27:20Z</time>
      </trkpt>
      <trkpt lat="48.09047" lon="-4.27409">
        <ele>80.88818359375</ele>
        <time>2015-11-26T15:27:27Z</time>
      </trkpt>
      <trkpt lat="48.09049" lon="-4.274">
        <ele>79.926635742188</ele>
        <time>2015-11-26T15:27:33Z</time>
      </trkpt>
      <trkpt lat="48.09048" lon="-4.27389">
        <ele>78.004028320312</ele>
        <time>2015-11-26T15:27:40Z</time>
      </trkpt>
      <trkpt lat="48.09049" lon="-4.27386">
        <ele>77.5234375</ele>
        <time>2015-11-26T15:27:42Z</time>
      </trkpt>
      <trkpt lat="48.0905" lon="-4.27376">
        <ele>76.562133789062</ele>
        <time>2015-11-26T15:27:48Z</time>
      </trkpt>
      <trkpt lat="48.09049" lon="-4.2737">
        <ele>76.562133789062</ele>
        <time>2015-11-26T15:27:52Z</time>
      </trkpt>
      <trkpt lat="48.09049" lon="-4.27349">
        <ele>79.926635742188</ele>
        <time>2015-11-26T15:28:02Z</time>
      </trkpt>
      <trkpt lat="48.09055" lon="-4.27342">
        <ele>78.965454101562</ele>
        <time>2015-11-26T15:28:09Z</time>
      </trkpt>
      <trkpt lat="48.09059" lon="-4.27337">
        <ele>78.965454101562</ele>
        <time>2015-11-26T15:28:13Z</time>
      </trkpt>
      <trkpt lat="48.09063" lon="-4.27327">
        <ele>78.965454101562</ele>
        <time>2015-11-26T15:28:20Z</time>
      </trkpt>
      <trkpt lat="48.09067" lon="-4.27315">
        <ele>79.446044921875</ele>
        <time>2015-11-26T15:28:27Z</time>
      </trkpt>
      <trkpt lat="48.0907" lon="-4.27304">
        <ele>80.407470703125</ele>
        <time>2015-11-26T15:28:34Z</time>
      </trkpt>
      <trkpt lat="48.0907" lon="-4.27302">
        <ele>80.407470703125</ele>
        <time>2015-11-26T15:28:35Z</time>
      </trkpt>
      <trkpt lat="48.09073" lon="-4.2729">
        <ele>81.368774414062</ele>
        <time>2015-11-26T15:28:42Z</time>
      </trkpt>
      <trkpt lat="48.09075" lon="-4.2728">
        <ele>81.849365234375</ele>
        <time>2015-11-26T15:28:48Z</time>
      </trkpt>
      <trkpt lat="48.09077" lon="-4.27276">
        <ele>82.330078125</ele>
        <time>2015-11-26T15:28:51Z</time>
      </trkpt>
      <trkpt lat="48.0908" lon="-4.27265">
        <ele>82.330078125</ele>
        <time>2015-11-26T15:28:58Z</time>
      </trkpt>
      <trkpt lat="48.09086" lon="-4.27254">
        <ele>82.810791015625</ele>
        <time>2015-11-26T15:29:06Z</time>
      </trkpt>
      <trkpt lat="48.09086" lon="-4.27253">
        <ele>82.810791015625</ele>
        <time>2015-11-26T15:29:07Z</time>
      </trkpt>
      <trkpt lat="48.09089" lon="-4.2725">
        <ele>82.330078125</ele>
        <time>2015-11-26T15:29:10Z</time>
      </trkpt>
      <trkpt lat="48.09091" lon="-4.27249">
        <ele>82.810791015625</ele>
        <time>2015-11-26T15:29:13Z</time>
      </trkpt>
      <trkpt lat="48.09095" lon="-4.27254">
        <ele>80.88818359375</ele>
        <time>2015-11-26T15:29:17Z</time>
      </trkpt>
      <trkpt lat="48.091" lon="-4.27252">
        <ele>83.291381835938</ele>
        <time>2015-11-26T15:29:28Z</time>
      </trkpt>
      <trkpt lat="48.09104" lon="-4.27248">
        <ele>82.330078125</ele>
        <time>2015-11-26T15:29:41Z</time>
      </trkpt>
      <trkpt lat="48.09107" lon="-4.27245">
        <ele>82.810791015625</ele>
        <time>2015-11-26T15:29:46Z</time>
      </trkpt>
      <trkpt lat="48.09109" lon="-4.27245">
        <ele>84.252685546875</ele>
        <time>2015-11-26T15:29:51Z</time>
      </trkpt>
      <trkpt lat="48.09108" lon="-4.27245">
        <ele>84.7333984375</ele>
        <time>2015-11-26T15:29:54Z</time>
      </trkpt>
      <trkpt lat="48.09114" lon="-4.27251">
        <ele>83.77197265625</ele>
        <time>2015-11-26T15:30:01Z</time>
      </trkpt>
      <trkpt lat="48.09122" lon="-4.27258">
        <ele>83.77197265625</ele>
        <time>2015-11-26T15:30:08Z</time>
      </trkpt>
      <trkpt lat="48.09129" lon="-4.27264">
        <ele>85.213989257812</ele>
        <time>2015-11-26T15:30:14Z</time>
      </trkpt>
      <trkpt lat="48.09131" lon="-4.27266">
        <ele>85.694580078125</ele>
        <time>2015-11-26T15:30:16Z</time>
      </trkpt>
      <trkpt lat="48.09134" lon="-4.27268">
        <ele>85.213989257812</ele>
        <time>2015-11-26T15:30:19Z</time>
      </trkpt>
      <trkpt lat="48.09138" lon="-4.27271">
        <ele>83.77197265625</ele>
        <time>2015-11-26T15:30:23Z</time>
      </trkpt>
      <trkpt lat="48.09144" lon="-4.27276">
        <ele>83.291381835938</ele>
        <time>2015-11-26T15:30:29Z</time>
      </trkpt>
      <trkpt lat="48.09148" lon="-4.27282">
        <ele>84.7333984375</ele>
        <time>2015-11-26T15:30:34Z</time>
      </trkpt>
      <trkpt lat="48.09151" lon="-4.27289">
        <ele>84.7333984375</ele>
        <time>2015-11-26T15:30:38Z</time>
      </trkpt>
      <trkpt lat="48.09154" lon="-4.27294">
        <ele>84.7333984375</ele>
        <time>2015-11-26T15:30:42Z</time>
      </trkpt>
      <trkpt lat="48.09155" lon="-4.27304">
        <ele>83.77197265625</ele>
        <time>2015-11-26T15:30:47Z</time>
      </trkpt>
      <trkpt lat="48.09159" lon="-4.27313">
        <ele>84.7333984375</ele>
        <time>2015-11-26T15:30:53Z</time>
      </trkpt>
      <trkpt lat="48.09166" lon="-4.27318">
        <ele>84.252685546875</ele>
        <time>2015-11-26T15:31:00Z</time>
      </trkpt>
      <trkpt lat="48.09173" lon="-4.27325">
        <ele>84.7333984375</ele>
        <time>2015-11-26T15:31:07Z</time>
      </trkpt>
      <trkpt lat="48.0918" lon="-4.2733">
        <ele>84.7333984375</ele>
        <time>2015-11-26T15:31:14Z</time>
      </trkpt>
      <trkpt lat="48.09184" lon="-4.27336">
        <ele>84.7333984375</ele>
        <time>2015-11-26T15:31:20Z</time>
      </trkpt>
      <trkpt lat="48.0919" lon="-4.27338">
        <ele>85.213989257812</ele>
        <time>2015-11-26T15:31:26Z</time>
      </trkpt>
      <trkpt lat="48.09196" lon="-4.27339">
        <ele>84.7333984375</ele>
        <time>2015-11-26T15:31:34Z</time>
      </trkpt>
      <trkpt lat="48.09196" lon="-4.27339">
        <ele>84.7333984375</ele>
        <time>2015-11-26T15:31:41Z</time>
      </trkpt>
    </trkseg>
  </trk>
</gpx>